[[{"header":{"parameterUnit":"m.s-1","parameterCategory":1,"la1":30.6,"la2":29.2853,"lo1":-89.7004,"lo2":-87.6739,"dy":0.0162,"dx":0.0183,"nx":112,"ny":82,"refTime":"2023-08-24T12:00:00:Z","depth":0,"parameterNumber":2,"parameterNumberName":"U-component_of_WINDS"},"data":[0.0,0.0,0.0,0.0,0.0,0.0,0.0,0.0,0.0,0.0,0.0,0.0,0.0,0.0,0.0,0.0,0.0,0.0,0.0,0.0,0.0,0.0,0.0,0.0,0.0,0.0,0.0,0.0,0.0,0.0,0.0,0.0,0.0,0.0,0.0,0.0,0.0,0.0,0.0,0.0,0.0,0.0,0.0,0.0,0.0,0.0,0.0,0.0,0.0,0.0,0.0,0.0,0.0,0.0,0.0,0.0,0.0,0.0,0.0,0.0,0.0,0.0,0.0,0.0,0.0,0.0,0.0,0.0,0.0,0.0,0.0,0.0,0.0,0.0,0.0,0.0,0.0,0.0,0.0,0.0,0.0,0.0,0.0,0.0,0.0,0.0,0.0,0.0,0.0,0.0,-0.9209,-1.2972,-1.7233,-1.9473,-1.8681,-1.7481,-1.5908,-1.3908,0.0,0.0,0.0,0.0,0.0,0.0,0.0,0.0,0.0,0.0,0.0,0.0,0.0,0.0,0.0,0.0,0.0,0.0,0.0,0.0,0.0,0.0,0.0,0.0,0.0,0.0,0.0,0.0,0.0,0.0,0.0,0.0,0.0,0.0,0.0,0.0,0.0,0.0,0.0,0.0,0.0,0.0,0.0,0.0,0.0,0.0,0.0,0.0,0.0,0.0,0.0,0.0,0.0,0.0,0.0,0.0,0.0,0.0,0.0,0.0,0.0,0.0,0.0,0.0,0.0,0.0,0.0,0.0,0.0,0.0,0.0,0.0,0.0,0.0,0.0,0.0,0.0,0.0,0.0,0.0,0.0,0.0,0.0,0.0,0.0,0.0,0.0,0.0,0.0,0.0,0.0,0.0,0.0,0.0,0.0,0.0,0.0,0.0,0.0,0.0,0.0,0.0,0.0,0.0,-1.1974,-1.8374,-1.95,-1.939,-1.8359,-1.7812,-1.6658,-1.4655,0.0,0.0,0.0,0.0,0.0,0.0,0.0,0.0,0.0,0.0,0.0,0.0,0.0,0.0,0.0,0.0,0.0,0.0,0.0,0.0,0.0,0.0,0.0,0.0,0.0,0.0,0.0,0.0,0.0,0.0,0.0,0.0,0.0,0.0,0.0,0.0,0.0,0.0,0.0,0.0,0.0,0.0,0.0,0.0,0.0,0.0,0.0,0.0,0.0,0.0,0.0,0.0,0.0,0.0,0.0,0.0,0.0,0.0,0.0,0.0,0.0,0.0,0.0,0.0,0.0,0.0,0.0,0.0,0.0,0.0,0.0,0.0,0.0,0.0,0.0,0.0,0.0,0.0,0.0,0.0,0.0,0.0,0.0,0.0,0.0,0.0,0.0,0.0,0.0,0.0,0.0,0.0,0.0,0.0,0.0,0.0,0.0,0.0,0.0,0.0,0.0,0.0,0.0,-1.1121,-1.4882,-1.9724,-1.9807,-1.9236,-1.8537,-1.7897,-1.6631,-1.4469,-1.286,0.0,0.0,0.0,0.0,0.0,0.0,0.0,0.0,0.0,0.0,0.0,0.0,0.0,0.0,0.0,0.0,0.0,0.0,0.0,0.0,0.0,0.0,0.0,0.0,0.0,0.0,0.0,0.0,0.0,0.0,0.0,0.0,0.0,0.0,0.0,0.0,0.0,0.0,0.0,0.0,0.0,0.0,0.0,0.0,0.0,0.0,0.0,0.0,0.0,0.0,0.0,0.0,0.0,0.0,0.0,0.0,0.0,0.0,0.0,0.0,0.0,0.0,0.0,0.0,0.0,0.0,0.0,0.0,0.0,0.0,0.0,0.0,0.0,0.0,0.0,0.0,0.0,0.0,0.0,0.0,0.0,0.0,0.0,0.0,0.0,0.0,0.0,0.0,0.0,0.0,0.0,0.0,0.0,0.0,0.0,0.0,0.0,0.0,0.0,0.0,0.0,0.0,-1.5033,-1.7195,-1.9918,-1.9703,-1.9243,-1.8967,-1.7914,-1.6481,-1.4664,-1.318,0.0,0.0,0.0,0.0,0.0,0.0,0.0,0.0,0.0,0.0,0.0,0.0,0.0,0.0,0.0,0.0,0.0,0.0,0.0,0.0,0.0,0.0,0.0,0.0,0.0,0.0,0.0,0.0,0.0,0.0,0.0,0.0,0.0,0.0,0.0,0.0,0.0,0.0,0.0,0.0,0.0,0.0,0.0,0.0,0.0,0.0,0.0,0.0,0.0,0.0,0.0,0.0,0.0,0.0,0.0,0.0,0.0,0.0,0.0,0.0,0.0,0.0,0.0,0.0,0.0,0.0,0.0,0.0,0.0,0.0,0.0,0.0,0.0,0.0,0.0,0.0,0.0,0.0,0.0,0.0,0.0,0.0,0.0,0.0,0.0,0.0,0.0,0.0,0.0,0.0,0.0,0.0,0.0,0.0,0.0,0.0,0.0,0.0,0.0,0.0,0.0,0.0,-1.5974,-1.8162,-2.0005,-1.9823,-1.9594,-1.963,-1.7927,-1.6672,-1.6258,-1.3361,0.0,0.0,0.0,0.0,0.0,0.0,0.0,0.0,0.0,0.0,0.0,0.0,0.0,0.0,0.0,0.0,0.0,0.0,0.0,0.0,0.0,0.0,0.0,0.0,0.0,0.0,0.0,0.0,0.0,0.0,0.0,0.0,0.0,0.0,0.0,0.0,0.0,0.0,0.0,0.0,0.0,0.0,0.0,0.0,0.0,0.0,0.0,0.0,0.0,0.0,0.0,0.0,0.0,0.0,0.0,0.0,0.0,0.0,0.0,0.0,0.0,0.0,0.0,0.0,0.0,0.0,0.0,0.0,0.0,0.0,0.0,0.0,0.0,0.0,0.0,0.0,0.0,0.0,0.0,0.0,0.0,0.0,0.0,0.0,0.0,0.0,0.0,0.0,0.0,0.0,0.0,0.0,0.0,0.0,0.0,0.0,0.0,0.0,0.0,0.0,0.0,0.0,-1.7083,-1.9037,-2.0537,-1.9926,-1.9764,-2.0619,-1.8694,-1.7082,-1.6329,0.0,0.0,0.0,0.0,0.0,0.0,0.0,0.0,0.0,0.0,0.0,0.0,0.0,0.0,0.0,0.0,0.0,0.0,0.0,0.0,0.0,0.0,0.0,0.0,0.0,0.0,0.0,0.0,0.0,0.0,0.0,0.0,0.0,0.0,0.0,0.0,0.0,0.0,0.0,0.0,0.0,0.0,0.0,0.0,0.0,0.0,0.0,0.0,0.0,0.0,0.0,0.0,0.0,0.0,0.0,0.0,0.0,0.0,0.0,0.0,0.0,0.0,0.0,0.0,0.0,0.0,0.0,0.0,0.0,0.0,0.0,0.0,0.0,0.0,0.0,0.0,0.0,0.0,0.0,0.0,0.0,0.0,0.0,0.0,0.0,0.0,0.0,0.0,0.0,0.0,0.0,0.0,0.0,0.0,0.0,0.0,0.0,0.0,0.0,0.0,0.0,0.0,-1.6121,-1.8166,-1.9812,-2.0945,-2.0265,-2.0283,-2.1599,-1.943,-1.7659,-1.6884,0.0,0.0,0.0,0.0,0.0,0.0,0.0,0.0,0.0,0.0,0.0,0.0,0.0,0.0,0.0,0.0,0.0,0.0,0.0,0.0,0.0,0.0,0.0,0.0,0.0,0.0,0.0,0.0,0.0,0.0,0.0,0.0,0.0,0.0,0.0,0.0,0.0,0.0,0.0,0.0,0.0,0.0,0.0,0.0,0.0,0.0,0.0,0.0,0.0,0.0,0.0,0.0,0.0,0.0,0.0,0.0,0.0,0.0,0.0,0.0,0.0,0.0,0.0,0.0,0.0,0.0,0.0,0.0,0.0,0.0,0.0,0.0,0.0,0.0,0.0,0.0,0.0,0.0,0.0,0.0,0.0,0.0,0.0,0.0,0.0,0.0,0.0,0.0,0.0,0.0,0.0,0.0,0.0,0.0,0.0,0.0,0.0,0.0,0.0,0.0,0.0,0.0,-1.733,-1.9126,-2.0466,-2.1136,-2.0894,-2.1211,-2.2496,-2.0032,-1.8368,0.0,0.0,0.0,0.0,0.0,0.0,0.0,0.0,0.0,0.0,0.0,0.0,0.0,0.0,0.0,0.0,0.0,0.0,0.0,0.0,0.0,0.0,0.0,0.0,0.0,0.0,0.0,0.0,0.0,0.0,0.0,0.0,0.0,0.0,0.0,0.0,0.0,0.0,0.0,0.0,0.0,0.0,0.0,0.0,0.0,0.0,0.0,0.0,0.0,0.0,0.0,0.0,0.0,0.0,0.0,0.0,0.0,0.0,0.0,0.0,0.0,0.0,0.0,0.0,0.0,0.0,0.0,0.0,0.0,0.0,0.0,0.0,0.0,0.0,0.0,0.0,0.0,0.0,0.0,0.0,0.0,0.0,0.0,0.0,0.0,0.0,0.0,0.0,0.0,0.0,0.0,0.0,0.0,0.0,0.0,0.0,0.0,0.0,0.0,0.0,0.0,0.0,0.0,-1.75,-1.9144,-2.0613,-2.1708,-2.1109,-2.1382,-2.3213,-2.0847,-1.9112,-1.8783,0.0,0.0,0.0,0.0,0.0,0.0,0.0,0.0,0.0,0.0,0.0,0.0,0.0,0.0,0.0,0.0,0.0,0.0,0.0,0.0,0.0,0.0,0.0,0.0,0.0,0.0,0.0,0.0,0.0,0.0,0.0,0.0,0.0,0.0,0.0,0.0,0.0,0.0,0.0,0.0,0.0,0.0,0.0,0.0,0.0,0.0,0.0,0.0,0.0,0.0,0.0,0.0,0.0,0.0,0.0,0.0,0.0,0.0,0.0,0.0,0.0,0.0,0.0,0.0,0.0,0.0,0.0,0.0,0.0,0.0,0.0,0.0,0.0,0.0,0.0,0.0,0.0,0.0,0.0,0.0,0.0,0.0,0.0,0.0,0.0,0.0,0.0,0.0,0.0,0.0,0.0,0.0,0.0,0.0,0.0,0.0,0.0,0.0,0.0,0.0,0.0,0.0,-1.7561,-1.9085,-2.0589,-2.1925,-2.1448,-2.1642,-2.3097,-2.1292,-1.9639,-1.863,0.0,0.0,0.0,0.0,0.0,0.0,0.0,0.0,0.0,0.0,0.0,0.0,0.0,0.0,0.0,0.0,0.0,0.0,0.0,0.0,0.0,0.0,0.0,0.0,0.0,0.0,0.0,0.0,0.0,0.0,0.0,0.0,0.0,0.0,0.0,0.0,0.0,0.0,0.0,0.0,0.0,0.0,0.0,0.0,0.0,0.0,0.0,0.0,0.0,0.0,0.0,0.0,0.0,0.0,0.0,0.0,0.0,0.0,0.0,0.0,0.0,0.0,0.0,0.0,0.0,0.0,0.0,0.0,0.0,0.0,0.0,0.0,0.0,0.0,0.0,0.0,0.0,0.0,0.0,0.0,0.0,0.0,0.0,0.0,0.0,0.0,0.0,0.0,0.0,0.0,0.0,0.0,0.0,0.0,0.0,0.0,0.0,0.0,0.0,0.0,0.0,0.0,-1.766,-1.9081,-2.0533,-2.1928,-2.1904,-2.199,-2.2461,-2.1469,-1.9996,-1.8112,0.0,0.0,0.0,0.0,0.0,0.0,0.0,0.0,0.0,0.0,0.0,0.0,0.0,0.0,0.0,0.0,0.0,0.0,0.0,0.0,0.0,0.0,0.0,0.0,0.0,0.0,0.0,0.0,0.0,0.0,0.0,0.0,0.0,0.0,0.0,0.0,0.0,0.0,0.0,0.0,0.0,0.0,0.0,0.0,0.0,0.0,0.0,0.0,0.0,0.0,0.0,0.0,0.0,0.0,0.0,0.0,0.0,0.0,0.0,0.0,-0.3934,-0.2736,0.0,0.0,0.0,0.0,0.0,0.0,0.0,0.0,0.0,0.0,0.0,0.0,0.0,0.0,0.0,0.0,0.0,0.0,0.0,0.0,0.0,0.0,0.0,0.0,0.0,0.0,0.0,0.0,0.0,0.0,0.0,0.0,0.0,0.0,0.0,0.0,0.0,0.0,0.0,0.0,-1.8313,-1.9735,-2.1204,-2.255,-2.2612,-2.2536,-2.2497,-2.1512,-2.0245,-1.8779,-1.668,0.0,0.0,0.0,0.0,0.0,0.0,0.0,0.0,0.0,0.0,0.0,0.0,0.0,0.0,0.0,0.0,0.0,0.0,0.0,0.0,0.0,0.0,0.0,0.0,0.0,0.0,0.0,0.0,0.0,0.0,0.0,0.0,0.0,0.0,0.0,0.0,0.0,0.0,0.0,0.0,0.0,0.0,0.0,0.0,0.0,0.0,0.0,0.0,0.0,0.0,0.0,0.0,0.0,0.0,0.0,0.0,0.0,0.0,0.0,-0.8585,-0.751,0.0,0.0,0.0,0.0,0.0,0.0,0.0,0.0,0.0,0.0,0.0,0.0,0.0,0.0,0.0,0.0,0.0,0.0,0.0,0.0,0.0,0.0,0.0,0.0,0.0,0.0,0.0,0.0,0.0,0.0,0.0,0.0,0.0,0.0,0.0,0.0,0.0,0.0,0.0,0.0,-1.8467,-1.9769,-2.1168,-2.2611,-2.2658,-2.2535,-2.2364,-2.1426,-2.0293,-1.8994,-1.7304,0.0,0.0,0.0,0.0,0.0,0.0,0.0,0.0,0.0,0.0,0.0,0.0,0.0,0.0,0.0,0.0,0.0,0.0,0.0,0.0,0.0,0.0,0.0,0.0,0.0,0.0,0.0,0.0,0.0,0.0,0.0,0.0,0.0,0.0,0.0,0.0,0.0,0.0,0.0,0.0,0.0,0.0,0.0,0.0,0.0,0.0,0.0,0.0,0.0,0.0,0.0,0.0,0.0,-1.4381,-1.4826,-1.565,-1.5659,-1.5568,-1.5289,-1.2862,-1.2558,-1.3574,-1.1167,0.0,0.0,0.0,0.0,0.0,0.0,0.0,0.0,0.0,0.0,0.0,0.0,0.0,0.0,0.0,0.0,0.0,0.0,0.0,0.0,0.0,0.0,-1.4074,-1.5722,-1.6718,-1.6608,-1.4183,0.0,0.0,0.0,0.0,0.0,0.0,0.0,0.0,0.0,0.0,0.0,-1.8544,-1.9744,-2.1098,-2.261,-2.2665,-2.2482,-2.2202,-2.1335,-2.0284,-1.9052,-1.7845,-1.657,0.0,0.0,0.0,0.0,0.0,0.0,0.0,0.0,0.0,0.0,0.0,0.0,0.0,0.0,0.0,0.0,0.0,0.0,0.0,0.0,0.0,0.0,0.0,0.0,0.0,0.0,0.0,0.0,0.0,0.0,0.0,0.0,-0.4849,-0.6215,0.0,0.0,0.0,0.0,0.0,0.0,0.0,0.0,0.0,0.0,0.0,0.0,0.0,-1.3524,-1.4429,-1.4801,-1.5789,-1.7342,-1.6604,-1.6667,-1.7462,-1.7457,-1.7022,-1.6259,-1.6551,0.0,-1.4703,-1.3429,0.0,0.0,0.0,0.0,0.0,0.0,0.0,0.0,0.0,0.0,0.0,0.0,0.0,0.0,0.0,0.0,0.0,0.0,0.0,0.0,0.0,0.0,-1.6415,-1.6836,-1.7509,-1.7955,-1.7546,-1.695,-1.6424,-1.6273,-1.6132,-1.5809,0.0,0.0,0.0,0.0,0.0,0.0,-1.9087,-2.0533,-2.1949,-2.3329,-2.3464,-2.3071,-2.2202,-2.1313,-2.0363,-1.9314,-1.8097,-1.7052,-1.6224,-1.566,0.0,0.0,0.0,0.0,0.0,0.0,0.0,0.0,0.0,0.0,0.0,0.0,0.0,0.0,0.0,0.0,0.0,0.0,0.0,0.0,0.0,0.0,0.0,0.0,0.0,0.0,0.0,0.0,0.0,-0.7362,-0.9487,-1.1069,-0.9314,-0.7588,0.0,0.0,0.0,0.0,0.0,0.0,0.0,0.0,0.0,-1.1988,-1.4664,-1.6042,-1.5935,-1.6475,-1.7103,-1.7785,-1.7369,-1.735,-1.7699,-1.7646,-1.7405,-1.7041,-1.7392,-1.7092,-1.6261,-1.5311,-1.4587,-1.4003,0.0,0.0,0.0,0.0,-1.1809,-1.2105,-1.2275,-1.3127,-1.3956,-1.2854,0.0,0.0,0.0,0.0,0.0,0.0,0.0,-1.415,-1.6222,-1.7172,-1.7721,-1.8232,-1.8643,-1.8902,-1.8797,-1.8522,-1.8247,-1.8084,-1.7871,-1.7468,-1.6667,-1.6646,0.0,0.0,0.0,-1.807,-1.9659,-2.068,-2.1631,-2.2602,-2.2617,-2.2247,-2.1341,-2.0378,-1.967,-1.9218,-1.8131,-1.728,-1.6751,-1.6083,-1.5051,0.0,0.0,0.0,0.0,0.0,0.0,0.0,0.0,0.0,0.0,0.0,0.0,0.0,0.0,0.0,0.0,0.0,0.0,0.0,0.0,0.0,0.0,0.0,0.0,0.0,0.0,0.0,0.0,-1.1496,-1.3253,-1.4762,-1.3368,-1.1726,0.0,0.0,0.0,0.0,0.0,0.0,-1.3631,-1.4851,-1.5286,-1.494,-1.6834,-1.7657,-1.7176,-1.7567,-1.7953,-1.8344,-1.8048,-1.8045,-1.8248,-1.8164,-1.8013,-1.7823,-1.7994,-1.7782,-1.7307,-1.6665,-1.6005,-1.5401,-1.5295,-1.508,-1.4883,-1.5294,-1.5637,-1.5947,-1.6461,-1.6878,-1.7136,-1.6686,-1.629,-1.587,-1.5,0.0,0.0,0.0,0.0,-1.632,-1.783,-1.8286,-1.8522,-1.9106,-1.9313,-1.9331,-1.92,-1.9235,-1.9235,-1.9087,-1.8896,-1.8521,-1.7665,-1.7591,0.0,-1.6962,-1.7532,-1.8604,-2.0228,-2.0731,-2.1212,-2.1919,-2.1674,-2.1231,-2.0628,-1.9688,-1.9104,-1.9092,-1.8131,-1.7392,-1.7068,-1.6454,-1.5452,-1.4039,0.0,0.0,0.0,0.0,0.0,0.0,0.0,0.0,0.0,0.0,0.0,0.0,0.0,0.0,0.0,0.0,0.0,0.0,0.0,0.0,0.0,0.0,0.0,0.0,0.0,0.0,0.0,0.0,0.0,-1.5356,-1.4321,0.0,0.0,0.0,0.0,-1.4686,-1.4853,-1.5683,-1.7531,-1.7691,-1.7727,-1.769,-1.7767,-1.8181,-1.8962,-1.8133,-1.8494,-2.0057,-1.9233,-1.9238,-1.9974,-1.9905,-1.9427,-1.8674,-1.9305,-1.8671,-1.7206,-1.7232,-1.718,-1.7063,-1.6996,-1.6897,-1.6872,-1.7698,-1.7982,-1.8057,-1.8852,-1.913,-1.9013,-1.8037,-1.7104,-1.6351,-1.6231,-1.6355,0.0,0.0,-1.7715,-1.7972,-1.8814,-1.8946,-1.8911,-1.9064,-1.9067,-1.9035,-1.9087,-1.9002,-1.8914,-1.8895,-1.8789,-1.8411,-1.7468,0.0,-1.7047,-1.7329,-1.7944,-1.9021,-2.082,-2.0923,-2.1105,-2.1902,-2.1138,-2.0547,-2.0512,-1.9688,-1.9167,-1.9087,-1.8206,-1.7549,-1.7216,-1.6722,-1.6059,-1.5153,-1.4422,0.0,0.0,0.0,0.0,0.0,0.0,0.0,0.0,0.0,0.0,0.0,0.0,0.0,0.0,0.0,0.0,0.0,0.0,0.0,0.0,0.0,0.0,0.0,0.0,0.0,0.0,0.0,0.0,-1.5329,-1.5323,0.0,-1.5618,-1.5659,-1.6036,-1.688,-1.6953,-1.724,-1.788,-1.8388,-1.8407,-1.7785,-1.8796,-1.9196,-1.8915,-1.9103,-1.945,-2.0001,-1.9654,-1.9609,-1.9835,-1.9775,-1.9576,-1.9289,-1.9529,-1.9266,-1.8681,-1.8713,-1.8087,-1.7176,-1.7578,-1.7707,-1.777,-1.8595,-1.8877,-1.8833,-1.9089,-1.9084,-1.8895,-1.8359,-1.8056,-1.7879,-1.7789,-1.7915,-1.8106,-1.8324,-1.85,-1.8639,-1.8789,-1.8878,-1.8895,-1.886,-1.8913,-1.8966,-1.8878,-1.8861,-1.8861,-1.8715,-1.8676,-1.8512,-1.8078,-1.8006,-1.7966,-1.7922,-1.8231,-1.8833,-1.9864,-1.9939,-1.9956,-2.0131,-1.9803,-1.9343,-1.8762,-1.8427,-1.8003,-1.7462,-1.7563,-1.7303,-1.66,-1.66,-1.6091,-1.4969,-1.4195,-1.2812,0.0,0.0,0.0,0.0,0.0,0.0,0.0,0.0,0.0,0.0,0.0,0.0,0.0,0.0,0.0,0.0,0.0,0.0,0.0,0.0,0.0,0.0,0.0,0.0,0.0,-1.5072,-1.5397,-1.5675,-1.6062,-1.6494,-1.6958,-1.7356,-1.7761,-1.8276,-1.8295,-1.8426,-1.8707,-1.9198,-1.9182,-1.8535,-1.9304,-1.9551,-1.9212,-1.9419,-1.9652,-1.99,-1.9818,-1.9757,-1.9732,-1.9596,-1.9541,-1.9569,-1.9522,-1.9479,-1.9427,-1.9368,-1.8728,-1.7808,-1.832,-1.8342,-1.8159,-1.8648,-1.8786,-1.8756,-1.8943,-1.8896,-1.8733,-1.86,-1.862,-1.8733,-1.8657,-1.8715,-1.8789,-1.8697,-1.877,-1.8825,-1.8696,-1.8715,-1.877,-1.8697,-1.877,-1.8825,-1.866,-1.8716,-1.8752,-1.8561,-1.8502,-1.8463,-1.8342,-1.8325,-1.8457,-1.8778,-1.8776,-1.903,-1.9912,-1.9602,-1.923,-1.9081,-1.9022,-1.8724,-1.8078,-1.7987,-1.7756,-1.7173,-1.7292,-1.7,-1.6084,-1.6182,-1.5666,-1.442,-1.3799,-1.2701,-1.1015,0.0,0.0,0.0,0.0,0.0,0.0,0.0,0.0,0.0,0.0,0.0,0.0,0.0,0.0,0.0,0.0,0.0,0.0,0.0,0.0,0.0,0.0,0.0,-1.4775,-1.5159,-1.5625,-1.6405,-1.6546,-1.6899,-1.7769,-1.7806,-1.8159,-1.9078,-1.9122,-1.9464,-2.0263,-2.0219,-2.0156,-2.0058,-1.9259,-1.9192,-1.996,-1.9079,-1.9062,-1.9884,-1.9732,-1.9694,-1.9763,-1.9476,-1.9419,-1.9481,-1.9341,-1.928,-1.9274,-1.9153,-1.9086,-1.9115,-1.9243,-1.8816,-1.8111,-1.799,-1.7896,-1.7922,-1.8574,-1.8752,-1.8697,-1.8769,-1.8788,-1.8788,-1.8715,-1.8733,-1.8769,-1.8638,-1.8582,-1.86,-1.8579,-1.8596,-1.8598,-1.8603,-1.8603,-1.8585,-1.8512,-1.8548,-1.8565,-1.8426,-1.8345,-1.8284,-1.8194,-1.7983,-1.8308,-1.9796,-1.9484,0.0,-2.1037,-1.9965,-1.9079,-1.9032,-1.8896,-1.8775,-1.8635,-1.861,-1.8526,-1.8374,-1.7508,-1.6595,-1.5727,-1.5515,-1.4868,-1.3661,-1.3401,-1.2641,-1.1323,0.0,0.0,0.0,0.0,0.0,0.0,0.0,0.0,0.0,0.0,0.0,0.0,0.0,0.0,0.0,0.0,0.0,0.0,0.0,0.0,0.0,-1.3566,-1.4634,-1.5062,-1.5765,-1.6313,-1.6471,-1.7562,-1.8416,-1.8638,-1.9227,-1.9677,-1.9884,-1.9904,-1.9992,-2.0219,-2.0162,-1.983,-1.9182,-1.9437,-1.9393,-1.8995,-1.9268,-1.9482,-1.9662,-1.9005,-1.8943,-1.9423,-1.8768,-1.8727,-1.9212,-1.9119,-1.9051,-1.8999,-1.8914,-1.8878,-1.8896,-1.8982,-1.8871,-1.8692,-1.8623,-1.8537,-1.8467,-1.8605,-1.86,-1.8563,-1.8581,-1.862,-1.8641,-1.8582,-1.86,-1.8617,-1.8428,-1.8348,-1.8307,-1.8307,-1.8348,-1.8408,-1.8487,-1.8544,-1.86,-1.8566,-1.8545,-1.8505,-1.8348,-1.8556,-1.863,-1.8276,-1.8065,-1.8075,-1.8444,-1.8302,-1.8477,-1.9376,-1.9034,-1.8951,-1.9454,-1.9349,-1.9244,-1.925,-1.8677,-1.8032,-1.7367,-1.7014,-1.6419,-1.544,-1.5806,-1.5469,-1.4202,-1.3263,-1.252,0.0,0.0,0.0,0.0,0.0,0.0,0.0,0.0,0.0,0.0,0.0,0.0,0.0,0.0,0.0,0.0,0.0,0.0,0.0,0.0,0.0,0.0,-1.4384,-1.5074,-1.5168,-1.5974,-1.6661,-1.6976,-1.8159,-1.9085,-1.9435,-1.9922,-2.019,-2.0115,-2.0115,-2.0125,-2.0117,-2.0049,-1.9629,-1.8773,-1.9114,-1.9066,-1.8557,-1.8927,-1.9247,-1.9495,-1.8966,-1.8897,-1.9227,-1.8695,-1.8632,-1.8964,-1.8896,-1.8843,-1.8771,-1.8696,-1.8676,-1.8695,0.0,0.0,0.0,0.0,-1.843,-1.8601,-1.8561,-1.8733,-1.8904,-1.859,-1.8524,-1.8545,-1.8485,-1.8502,-1.8522,-1.8345,-1.8263,-1.8312,-1.8581,-1.8668,-1.8689,-1.877,-1.8791,-1.8704,-1.8339,-1.8489,-1.8612,-1.8432,-1.8826,0.0,-1.8713,-1.8622,-1.8658,-1.8876,-1.8635,-1.8651,-1.924,-1.9049,-1.8989,-1.9372,-1.9334,-1.9365,-1.965,-1.8889,0.0,0.0,0.0,-1.6367,-1.5154,-1.5178,0.0,0.0,0.0,-1.3305,-1.3009,-1.3214,0.0,0.0,-1.1881,-1.158,0.0,0.0,0.0,0.0,0.0,0.0,0.0,0.0,0.0,0.0,0.0,0.0,0.0,0.0,0.0,0.0,-1.4829,-1.5189,-1.5193,-1.6008,-1.6877,-1.7598,-1.8485,-1.9295,-2.0002,-2.0078,-2.0049,-1.9991,-1.9991,-2.0,-1.9988,-1.9922,0.0,0.0,0.0,-1.8565,-1.8478,-1.8421,-1.8735,-1.9346,-1.9204,-1.9127,-1.9101,-1.884,-1.8735,-1.8735,-1.8679,-1.8604,-1.8547,-1.8505,-1.8445,-1.8465,-1.8524,-1.8177,-1.7577,-1.7522,-1.7904,-1.848,-1.8483,0.0,0.0,-1.8693,-1.8485,-1.8465,-1.8406,-1.8426,-1.8443,-1.8402,-1.8374,-1.8504,-1.9178,-1.9298,-1.9269,-1.9269,-1.9184,-1.8875,-1.8183,-1.8488,-1.8839,-1.865,-1.9177,-1.9602,-1.9409,-1.9372,-1.9563,-2.0088,-1.9662,-1.9459,-1.9935,-1.9589,-1.9276,-1.9212,-1.9238,0.0,-1.9954,-1.9229,-1.8713,-1.8593,-1.7669,-1.65,-1.5039,-1.4332,-1.3791,-1.3451,-1.4262,-1.4527,-1.4241,-1.5037,-1.5403,-1.5254,-1.3799,-1.3572,0.0,0.0,0.0,0.0,0.0,0.0,0.0,0.0,0.0,0.0,0.0,0.0,0.0,0.0,0.0,-1.4798,-1.5002,-1.5121,-1.5127,-1.6371,-1.739,-1.7593,-1.8906,-1.9829,-1.9939,-1.9936,-1.9936,-1.9926,-1.9966,-1.9982,-1.9919,-1.9854,-1.9423,-1.858,-1.9031,-1.9003,-1.8339,-1.8849,-1.9099,-1.9063,-1.8415,0.0,-1.8607,-1.7913,-1.791,-1.8373,-1.833,-1.831,-1.8351,-1.8281,-1.8236,-1.818,-1.8307,-1.8263,-1.8143,-1.8141,-1.8226,-1.8348,-1.8406,-1.8473,-1.854,-1.8458,-1.8368,-1.8348,-1.831,-1.8246,0.0,-1.8722,-1.8754,-1.8773,-1.9454,-1.9612,-1.9612,-1.9681,-1.9301,-1.9046,-1.9395,-1.9142,-1.8917,-1.9316,-1.9755,-2.003,-1.9883,-1.9502,-1.9276,-1.9394,-1.9252,-1.9357,-1.9947,-1.9917,-2.0031,-2.0464,-2.0335,-2.0316,-2.0539,-1.9603,-1.9023,-1.9072,-1.8074,-1.7081,-1.6216,-1.5871,-1.5459,-1.4906,-1.5022,-1.5065,-1.5005,-1.5061,-1.5149,-1.5208,-1.4993,-1.4964,0.0,0.0,0.0,0.0,0.0,0.0,0.0,0.0,0.0,0.0,0.0,-1.2119,-1.3717,0.0,-1.4925,-1.4996,-1.5026,-1.5052,-1.5052,-1.6116,-1.706,-1.7496,-1.8963,-1.9911,-1.9804,-1.9816,-1.9654,-1.9181,-1.9623,-1.9691,-1.9218,-1.952,-1.9332,-1.8472,-1.9059,-1.8992,-1.8167,-1.8815,-1.9069,-1.8877,-1.8466,-1.8306,-1.8375,-1.7949,-1.7905,-1.8184,-1.81,-1.8121,-1.8184,-1.8074,-1.8027,-1.8009,-1.8035,-1.81,-1.8142,-1.8184,-1.8426,-1.8724,-1.8402,-1.8464,-1.8646,-1.8381,-1.8222,-1.8142,-1.8222,-1.8155,-1.8112,-1.8382,-1.8616,-1.8867,-1.9161,-1.9813,-2.0264,-1.9853,-1.9796,-1.977,-1.9674,-1.9638,-1.9646,-1.9825,-2.0289,-2.059,-2.0369,-2.0052,-1.9845,-1.9845,-1.9829,-1.9893,-2.0177,-2.0192,-2.0219,-2.0465,-2.0048,-1.99,-2.0323,-1.947,-1.8755,-1.8407,-1.7847,-1.7043,-1.5991,-1.6162,-1.5983,-1.5253,-1.5222,-1.5178,-1.5102,-1.4966,-1.4966,-1.5102,-1.5102,-1.5163,0.0,0.0,0.0,0.0,0.0,0.0,0.0,-1.0213,-1.0202,-1.1734,-1.2297,-1.2986,-1.4621,-1.4955,-1.5011,-1.5015,-1.5,-1.4976,-1.4971,-1.5719,-1.6487,-1.7113,-1.862,-1.9637,-1.9682,-1.9713,-1.9407,-1.867,-1.9313,-1.9432,-1.874,-1.9247,-1.9263,-1.8591,-1.9022,-1.8898,-1.8194,-1.8708,-1.8914,-1.8753,-1.866,-1.8489,-1.8208,-1.8146,-1.8078,-1.7988,-1.7905,-1.7922,-1.7988,-1.7905,-1.7861,-1.7839,-1.7772,-1.7811,-1.7878,-1.7988,-1.8386,-1.8813,-1.8293,-1.8403,-1.8751,-1.8408,-1.8146,-1.7995,-1.8237,-1.8124,-1.7934,-1.8003,-1.8525,-1.9034,-1.9119,-2.0114,-2.0922,-2.0185,-2.0329,-2.0442,-1.989,-2.0065,-2.0305,-2.0252,-2.0671,-2.094,-2.0693,-2.0527,-2.0426,-2.046,-2.046,-2.0441,-2.032,-2.0285,-2.02,-2.008,-1.947,-1.931,-1.9854,-1.9246,-1.8569,-1.7967,-1.7787,-1.7148,-1.5782,-1.6218,-1.605,-1.5131,-1.5117,-1.5041,-1.4907,-1.478,-1.478,-1.489,-1.4763,-1.4902,-0.8436,-0.915,-1.0549,-1.1487,-1.1809,-1.1927,0.0,-1.1925,-1.2137,-1.3095,-1.3413,-1.3838,-1.4813,-1.4995,-1.5022,-1.5078,-1.4987,-1.4904,-1.4911,-1.5565,-1.6036,-1.6075,-1.7587,-1.8921,-1.9553,-1.9509,-1.9415,-1.9369,-1.9476,-1.9476,-1.9383,-1.9415,-1.9361,-1.9201,-1.9143,-1.9012,-1.8803,-1.8878,-1.8788,-1.8524,-1.8408,-1.8208,-1.7949,-1.78,-1.771,-1.7658,-1.7687,-1.7704,-1.7658,-1.7687,-1.7704,-1.7635,-1.7549,-1.7502,-1.7479,-1.7681,-1.7754,-1.7799,-1.7766,-1.7754,-1.7876,-1.8518,-1.8289,-1.7867,-1.8512,-1.8219,-1.7786,-1.836,-1.8949,-1.9553,-2.0167,-2.0911,-2.1472,-2.1266,-2.0779,-2.0459,-2.0907,-2.0539,-2.0252,-2.0735,-2.078,-2.0677,-2.0494,-2.0273,-2.0185,-2.0289,-2.0304,-2.027,-2.0076,-2.0041,-1.999,-1.9833,-1.9645,-1.9536,-1.9487,-1.9391,-1.928,-1.9119,-1.8994,-1.8317,-1.6973,-1.6818,-1.6156,-1.4853,-1.4808,-1.47,-1.4564,-1.4533,-1.4515,-1.4479,-1.4447,-1.4714,-1.0285,-1.083,-1.1618,-1.2676,-1.2678,-1.2539,-1.3017,-1.2766,-1.2659,-1.3501,-1.3709,-1.3989,-1.4743,-1.493,-1.4919,-1.4875,-1.485,-1.4832,-1.4794,-1.5075,-1.5444,-1.5788,-1.6799,-1.7784,-1.8633,-1.8632,-1.8603,-1.8621,-1.9125,-1.9228,-1.8701,-1.9066,-1.9246,-1.9182,-1.9034,-1.8913,-1.8771,-1.8715,-1.8563,-1.8388,-1.8246,-1.8035,-1.7794,-1.7641,-1.7542,-1.7498,-1.7566,-1.7549,-1.7479,-1.7472,-1.7448,-1.7425,-1.7345,-1.7314,-1.7314,-1.7472,-1.7786,-1.8128,-1.8152,-1.8386,-1.8766,-1.9142,-1.9026,-1.8817,-1.9159,-1.865,-1.8012,-1.8299,-1.8746,-1.9155,-1.9098,-2.0264,-2.1274,-2.076,-2.0744,-2.086,-2.0942,-2.0735,-2.0543,-2.0747,-2.0744,-2.061,-2.0273,-2.015,-2.0045,-1.9919,-1.9955,-1.994,-1.9848,-1.9777,-1.972,-1.9596,-1.9487,-1.9413,-1.9339,-1.9242,-1.9008,-1.8579,-1.8772,-1.8143,-1.6422,-1.659,-1.6126,-1.476,-1.462,-1.4511,-1.4433,-1.4369,-1.4351,-1.4332,-1.4208,-1.4337,-1.2032,-1.2296,-1.2462,-1.3624,-1.3547,-1.3347,-1.3982,-1.3685,-1.3424,-1.4007,-1.4142,-1.4292,-1.4719,-1.485,-1.484,-1.4747,-1.4727,-1.4736,-1.4698,-1.4687,-1.4847,-1.5276,-1.5651,-1.6338,-1.7512,-1.8018,-1.8255,-1.8304,-1.8935,-1.9042,-1.8407,-1.884,-1.9084,-1.9016,-1.8896,-1.8752,-1.8622,-1.8487,-1.8406,-1.8266,-1.8095,-1.79,-1.7664,-1.7502,-1.7394,-1.7346,-1.7417,-1.7401,-1.7305,-1.7273,-1.7265,-1.7216,-1.7174,-1.7124,-1.7124,-1.7265,-1.7765,-1.8358,-1.8177,-1.8693,-1.9378,-1.9235,-1.9143,-1.9159,-1.9197,-1.8608,-1.7922,-1.788,-1.8377,-1.8844,-1.8446,-1.9763,-2.1069,-2.0446,-2.0655,-2.0958,-2.0761,-2.0662,-2.0628,-2.0525,-2.0509,-2.0407,-2.0045,-1.9808,-1.9657,-1.9508,-1.9396,-1.9409,-1.9566,-1.9487,-1.9391,-1.9265,-1.9176,-1.9139,-1.9139,-1.9017,-1.8717,-1.8229,-1.8465,-1.7842,-1.6045,-1.6292,-1.5889,-1.457,-1.4383,-1.4287,-1.4287,-1.417,-1.4138,-1.417,-1.398,-1.3934,-1.3445,-1.3593,-1.3403,-1.4416,-1.4802,-1.4927,-1.4968,-1.4927,-1.4931,-1.4954,-1.5018,-1.5011,-1.482,-1.4793,-1.4794,-1.4794,-1.4685,-1.464,-1.4683,-1.4533,-1.435,-1.4185,-1.3941,-1.45,-1.6294,-1.791,-1.8929,-1.9063,-1.9084,-1.9104,-1.9067,-1.8965,-1.8878,-1.8806,-1.8678,-1.8545,-1.8406,-1.8348,-1.8284,-1.8211,-1.7939,-1.7743,-1.7589,-1.741,-1.7273,-1.7199,-1.7281,-1.7232,-1.7108,-1.7174,-1.714,-1.6998,-1.7014,-1.6972,-1.6921,-1.6998,-1.7468,-1.8032,-1.7367,-1.8048,-1.9086,-1.8297,-1.8125,-1.8231,-1.8162,-1.7717,-1.719,-1.7066,-1.7974,-1.8997,-1.8895,-1.9951,-2.0975,-2.0828,-2.0697,-2.0597,-2.0444,-2.0357,-2.027,-2.0076,-2.008,-2.001,-1.9683,-1.9131,-1.8837,-1.9089,-1.8615,-1.8527,-1.9214,-1.913,-1.8979,-1.8822,-1.8822,-1.8822,-1.8822,-1.8736,-1.8711,-1.8683,-1.8386,-1.7675,-1.6451,-1.6087,-1.5402,-1.423,-1.4065,-1.4032,-1.4032,-1.3927,-1.3888,-1.3821,-1.3695,-1.3615,-1.3535,-1.3885,-1.3902,-1.4544,-1.4813,-1.4955,-1.4998,-1.4995,-1.4992,-1.5003,-1.5019,-1.4995,-1.4832,-1.4804,-1.4738,-1.4563,-1.4571,-1.4578,-1.4511,-1.4892,-1.5132,-1.4972,-1.5711,-1.6446,-1.708,-1.6959,-1.7364,-1.8609,-1.8698,-1.868,-1.8643,-1.8679,-1.8679,-1.8659,-1.8489,-1.8351,-1.8266,-1.8184,-1.8117,-1.8065,-1.7749,-1.7496,-1.733,-1.7174,-1.7074,-1.7065,-1.7032,-1.7291,-1.77,-1.769,-1.7882,-1.8187,-1.8143,-1.7844,-1.7484,-1.7915,-1.8245,-1.8422,-1.7872,-1.8313,-1.9151,-1.9273,-1.9383,-1.9551,-1.9961,-1.9594,-1.8959,-1.8781,-1.8994,-1.9249,-1.9123,-1.976,-2.0361,-2.0289,-2.022,-2.015,-1.996,-1.9854,-1.9747,-1.9675,-1.9654,-1.9545,-1.9302,-1.9112,-1.8891,-1.8745,-1.865,-1.8705,-1.8959,-1.8912,-1.8836,-1.8784,-1.876,-1.8697,-1.862,-1.8489,-1.8372,-1.824,-1.8121,-1.7646,-1.6688,-1.6458,-1.5984,-1.514,-1.452,-1.4254,-1.4337,-1.3719,-1.3425,-1.3412,-1.3323,-1.3185,-1.3581,-1.4006,-1.4241,-1.4587,-1.4747,-1.4859,-1.493,-1.4955,-1.4952,-1.496,-1.4909,-1.4812,-1.4668,-1.465,-1.455,-1.4338,-1.4451,-1.4526,-1.438,-1.4992,-1.5406,-1.527,-1.6217,-1.7011,-1.7328,-1.6612,-1.6782,-1.842,-1.8225,-1.8153,-1.8469,-1.8506,-1.8526,-1.8489,-1.8348,-1.8222,-1.8121,-1.8074,-1.7988,-1.7878,-1.7572,-1.7353,-1.7191,-1.6991,-1.6889,-1.6905,-1.7098,-1.7422,-1.782,-1.8079,-1.8358,-1.868,-1.8651,-1.8181,-1.7663,-1.8354,-1.8448,-1.8255,-1.8238,-1.8882,-1.9681,-1.9556,-1.9555,-1.9617,-1.9749,-1.9305,-1.8693,-1.8763,-1.8874,-1.8994,-1.9028,-1.9508,-1.994,-1.9812,-1.9741,-1.969,-1.9508,-1.942,-1.9347,-1.9325,-1.9302,-1.9228,-1.9003,-1.8851,-1.8612,-1.8117,-1.8271,-1.8489,-1.8567,-1.8553,-1.8514,-1.8567,-1.8489,-1.8425,-1.84,-1.8254,-1.8082,-1.7962,-1.7841,-1.7424,-1.6638,-1.6494,-1.6062,-1.5411,-1.4775,-1.4523,-1.4622,-1.3949,-1.3554,-1.339,-1.3261,-1.3118,-1.3613,-1.3997,-1.4422,-1.4552,-1.4656,-1.4727,-1.4832,-1.4868,-1.4859,-1.483,-1.4682,-1.4505,-1.4379,-1.4301,-1.4217,-1.41,-1.4308,-1.4444,-1.4308,-1.4846,-1.5211,-1.5079,-1.5575,-1.6262,-1.7077,-1.6877,-1.723,-1.8487,-1.7762,-1.7638,-1.8524,-1.8463,-1.8365,-1.829,-1.8218,-1.813,-1.7983,-1.7922,-1.7816,-1.7687,-1.7415,-1.7248,-1.7167,-1.6825,-1.6712,-1.6765,-1.7397,-1.7644,-1.7666,-1.8355,-1.8624,-1.8594,-1.8563,-1.8112,-1.7521,-1.8358,-1.8141,-1.7566,-1.8449,-1.9594,-2.0446,-1.9044,-1.8635,-1.8553,-1.7788,-1.7117,-1.6745,-1.7231,-1.7837,-1.8358,-1.8733,-1.9261,-1.9617,-1.9413,-1.9273,-1.9184,-1.9101,-1.9064,-1.9026,-1.8993,-1.9003,-1.8965,-1.8711,-1.84,-1.7956,-1.7312,-1.762,-1.7963,-1.8163,-1.8055,-1.8042,-1.8149,-1.8055,-1.8042,-1.8149,-1.8003,-1.7882,-1.7842,-1.7556,-1.7059,-1.6335,-1.6123,-1.5707,-1.5069,-1.4888,-1.4798,-1.481,-1.4565,-1.4205,-1.3704,-1.3505,-1.343,-1.3701,-1.4069,-1.4307,-1.4478,-1.4574,-1.4577,-1.4423,-1.4382,-1.4299,-1.4053,-1.3859,-1.3703,-1.3715,-1.3722,-1.374,-1.3849,-1.4069,-1.4183,-1.4162,-1.5307,-1.6094,-1.592,-1.7027,-1.786,-1.7965,-1.7247,-1.7189,-1.8225,-1.8004,-1.7868,-1.8057,-1.8239,-1.8298,-1.8236,-1.8108,-1.7983,-1.7856,-1.7726,-1.7612,-1.7479,-1.7248,-1.7076,-1.6892,-1.6659,-1.6811,-1.723,-1.7361,-1.8016,-1.8983,-1.9044,-1.9366,-1.9829,-1.9713,-1.8925,-1.7975,-1.9198,-1.8877,-1.8005,-1.9247,-1.9397,-1.9014,-1.8594,-1.85,-1.8498,-1.825,-1.8422,-1.8641,-1.8588,-1.8925,-1.9296,-1.9191,-1.9207,-1.9213,-1.8988,-1.8936,-1.886,-1.8697,-1.8567,-1.8514,-1.8475,-1.8358,-1.8279,-1.8307,-1.8043,-1.7787,-1.7598,-1.7599,-1.7693,-1.7963,-1.7963,-1.7909,-1.7841,-1.7909,-1.7788,-1.7488,-1.7488,-1.7365,-1.7018,-1.6947,-1.6756,-1.6448,-1.6351,-1.6203,-1.6065,-1.5311,-1.4979,-1.5114,-1.4389,-1.3966,-1.3848,-1.3769,-1.3638,-1.356,-1.3521,-1.3263,-1.376,-1.3666,-1.3422,-1.3335,-1.3416,-1.3455,-1.3324,-1.3238,-1.3204,-1.3271,-1.3384,-1.3496,-1.3636,-1.3961,-1.4175,-1.4096,-1.5431,-1.6351,-1.6219,-1.7517,-1.8363,-1.8236,-1.7633,-1.7463,-1.8014,-1.7654,-1.762,-1.8009,-1.813,-1.8151,-1.807,-1.7961,-1.7833,-1.7704,-1.7635,-1.7566,-1.7432,-1.7248,-1.7027,-1.6841,-1.6581,-1.6612,-1.6918,-1.7126,-1.7698,-1.8501,-1.8637,-1.9142,-1.9774,-1.9706,-1.9113,-1.8498,-1.9576,-1.9269,-1.8447,-1.9521,-1.9573,-1.9162,-1.9113,-1.8963,-1.8733,-1.8605,-1.8682,-1.8788,-1.8763,-1.9006,-1.926,-1.9288,-1.9228,-1.9139,-1.8927,-1.8774,-1.8644,-1.8595,-1.8425,-1.8254,-1.8254,-1.8042,-1.7882,-1.7975,-1.7666,-1.7378,-1.7378,-1.7282,-1.7282,-1.7419,-1.7543,-1.7529,-1.7421,-1.7447,-1.7378,-1.7073,-1.7157,-1.7031,-1.671,-1.6637,-1.6552,-1.6392,-1.6318,-1.6231,-1.61,-1.5579,-1.5336,-1.5325,-1.4794,-1.4409,-1.4175,-1.402,-1.3937,-1.3117,-1.2618,-1.1947,-1.2721,-1.2455,-1.1991,-1.2078,-1.2285,-1.2505,-1.2619,-1.2677,-1.2747,-1.2865,-1.3092,-1.3277,-1.3376,-1.3803,-1.4118,-1.4046,-1.5294,-1.6218,-1.6185,-1.7422,-1.8236,-1.8113,-1.7922,-1.7833,-1.7944,-1.7241,-1.7216,-1.8095,-1.8044,-1.7944,-1.7883,-1.7772,-1.7681,-1.7566,-1.7566,-1.7519,-1.7455,-1.7264,-1.7052,-1.685,-1.6543,-1.6437,-1.6567,-1.6996,-1.7318,-1.7516,-1.8098,-1.8631,-1.9122,-1.9165,-1.9015,-1.8861,-1.9642,-1.9391,-1.8772,-1.9415,-1.9777,-1.9919,-1.9864,-1.9493,-1.9025,-1.8733,-1.8386,-1.8163,-1.8435,-1.8624,-1.8867,-1.9192,-1.9228,-1.9153,-1.8993,-1.8673,-1.8478,-1.8595,-1.8361,-1.8123,-1.8163,-1.7895,-1.7639,-1.7639,-1.7282,-1.696,-1.696,-1.6876,-1.6833,-1.6833,-1.7031,-1.7102,-1.6964,-1.6947,-1.6918,-1.6748,-1.6791,-1.6693,-1.6552,-1.6423,-1.6262,-1.6113,-1.6057,-1.5937,-1.5671,-1.5626,-1.557,-1.5468,-1.53,-1.4979,-1.4529,-1.4378,-1.4247,-1.1783,-1.1853,-1.1701,-1.196,-1.1927,-1.1779,-1.1577,-1.1699,-1.1854,-1.1811,-1.1772,-1.1858,-1.2287,-1.2431,-1.2559,-1.2811,-1.3092,-1.341,-1.3663,-1.4968,-1.5921,-1.601,-1.7381,-1.8236,-1.8113,-1.7922,-1.7917,-1.813,-1.7715,-1.7586,-1.7856,-1.7833,-1.7794,-1.7749,-1.7549,-1.7455,-1.7432,-1.737,-1.7289,-1.7166,-1.7018,-1.6825,-1.6565,-1.6394,-1.6864,-1.7792,-1.7697,-1.814,-1.8897,-1.9318,-1.9334,-1.9134,-1.9511,-1.9286,-1.8792,-1.943,-1.923,-1.8698,-1.9265,-1.9538,-1.9594,-1.9096,-1.8993,-1.8897,-1.8208,-1.8245,-1.8553,-1.852,-1.8844,-1.9156,-1.9064,-1.8941,-1.875,-1.8634,-1.8439,-1.8228,-1.8121,-1.7949,-1.7801,-1.7922,-1.757,-1.7282,-1.7282,-1.7002,-1.6718,-1.6607,-1.6565,-1.6565,-1.6479,-1.6748,-1.6876,-1.6595,-1.6705,-1.6547,-1.6013,-1.6088,-1.6044,-1.5724,-1.5558,-1.548,-1.5447,-1.5345,-1.53,-1.5357,-1.5153,-1.5096,-1.5153,-1.4994,-1.4823,-1.4733,-1.4699,-1.4642,-1.1318,-1.0998,-1.0423,-1.0939,-1.0781,-1.0479,-1.0428,-1.07,-1.0993,-1.1059,-1.1292,-1.1601,-1.1912,-1.219,-1.2384,-1.2514,-1.2862,-1.3328,-1.3989,-1.5071,-1.5949,-1.6308,-1.7232,-1.7805,-1.7777,-1.7526,-1.7566,-1.7961,-1.7681,-1.7612,-1.7856,-1.7681,-1.7566,-1.7479,-1.7417,-1.7345,-1.7345,-1.7642,-1.7541,-1.7083,-1.7267,-1.7241,-1.6968,-1.68,-1.715,-1.7955,-1.7812,-1.7992,-1.8422,-1.8587,-1.8721,-1.882,-1.9061,-1.9105,-1.9043,-1.9383,-1.9221,-1.8892,-1.9148,-1.9339,-1.9442,-1.9045,-1.912,-1.9271,-1.8733,-1.8832,-1.9049,-1.8855,-1.9053,-1.9265,-1.9069,-1.8917,-1.8803,-1.8634,-1.84,-1.8109,-1.7909,-1.7747,-1.7679,-1.7543,-1.7295,-1.6989,-1.6863,-1.662,-1.6417,-1.6362,-1.6362,-1.6318,-1.6318,-1.6392,-1.6392,-1.625,-1.6362,-1.6287,-1.5836,-1.5881,-1.5824,-1.5614,-1.5402,-1.5267,-1.521,-1.5062,-1.4971,-1.4949,-1.48,-1.4743,-1.4743,-1.4616,-1.4581,-1.4581,-1.4523,-1.4477,-1.0813,-1.0122,-0.9244,-0.9928,-0.9655,-0.9275,-0.9408,-0.9807,-1.0244,-1.0527,-1.1007,-1.146,-1.1762,-1.2056,-1.2285,-1.2254,-1.2603,-1.3218,-1.4207,-1.5003,-1.5801,-1.6649,-1.7099,-1.7365,-1.7549,-1.7264,-1.724,-1.7704,-1.7519,-1.7479,-1.7772,-1.7542,-1.737,-1.7297,-1.7306,-1.7257,-1.7257,-1.7694,-1.7617,-1.6981,-1.7486,-1.7569,-1.7295,-1.7242,-1.7499,-1.7939,-1.7873,-1.784,-1.7906,-1.7937,-1.817,-1.853,-1.8658,-1.8935,-1.9265,-1.9317,-1.9191,-1.9064,-1.9064,-1.9153,-1.9265,-1.9101,-1.9288,-1.9581,-1.9325,-1.9265,-1.9265,-1.9116,-1.9153,-1.9191,-1.9017,-1.8903,-1.8788,-1.8556,-1.8268,-1.7949,-1.7679,-1.7597,-1.7474,-1.7199,-1.6947,-1.6693,-1.6436,-1.6231,-1.6069,-1.6057,-1.6154,-1.6183,-1.6183,-1.6223,-1.6206,-1.6206,-1.6146,-1.5981,-1.5748,-1.5703,-1.5659,-1.5582,-1.5357,-1.5177,-1.5085,-1.4879,-1.4741,-1.4678,-1.4543,-1.443,-1.4373,-1.428,-1.4291,-1.4291,-1.4186,-1.4082,-0.9551,-0.9317,-0.9039,-0.9119,-0.9084,-0.9066,-0.9189,-0.9451,-0.9848,-1.047,-1.0792,-1.1118,-1.1696,-1.1891,-1.1912,-1.1775,-1.1961,-1.2494,-1.3697,-1.4213,-1.5085,-1.6761,-1.7019,-1.7231,-1.7726,-1.7408,-1.7288,-1.7509,-1.7337,-1.7288,-1.7432,-1.7427,-1.7371,-1.7306,-1.7248,-1.7174,-1.7108,-1.7113,-1.6927,-1.6554,-1.7239,-1.7324,-1.6955,-1.7482,-1.7999,-1.8426,-1.8317,-1.8337,-1.8554,-1.8905,-1.8847,-1.854,-1.8972,-1.914,-1.9101,-1.9055,-1.9031,-1.8979,-1.8874,-1.8927,-1.9017,-1.8874,-1.9064,-1.9302,-1.9139,-1.9078,-1.9031,-1.9031,-1.9031,-1.8979,-1.8836,-1.8592,-1.8279,-1.7868,-1.7666,-1.7529,-1.7446,-1.7225,-1.7044,-1.696,-1.6637,-1.6281,-1.6076,-1.5881,-1.5703,-1.5603,-1.5914,-1.6174,-1.6174,-1.6633,-1.6928,-1.6928,-1.623,-1.5715,-1.5558,-1.5435,-1.53,-1.5153,-1.4949,-1.4931,-1.5066,-1.4555,-1.4475,-1.4871,-1.4318,-1.4104,-1.4222,-1.3952,-1.3868,-1.3858,-1.3858,-1.3716,-0.877,-0.8866,-0.8974,-0.8903,-0.8875,-0.8895,-0.8956,-0.926,-0.9662,-1.009,-1.0525,-1.0968,-1.1362,-1.1549,-1.1681,-1.1805,-1.1997,-1.2603,-1.3961,-1.4428,-1.5126,-1.6537,-1.6725,-1.691,-1.7288,-1.7142,-1.7126,-1.7432,-1.7361,-1.7288,-1.7224,-1.7216,-1.7174,-1.7057,-1.74,-1.7348,-1.6857,-1.7559,-1.7584,-1.6993,-1.7515,-1.7789,-1.7876,-1.8026,-1.8341,-1.8812,-1.8753,-1.8484,-1.818,-1.8691,-1.8539,-1.8007,-1.8541,-1.8798,-1.8865,-1.875,-1.8788,-1.8889,-1.8774,-1.8774,-1.8803,-1.8659,-1.8644,-1.8745,-1.886,-1.8889,-1.8841,-1.8841,-1.875,-1.8673,-1.8503,-1.8121,-1.776,-1.7556,-1.7337,-1.7199,-1.717,-1.6918,-1.665,-1.6491,-1.649,-1.6384,-1.6157,-1.6338,-1.6504,-1.6516,-1.6633,-1.6714,-1.6775,-1.6854,-1.6884,-1.6884,-1.6656,-1.6456,-1.6397,-1.6278,-1.6054,-1.573,-1.5674,-1.5557,-1.5348,-1.4801,-1.4725,-1.5207,-1.4461,-1.4219,-1.4589,-1.408,-1.3848,-1.3848,-1.3417,-1.3228,-0.8323,-0.8603,-0.8909,-0.8833,-0.8759,-0.8728,-0.8785,-0.905,-0.9404,-0.9755,-1.0223,-1.0632,-1.0991,-1.1187,-1.1423,-1.1725,-1.1918,-1.2568,-1.4154,-1.4482,-1.5051,-1.6354,-1.6438,-1.6538,-1.6825,-1.6773,-1.685,-1.7101,-1.7126,-1.7052,-1.685,-1.6873,-1.6905,-1.6905,-1.7274,-1.7209,-1.6607,-1.7418,-1.7588,-1.709,-1.7542,-1.7959,-1.8355,-1.8418,-1.852,-1.8668,-1.8793,-1.8332,-1.7525,-1.8257,-1.8138,-1.7581,-1.8187,-1.8478,-1.8556,-1.8439,-1.8503,-1.8606,-1.8556,-1.8556,-1.8556,-1.8439,-1.8333,-1.8266,-1.85,-1.8528,-1.8503,-1.8556,-1.8478,-1.8307,-1.8043,-1.7706,-1.7461,-1.7308,-1.7099,-1.6927,-1.7038,-1.6903,-1.666,-1.6508,-1.6664,-1.667,-1.6432,-1.6688,-1.6921,-1.6982,-1.7062,-1.7155,-1.7267,-1.7194,-1.7134,-1.7134,-1.7173,-1.7109,-1.6895,-1.6734,-1.6486,-1.613,-1.6142,-1.6031,-1.5731,-1.5228,-1.5052,-1.533,-1.4615,-1.4286,-1.4521,-1.41,-1.3908,-1.3898,-1.3379,-1.3154,-0.818,-0.8491,-0.88,-0.8789,-0.8638,-0.8555,-0.8758,-0.8813,-0.8973,-0.9576,-0.9803,-1.0072,-1.0608,-1.0825,-1.1038,-1.1445,-1.1557,-1.2246,-1.4047,-1.4129,-1.4627,-1.6302,-1.62,-1.6136,-1.6474,-1.6436,-1.6436,-1.6501,-1.6501,-1.6421,-1.6222,-1.6344,-1.6559,-1.6879,-1.6779,-1.6607,-1.6425,-1.6344,-1.6432,-1.6619,-1.7161,-1.7622,-1.8029,-1.8573,-1.8478,-1.7934,-1.8313,-1.7801,-1.6782,-1.7807,-1.7868,-1.7342,-1.7954,-1.8202,-1.8202,-1.8202,-1.8202,-1.8202,-1.8202,-1.8202,-1.8202,-1.8202,-1.8095,-1.7988,-1.7988,-1.7988,-1.8042,-1.8149,-1.8095,-1.7922,-1.7515,-1.7404,-1.7321,-1.7086,-1.6846,-1.6827,-1.7225,-1.7227,-1.7171,-1.717,-1.7179,-1.713,-1.6834,-1.6685,-1.6623,-1.6623,-1.7048,-1.7422,-1.7422,-1.7699,-1.7886,-1.7886,-1.7788,-1.7404,-1.6665,-1.6373,-1.6171,-1.6221,-1.6069,-1.6074,-1.6299,-1.569,-1.533,-1.5226,-1.4714,-1.425,-1.3811,-1.3863,-1.3907,-1.3907,-1.3907,-1.3623,-0.7267,-0.7608,-0.7941,-0.8623,-0.8471,-0.8215,-0.8406,-0.8574,-0.8717,-0.892,-0.9304,-0.9738,-1.0097,-1.0373,-1.08,-1.1563,-1.1928,-1.2595,-1.4102,-1.4393,-1.4818,-1.5773,-1.6034,-1.6231,-1.6474,-1.6607,-1.6596,-1.6367,-1.6474,-1.649,-1.6274,-1.6234,-1.6262,-1.6414,-1.7097,-1.7211,-1.6739,-1.739,-1.7718,-1.769,-1.7687,-1.792,-1.8337,-1.843,-1.8338,-1.8107,-1.8238,-1.7574,-1.6448,-1.7536,-1.7349,-1.6444,-1.7382,-1.7828,-1.7963,-1.7882,-1.8003,-1.8202,-1.8095,-1.8016,-1.8003,-1.8003,-1.7855,-1.7679,-1.7679,-1.7733,-1.7788,-1.7733,-1.7598,-1.7434,-1.7295,-1.7372,-1.7439,-1.7383,-1.7523,-1.7727,-1.7656,-1.754,-1.7399,-1.7144,-1.7275,-1.7408,-1.7243,-1.7438,-1.7656,-1.7827,-1.7794,-1.7778,-1.7844,-1.7818,-1.7755,-1.7634,-1.749,-1.7423,-1.7382,-1.7295,-1.7084,-1.6685,-1.6837,-1.6721,-1.6428,-1.601,-1.5858,-1.6119,-1.5399,-1.4999,-1.5103,-1.4603,-1.3976,-1.3268,-1.3377,-1.3258,-0.6396,-0.6898,-0.7277,-0.8259,-0.8097,-0.7794,-0.8146,-0.8375,-0.8521,-0.8667,-0.9116,-0.9581,-0.9919,-1.0285,-1.0737,-1.1336,-1.1862,-1.2564,-1.3677,-1.4286,-1.4907,-1.5707,-1.5868,-1.6009,-1.6246,-1.6367,-1.6355,-1.6191,-1.6301,-1.6301,-1.6108,-1.5968,-1.6047,-1.6305,-1.703,-1.7179,-1.6727,-1.756,-1.7967,-1.7935,-1.7768,-1.7923,-1.84,-1.8293,-1.809,-1.7818,-1.8013,-1.7345,0.0,-1.7288,-1.7142,-1.6286,-1.7143,-1.7611,-1.7747,-1.7666,-1.7747,-1.7935,-1.7841,-1.776,-1.7747,-1.772,-1.7543,-1.7323,-1.7323,-1.7447,-1.7584,-1.7447,-1.7323,-1.7306,-1.7388,-1.7483,-1.7613,-1.7784,-1.794,-1.8064,-1.802,-1.7799,-1.7599,-1.7408,-1.7554,-1.7668,-1.7562,-1.777,-1.7975,-1.8096,-1.7975,-1.7865,-1.7865,-1.77,-1.749,-1.7357,-1.7145,-1.7088,-1.7256,-1.7312,-1.7236,-1.6863,-1.7037,-1.6959,-1.6645,-1.6305,-1.6137,-1.614,-1.5588,-1.5259,-1.5195,-1.4687,-1.4155,-1.351,-1.351,-1.3307,0.0,-0.6348,-0.6767,-0.7729,-0.7587,-0.7373,-0.7962,-0.8187,0.0,-0.875,-0.9089,-0.9475,-0.9932,-1.0385,-1.0753,-1.0774,-1.1468,-1.2289,-1.2963,-1.3932,-1.4909,-1.5892,-1.5683,-1.5566,-1.5842,-1.5872,-1.5901,-1.5955,-1.6013,-1.6002,-1.583,-1.5758,-1.5979,-1.6505,-1.6754,-1.6754,-1.6518,-1.7111,-1.7461,-1.7581,-1.7544,-1.7775,-1.8202,-1.8163,-1.7807,-1.7194,-1.7623,-1.7138,-1.6042,-1.701,-1.7116,-1.6744,-1.7262,-1.7475,-1.7475,-1.7475,-1.7475,-1.7516,-1.7516,-1.7475,-1.7475,-1.7391,-1.7183,-1.7002,-1.7002,-1.7199,-1.7434,-1.724,-1.7267,-1.7411,-1.7624,-1.7702,-1.7836,-1.8304,-1.8172,-1.8007,-1.8246,-1.8037,-1.7804,-1.7861,-1.7909,-1.7854,-1.7711,-1.7711,-1.7711,-1.7711,-1.7656,-1.7601,-1.7468,-1.7323,-1.7155,-1.6955,-1.674,-1.6581,-1.657,-1.6694,-1.6751,-1.6751,-1.6761,-1.6761,-1.6761,-1.6581,-1.6146,-1.5436,-1.5377,-1.4994,-1.4327,-1.4264,-1.4267,-1.4267,-1.4079,-1.3696,-0.5658,0.0,-0.613,-0.7301,-0.7502,-0.7492,0.0,-0.8052,-0.8013,-0.8117,-0.84,-0.8734,-0.905,-0.9623,-1.0135,-1.0366,-1.1574,-1.2706,-1.343,-1.4443,-1.5169,-1.5256,-1.5659,-1.5792,-1.5462,-1.6159,-1.6368,-1.5668,-1.6189,-1.6442,-1.6182,-1.6571,-1.6822,-1.6882,-1.726,-1.7539,-1.7693,-1.8143,-1.8342,-1.8254,-1.7993,-1.793,-1.8042,-1.7868,-1.776,-1.7678,-1.7194,-1.6898,-1.6721,-1.6678,-1.6626,-1.6678,-1.71,-1.7337,-1.7432,-1.7432,-1.7461,-1.7516,-1.7516,-1.7393,-1.724,-1.7086,-1.696,-1.6918,-1.6918,-1.696,-1.7044,-1.7044,-1.696,-1.6974,-1.7422,-1.7801,-1.8188,-1.8632,-1.8883,-1.8922,-1.8613,-1.8478,-1.8247,-1.7843,-1.7755,-1.7755,-1.7711,-1.759,-1.759,-1.7656,-1.7545,-1.7323,-1.7123,-1.6909,-1.6627,-1.6332,-1.6285,-1.6181,-1.6077,-1.6306,-1.641,-1.641,-1.6228,-1.6104,-1.6104,-1.5826,-1.5593,-1.5379,-1.507,-1.4718,-1.4449,-1.4085,-1.389,-1.3899,-1.3606,-1.3373,-0.5201,-0.5524,-0.5921,-0.7039,-0.7175,-0.7196,-0.7743,-0.7869,-0.7898,-0.8099,-0.8372,-0.8679,-0.8965,-0.9751,-1.04,-1.055,-1.1885,-1.3183,-1.4028,-1.4798,-1.5209,-1.5074,-1.5742,-1.6097,-1.5703,-1.6491,-1.6836,-1.6342,-1.6635,-1.6775,-1.663,-1.6896,-1.7125,-1.7306,-1.7525,-1.7658,-1.7819,-1.8295,-1.8411,-1.8254,-1.8082,-1.8002,-1.7935,-1.7801,-1.772,-1.7666,-1.6903,-1.6823,-1.7143,-1.6494,-1.6493,-1.6889,-1.6998,-1.7099,-1.7183,-1.7183,-1.717,-1.724,-1.724,-1.7115,-1.696,-1.6846,-1.6748,-1.6705,-1.6803,-1.6748,-1.6705,-1.6918,-1.7025,-1.7182,-1.7771,-1.8201,-1.8572,-1.9045,-1.9031,-1.8827,-1.8548,-1.817,-1.7788,-1.7468,-1.7256,-1.72,-1.72,-1.7078,-1.6965,-1.7032,-1.692,-1.6751,-1.6503,-1.6389,-1.6161,-1.5816,-1.571,-1.5662,-1.5566,-1.5672,-1.5778,-1.6009,-1.5826,-1.5642,-1.5642,-1.5526,-1.5294,-1.5059,-1.4597,-1.4359,-1.424,-1.3941,-1.3769,-1.364,-1.3415,-1.318,-0.4646,-0.5307,-0.5915,-0.6899,-0.694,-0.6915,-0.7588,0.0,0.0,-0.828,-0.8495,-0.8734,-0.9112,-1.0118,-1.0866,-1.0797,-1.2163,-1.3527,-1.4502,-1.4951,-1.5131,-1.5125,-1.5932,-1.6419,-1.6196,-1.6886,-1.735,-1.7248,-1.715,-1.7104,-1.707,-1.712,-1.7313,-1.7763,-1.7651,-1.7576,-1.7576,-1.8054,-1.8201,-1.8002,-1.8002,-1.7935,-1.7828,-1.772,-1.7584,-1.7449,-1.6665,-1.6716,-1.731,-1.637,-1.6473,-1.7157,-1.696,-1.6876,-1.6876,-1.6876,-1.6876,-1.6876,-1.6876,-1.6803,-1.6675,-1.6675,-1.6534,-1.6417,-1.6647,-1.6629,-1.6542,-1.6891,-1.7207,-1.7559,-1.8248,-1.8535,-1.8819,-1.9273,-1.8804,-1.8213,-1.817,-1.7512,-1.6955,-1.6955,-1.674,-1.6513,-1.657,-1.641,-1.6296,-1.6296,-1.6296,-1.6171,-1.5931,-1.5816,-1.57,-1.542,-1.5196,-1.5088,-1.5088,-1.497,-1.5029,-1.5439,-1.5362,-1.5294,-1.5245,-1.5245,-1.501,-1.4597,-1.4181,-1.395,-1.395,-1.3769,-1.358,-1.339,-1.3294,-1.2936,-0.4739,-0.5328,-0.5922,-0.7134,-0.7406,-0.7549,-0.8287,-0.8336,-0.8205,0.0,-0.7947,-0.7956,-0.8516,-0.9655,-1.0439,-1.0257,-1.1954,-1.352,-1.4192,-1.4704,-1.5057,-1.508,-1.6216,-1.6886,-1.6564,-1.7481,-1.783,-1.7107,-1.7448,-1.759,-1.7444,-1.7824,-1.8082,-1.8129,-1.7984,-1.793,-1.793,-1.8133,-1.8109,-1.7922,-1.7922,-1.7788,-1.757,-1.7474,-1.7446,-1.7365,-1.6464,-1.6501,-1.716,-1.6273,-1.6376,-1.7002,-1.6918,-1.6876,-1.6876,-1.6876,-1.6876,-1.6876,-1.6761,-1.662,-1.6522,-1.6436,-1.6362,-1.6286,-1.6663,-1.6843,-1.6974,-1.7394,-1.7235,-1.7208,-1.8142,-1.8359,-1.8338,-1.8484,-1.8321,-1.7995,-1.7457,-1.7078,-1.6807,-1.6684,-1.64,-1.6228,-1.6353,-1.6228,-1.6171,-1.6296,-1.6114,-1.5931,-1.5931,-1.5546,-1.5274,-1.5215,-1.4961,-1.4775,-1.4775,-1.4488,-1.4369,-1.4428,-1.4656,-1.4715,-1.4506,-1.4446,-1.4378,-1.413,-1.3761,-1.364,-1.383,-1.3346,-1.3103,-1.3042,-1.2805,-1.256,-0.4018,-0.4708,-0.5536,-0.686,-0.7249,-0.7521,-0.8184,-0.8336,-0.8439,-0.8741,-0.8784,-0.8977,-0.9627,-1.0545,-1.1449,-1.2083,-1.335,-1.429,-1.4533,-1.4811,-1.5085,-1.527,-1.6304,-1.6986,-1.699,-1.7851,-1.8218,-1.772,-1.7913,-1.7991,-1.7876,-1.8101,-1.8214,-1.8095,-1.8042,-1.7962,-1.7855,-1.7922,-1.7882,-1.7801,-1.7679,-1.7556,-1.7419,-1.7337,-1.7253,-1.7144,-1.6314,-1.6309,-1.6879,-1.5986,-1.6032,-1.6663,-1.6577,-1.6534,-1.6534,-1.6534,-1.6534,-1.6491,-1.6362,-1.6262,-1.6207,-1.6088,-1.6118,-1.626,-1.6604,-1.6881,-1.7219,-1.775,-1.7763,-1.7727,-1.8248,-1.8331,-1.8331,-1.8286,-1.7941,-1.7512,-1.7088,-1.6761,-1.6534,-1.6343,-1.6124,-1.6019,-1.5961,-1.5826,-1.571,-1.5604,-1.5546,-1.5488,-1.5294,-1.5069,-1.4911,-1.4803,-1.4616,-1.4488,-1.4488,-1.4249,-1.407,-1.407,-1.4249,-1.4309,-1.4267,-1.4148,-1.4019,-1.389,-1.3847,-1.3766,-1.3704,-1.3455,-1.3214,-1.3034,-1.2709,-1.2375,-0.3348,-0.4119,-0.513,-0.6301,-0.6845,-0.7294,-0.8077,-0.8445,-0.8833,-0.9492,-0.9724,-1.0049,-1.077,-1.1503,-1.2464,-1.3893,-1.447,-1.4808,-1.5022,-1.5003,-1.5213,-1.5806,-1.6473,-1.7051,-1.7477,-1.8068,-1.8411,-1.8279,-1.8214,-1.8149,-1.8149,-1.8149,-1.8069,-1.7962,-1.7962,-1.7855,-1.7679,-1.7638,-1.7638,-1.7638,-1.7487,-1.7363,-1.7308,-1.717,-1.6989,-1.6837,-1.6262,-1.6241,-1.6522,-1.5914,-1.5904,-1.6306,-1.6188,-1.6144,-1.6113,-1.6144,-1.6144,-1.61,-1.6044,-1.5957,-1.5937,-1.5891,-1.6019,-1.6244,-1.6634,-1.7,-1.7426,-1.8088,-1.8231,-1.8295,-1.8398,-1.8383,-1.8313,-1.8127,-1.7634,-1.7078,-1.6694,-1.642,-1.6259,-1.6066,-1.5904,-1.573,-1.5672,-1.5478,-1.5303,-1.5088,-1.5098,-1.5029,-1.4715,-1.4656,-1.4547,-1.4446,-1.4348,-1.4326,-1.4294,-1.4083,-1.3996,-1.4031,-1.3986,-1.4054,-1.4282,-1.3942,-1.3709,-1.3649,-1.3905,-1.384,-1.3578,-1.3597,-1.3453,-1.3138,-1.2806,-1.2382,-0.3155,-0.3961,-0.4795,-0.5526,-0.622,-0.7083,-0.8359,-0.8997,-0.95,-1.0096,-1.0068,-1.0153,-1.1027,-1.177,-1.2769,-1.4247,-1.4246,-1.4384,-1.5336,-1.5128,-1.5469,-1.6922,-1.69,-1.7148,-1.8048,-1.8226,-1.8279,-1.8189,-1.8095,-1.7988,-1.7988,-1.7949,-1.7922,-1.7922,-1.7801,-1.772,-1.7679,-1.7528,-1.7404,-1.7404,-1.7404,-1.7267,-1.7002,-1.6808,-1.668,-1.6522,-1.6398,-1.6324,-1.6231,-1.6312,-1.6225,-1.6044,-1.6044,-1.5957,-1.5836,-1.5957,-1.5957,-1.5836,-1.5957,-1.5869,-1.5787,-1.6079,-1.6115,-1.617,-1.6991,-1.7416,-1.7711,-1.8223,-1.8363,-1.8417,-1.8566,-1.8375,-1.7975,-1.749,-1.7256,-1.7022,-1.6285,-1.6019,-1.5914,-1.574,-1.5546,-1.541,-1.541,-1.541,-1.5362,-1.5215,-1.5098,-1.497,-1.4715,-1.4488,-1.4327,-1.4249,-1.4276,-1.4323,-1.436,-1.4056,-1.3869,-1.409,-1.4037,-1.4048,-1.4104,-1.3699,-1.3459,-1.3363,-1.3522,-1.3642,-1.3578,-1.3582,-1.3486,-1.3302,-1.2937,-1.2498,-0.2807,-0.3708,-0.461,-0.5264,-0.6356,-0.7458,-0.8158,-0.9001,-0.992,-1.0902,-1.1207,-1.1604,-1.2672,-1.3531,-1.4192,-1.4654,-1.521,-1.54,-1.4929,-1.5463,-1.611,-1.6656,-1.6922,-1.7376,-1.8013,-1.8082,-1.8082,-1.8003,-1.7868,-1.7828,-1.7828,-1.7679,-1.7597,-1.7652,-1.7556,-1.7528,-1.7528,-1.735,-1.7212,-1.7141,-1.7099,-1.7015,-1.6803,-1.665,-1.6607,-1.662,-1.6491,-1.6392,-1.6362,-1.6144,-1.5969,-1.5905,-1.6049,-1.6089,-1.6043,-1.6089,-1.5932,-1.565,-1.6039,-1.6008,-1.5858,-1.6321,-1.6443,-1.6508,-1.6942,-1.7334,-1.7736,-1.8027,-1.8084,-1.8139,-1.841,-1.803,-1.7468,-1.719,-1.6797,-1.64,-1.5951,-1.5904,-1.5856,-1.574,-1.5614,-1.5546,-1.541,-1.5303,-1.5196,-1.4961,-1.4843,-1.4784,-1.4616,-1.4387,-1.4267,-1.4258,-1.418,-1.4256,-1.437,-1.413,-1.4073,-1.4242,-1.4122,-1.3996,-1.3903,-1.3697,-1.3389,-1.3119,-1.3459,-1.3515,-1.3276,-1.3352,-1.3318,-1.314,-1.2719,-1.2357,-0.2767,-0.3862,-0.5042,-0.5595,-0.673,-0.7858,-0.8502,-0.9542,-1.063,-1.1591,-1.2118,-1.2666,-1.3503,-1.4339,-1.487,-1.4975,-1.567,-1.6011,-1.5488,-1.5986,-1.654,-1.6867,-1.7064,-1.7358,-1.7907,-1.7922,-1.7895,-1.7842,-1.772,-1.7625,-1.7625,-1.7515,-1.7419,-1.7447,-1.7378,-1.7308,-1.7267,-1.717,-1.7044,-1.6876,-1.6846,-1.6761,-1.6633,-1.6436,-1.6405,-1.6559,-1.6592,-1.661,-1.6578,-1.6483,-1.6245,-1.6013,-1.6291,-1.6243,-1.6138,-1.6301,-1.6173,-1.5916,-1.6302,-1.6275,-1.6138,-1.6502,-1.6681,-1.6718,-1.685,-1.7257,-1.7601,-1.7634,-1.7689,-1.7744,-1.7909,-1.7579,-1.7134,-1.6955,-1.6513,-1.6066,-1.5788,-1.5798,-1.5798,-1.5556,-1.5556,-1.5498,-1.5303,-1.5205,-1.5029,-1.4715,-1.4715,-1.4597,-1.4378,-1.4258,-1.4237,-1.4435,-1.4141,-1.4213,-1.4622,-1.4371,-1.425,-1.4477,-1.4267,-1.4104,-1.4007,-1.3702,-1.3408,-1.3099,-1.3391,-1.3395,-1.3092,-1.3396,-1.3481,-1.3286,-1.2781,-1.2491,-0.3087,-0.446,-0.6129,-0.6609,-0.731,-0.8239,-0.9506,-1.0739,-1.1706,-1.213,-1.2696,-1.3126,-1.3195,-1.3801,-1.4518,-1.5127,-1.5448,-1.6022,-1.719,-1.6693,-1.6664,-1.7851,-1.7351,-1.7165,-1.7828,-1.776,-1.7679,-1.7679,-1.757,-1.7516,-1.7516,-1.7516,-1.7447,-1.7404,-1.7253,-1.7115,-1.7002,-1.6918,-1.6846,-1.6675,-1.6675,-1.6633,-1.6479,-1.6175,-1.61,-1.6237,-1.6765,-1.6895,-1.6839,-1.7529,-1.7219,-1.635,-1.6674,-1.6423,-1.598,-1.6573,-1.6685,-1.6623,-1.6746,-1.6696,-1.6615,-1.6699,-1.6696,-1.6741,-1.6926,-1.7145,-1.7267,-1.72,-1.719,-1.719,-1.7011,-1.7078,-1.7078,-1.6684,-1.6467,-1.6181,-1.5788,-1.5672,-1.5624,-1.5274,-1.5215,-1.5156,-1.5039,-1.498,-1.4911,-1.4725,-1.4725,-1.4547,-1.4079,-1.4019,-1.4206,-1.4672,-1.414,-1.4155,-1.5114,-1.4743,-1.4485,-1.4617,-1.4497,-1.4419,-1.4417,-1.3655,-1.3284,-1.3284,-1.3404,-1.3276,-1.31,-1.3775,-1.397,-1.3754,-1.3282,-1.2902,-0.3183,-0.463,-0.6382,-0.7146,-0.846,-0.974,-1.0288,-1.1001,-1.1797,-1.2714,-1.3126,-1.3516,-1.4138,-1.46,-1.5056,-1.5659,-1.6389,-1.6665,-1.6093,-1.6597,-1.6983,-1.6837,-1.6996,-1.7221,-1.7502,-1.7528,-1.7515,-1.757,-1.7461,-1.7432,-1.7432,-1.7253,-1.7128,-1.7128,-1.7044,-1.696,-1.6918,-1.6735,-1.6663,-1.6675,-1.6461,-1.6362,-1.6436,-1.6349,-1.6429,-1.6708,-1.68,-1.694,-1.6979,-1.6802,-1.6738,-1.6729,-1.6814,-1.6791,-1.6638,-1.6773,-1.6615,-1.6379,-1.6894,-1.6852,-1.6594,-1.7092,-1.7038,-1.6794,-1.6821,-1.692,-1.6874,-1.6637,-1.6684,-1.6684,-1.6161,-1.6161,-1.6275,-1.6228,-1.5894,-1.5498,-1.5381,-1.5264,-1.5147,-1.5098,-1.5039,-1.5124,-1.5349,-1.5224,-1.5142,-1.5348,-1.5133,-1.488,-1.4635,-1.4516,-1.4512,-1.479,-1.4479,-1.4449,-1.4958,-1.4688,-1.453,-1.4633,-1.4497,-1.434,-1.4202,-1.3842,-1.3553,-1.3325,-1.3433,-1.3368,-1.3053,-1.3492,-1.3569,-1.3422,-1.305,-1.275,-0.4031,-0.546,-0.714,-0.813,-0.9278,-1.0404,-1.1281,-1.1606,-1.2012,-1.296,-1.3278,-1.364,-1.4375,-1.4941,-1.5423,-1.5938,-1.6574,-1.6827,-1.6192,-1.6727,-1.7068,-1.6688,-1.699,-1.724,-1.7308,-1.7363,-1.7391,-1.7393,-1.7295,-1.7225,-1.7225,-1.7044,-1.6918,-1.6876,-1.6791,-1.6748,-1.6705,-1.6491,-1.6448,-1.659,-1.6331,-1.6355,-1.664,-1.6584,-1.6679,-1.6873,-1.7063,-1.7298,-1.7454,-1.7042,-1.6796,-1.6738,-1.6883,-1.6839,-1.6707,-1.6948,-1.6891,-1.6796,-1.7216,-1.7209,-1.7026,-1.7203,-1.7134,-1.6864,-1.6705,-1.6648,-1.6591,-1.6239,-1.6181,-1.6124,-1.5604,-1.5488,-1.5594,-1.572,-1.5439,-1.5204,-1.5367,-1.5276,-1.5264,-1.5313,-1.5341,-1.5355,-1.5482,-1.5268,-1.516,-1.5459,-1.5236,-1.4967,-1.478,-1.4658,-1.4538,-1.4695,-1.4462,-1.4407,-1.4689,-1.4433,-1.4289,-1.4289,-1.4072,-1.3973,-1.3987,-1.3832,-1.373,-1.3468,-1.3589,-1.3459,-1.3132,-1.3538,-1.3569,-1.3233,-1.2969,-1.2736,-0.5178,-0.6578,-0.814,-0.9301,-0.9882,-1.0629,-1.2259,-1.2399,-1.2422,-1.3041,-1.3301,-1.358,-1.4175,-1.4923,-1.5554,-1.5906,-1.6267,-1.6607,-1.7031,-1.696,-1.6918,-1.7115,-1.7115,-1.7157,-1.7157,-1.7267,-1.7308,-1.7199,-1.7086,-1.7002,-1.696,-1.6918,-1.6803,-1.6675,-1.6534,-1.6436,-1.6349,-1.6231,-1.6231,-1.6349,-1.6231,-1.6402,-1.688,-1.6825,-1.6817,-1.6893,-1.742,-1.7774,-1.7984,-1.7722,-1.7137,-1.6515,-1.6838,-1.6697,-1.6396,-1.6982,-1.7301,-1.7468,-1.759,-1.7656,-1.7534,-1.7123,-1.7011,-1.6899,-1.6534,-1.6374,-1.6316,-1.5941,-1.574,-1.5625,-1.5273,-1.5183,-1.5153,-1.5212,-1.5243,-1.5269,-1.5557,-1.5572,-1.5632,-1.5817,-1.5753,-1.5578,-1.5429,-1.5299,-1.5168,-1.5138,-1.5016,-1.4884,-1.4637,-1.4496,-1.443,-1.4417,-1.4234,-1.4151,-1.433,-1.4008,-1.379,-1.379,-1.3419,-1.3346,-1.3717,-1.3767,-1.3801,-1.3801,-1.3703,-1.3553,-1.3299,-1.3868,-1.3784,-1.3126,-1.2991,-1.2766,-0.4487,-0.6324,-0.841,-0.9223,-1.062,-1.1821,-1.1958,-1.2659,-1.3392,-1.3742,-1.3668,-1.3823,-1.4752,-1.4982,-1.5229,-1.577,-1.6071,-1.6275,-1.6405,-1.6491,-1.6522,-1.6565,-1.6607,-1.6693,-1.6803,-1.6846,-1.6888,-1.696,-1.6918,-1.6876,-1.6761,-1.6761,-1.6675,-1.6491,-1.6436,-1.6306,-1.6076,-1.5969,-1.5881,-1.5925,-1.5881,-1.5897,-1.5915,-1.6356,-1.6776,-1.7196,-1.7339,-1.7324,-1.7224,-1.6955,-1.662,-1.6377,-1.6595,-1.662,-1.6557,-1.6775,-1.6965,-1.7123,-1.7123,-1.7078,-1.6976,-1.7022,-1.6842,-1.6627,-1.6488,-1.6306,-1.6066,-1.5498,-1.5565,-1.5696,-1.5219,-1.5523,-1.5892,-1.5631,-1.5452,-1.5392,-1.5731,-1.5633,-1.5469,-1.5495,-1.5375,-1.5325,-1.557,-1.5498,-1.541,-1.5428,-1.5401,-1.5261,-1.4849,-1.4701,-1.4521,-1.4379,-1.4244,-1.406,-1.3928,-1.387,-1.3717,-1.3572,-1.3346,-1.3273,-1.3346,-1.3643,-1.3822,-1.3822,-1.4174,-1.4064,-1.343,-1.392,-1.3712,-1.3046,-1.2976,-1.2706,-0.4903,-0.6656,-0.8572,-1.0148,-1.1404,-1.221,-1.2146,-1.2814,-1.353,-1.3826,-1.4111,-1.4422,-1.4881,-1.5131,-1.5393,-1.5712,-1.5881,-1.6057,-1.62,-1.6318,-1.6392,-1.6436,-1.6534,-1.6577,-1.6577,-1.6633,-1.6675,-1.6663,-1.6663,-1.662,-1.6577,-1.6504,-1.6405,-1.6318,-1.6188,-1.6057,-1.5913,-1.5736,-1.5823,-1.6073,-1.597,-1.5998,-1.6138,-1.6392,-1.6873,-1.7384,-1.7324,-1.7088,-1.6797,-1.6457,-1.6239,-1.6134,-1.6124,-1.6181,-1.6296,-1.6534,-1.6751,-1.6909,-1.6955,-1.6955,-1.6909,-1.6909,-1.6684,-1.6343,-1.6181,-1.6035,-1.591,-1.5504,-1.5628,-1.5754,-1.544,-1.5669,-1.5947,-1.6011,-1.5808,-1.5687,-1.6039,-1.5926,-1.5924,-1.6115,-1.5806,-1.5657,-1.5859,-1.5618,-1.5339,-1.5392,-1.5284,-1.5078,-1.4792,-1.4649,-1.4425,-1.4145,-1.392,-1.3702,-1.3499,-1.3346,-1.32,-1.3046,-1.29,-1.2826,-1.29,-1.32,-1.3492,-1.3645,-1.4137,-1.4137,-1.3645,-1.3855,-1.3611,-1.2868,-1.2868,-1.2564,-0.5197,-0.6833,-0.8674,-1.1087,-1.1953,-1.2278,-1.2377,-1.295,-1.3561,-1.3819,-1.447,-1.4983,-1.4927,-1.5318,-1.5671,-1.5626,-1.5715,-1.5881,-1.6069,-1.6275,-1.6392,-1.6423,-1.6534,-1.6547,-1.6349,-1.6491,-1.6491,-1.6318,-1.6306,-1.6306,-1.6318,-1.6231,-1.6144,-1.6113,-1.5881,-1.5796,-1.5835,-1.5605,-1.5727,-1.6279,-1.5997,-1.6147,-1.6738,-1.6587,-1.6838,-1.7357,-1.7267,-1.6987,-1.6524,-1.6285,-1.6077,-1.5914,-1.5788,-1.5846,-1.5972,-1.6259,-1.6545,-1.6807,-1.6899,-1.6955,-1.6899,-1.6751,-1.641,-1.6066,-1.5906,-1.5771,-1.5718,-1.5609,-1.5741,-1.5854,-1.5725,-1.578,-1.5926,-1.6196,-1.6156,-1.6057,-1.634,-1.6355,-1.6446,-1.6775,-1.6412,-1.6061,-1.5991,-1.5638,-1.5275,-1.5133,-1.5007,-1.4792,-1.4569,-1.4425,-1.4217,-1.3717,-1.3564,-1.3346,-1.3119,-1.2826,-1.2673,-1.2599,-1.2452,-1.2452,-1.2673,-1.2826,-1.3046,-1.3419,-1.3775,-1.3848,-1.3645,-1.3645,-1.3323,-1.265,-1.2707,-1.2487,-0.3561,-0.5927,-0.8651,-1.0617,-1.1832,-1.2468,-1.2063,-1.317,-1.4227,-1.4138,-1.4592,-1.5102,-1.5369,-1.5466,-1.5468,-1.5357,-1.5614,-1.5792,-1.576,-1.6025,-1.6188,-1.6088,-1.6188,-1.6188,-1.6088,-1.6088,-1.6044,-1.5881,-1.6001,-1.6001,-1.5881,-1.5957,-1.5969,-1.576,-1.5715,-1.584,-1.6057,-1.5567,-1.5464,-1.5782,-1.5397,-1.5808,-1.6866,-1.6363,-1.6417,-1.6864,-1.6864,-1.6705,-1.6431,-1.6374,-1.6202,-1.5914,-1.6009,-1.6056,-1.6124,-1.6316,-1.6477,-1.6627,-1.6627,-1.6627,-1.6627,-1.641,-1.6171,-1.5886,-1.579,-1.5581,-1.5396,-1.5396,-1.5573,-1.5726,-1.5726,-1.5993,-1.62,-1.6253,-1.6296,-1.6339,-1.6748,-1.6678,-1.6549,-1.6403,-1.6202,-1.5991,-1.5638,-1.5647,-1.5513,-1.5007,-1.4935,-1.4721,-1.4201,-1.4129,-1.392,-1.3346,-1.3273,-1.3119,-1.2673,-1.2826,-1.2826,-1.2599,-1.2746,-1.282,-1.2893,-1.29,-1.29,-1.2973,-1.3419,-1.3419,-1.3046,-1.32,-1.2963,-1.2438,-1.2559,-1.2401,-0.4322,-0.6563,-0.8675,-1.0234,-1.1297,-1.1986,-1.2048,-1.2936,-1.3773,-1.3806,-1.4469,-1.5154,-1.5433,-1.5558,-1.557,-1.5537,-1.5671,-1.5748,-1.5881,-1.5925,-1.5969,-1.6001,-1.6013,-1.5925,-1.5836,-1.5836,-1.5792,-1.5647,-1.5691,-1.5691,-1.5659,-1.5691,-1.5691,-1.5614,-1.5435,-1.5544,-1.5913,-1.56,-1.5694,-1.6271,-1.6291,-1.6493,-1.6841,-1.6499,-1.656,-1.6818,-1.6694,-1.6591,-1.6374,-1.6306,-1.6134,-1.6009,-1.6056,-1.6114,-1.6114,-1.6316,-1.6477,-1.657,-1.657,-1.657,-1.6612,-1.6516,-1.6187,-1.579,-1.5794,-1.5697,-1.5521,-1.5578,-1.5774,-1.6007,-1.6007,-1.6139,-1.6272,-1.6272,-1.6272,-1.6351,-1.656,-1.6482,-1.6333,-1.5921,-1.578,-1.5638,-1.5221,-1.515,-1.5078,-1.4935,-1.4649,-1.4353,-1.4129,-1.392,-1.363,-1.3419,-1.3273,-1.3119,-1.2973,-1.29,-1.2826,-1.2599,-1.2673,-1.2673,-1.2599,-1.2526,-1.2526,-1.2526,-1.2973,-1.3046,-1.29,-1.29,-1.2757,-1.248,-1.2464,-1.2378,-0.5074,-0.676,-0.8085,-0.9634,-1.0504,-1.1145,-1.1784,-1.255,-1.3171,-1.3388,-1.4249,-1.5062,-1.5277,-1.548,-1.5525,-1.5525,-1.557,-1.5703,-1.5824,-1.578,-1.5792,-1.5869,-1.578,-1.5703,-1.5626,-1.5582,-1.5525,-1.5424,-1.5379,-1.5426,-1.5566,-1.5449,-1.5496,-1.5718,-1.5407,-1.5519,-1.6158,-1.5962,-1.6182,-1.6696,-1.6918,-1.698,-1.6864,-1.6684,-1.6627,-1.6751,-1.6581,-1.6477,-1.6306,-1.6181,-1.6114,-1.6114,-1.6066,-1.6056,-1.6114,-1.6249,-1.6363,-1.641,-1.6285,-1.6285,-1.63,-1.6198,-1.5863,-1.5538,-1.5753,-1.5716,-1.5563,-1.5727,-1.5973,-1.614,-1.614,-1.614,-1.614,-1.614,-1.6132,-1.6132,-1.6202,-1.6272,-1.6132,-1.5647,-1.5647,-1.5505,-1.515,-1.4935,-1.4856,-1.4864,-1.4497,-1.4201,-1.4129,-1.3848,-1.3637,-1.3492,-1.3346,-1.32,-1.32,-1.3046,-1.29,-1.2753,-1.2746,-1.2673,-1.2526,-1.2452,-1.2378,-1.2378,-1.2599,-1.2746,-1.2746,-1.2599,-1.2526,-1.2526,-1.2378,-1.2305,-0.4689,-0.5576,-0.6387,-0.8694,-0.9421,-0.9884,-1.0985,-1.1944,-1.2701,-1.3212,-1.4011,-1.4708,-1.4915,-1.5051,-1.5108,-1.4949,-1.5277,-1.548,-1.5345,-1.5537,-1.5671,-1.5558,-1.5513,-1.5468,-1.5357,-1.521,-1.5108,-1.5108,-1.5006,-1.5165,-1.5761,-1.5372,-1.5509,-1.6344,-1.5841,-1.6056,-1.7103,-1.6999,-1.6852,-1.6696,-1.6461,-1.6601,-1.6955,-1.674,-1.657,-1.657,-1.6477,-1.6306,-1.6114,-1.6114,-1.6114,-1.6114,-1.5961,-1.6019,-1.6114,-1.5972,-1.5914,-1.5846,-1.541,-1.5352,-1.542,-1.4998,-1.4889,-1.4908,-1.5375,-1.541,-1.5292,-1.5668,-1.5788,-1.5797,-1.5797,-1.5797,-1.5797,-1.5797,-1.5647,-1.5647,-1.5991,-1.6132,-1.607,-1.5797,-1.5929,-1.5921,-1.5576,-1.5434,-1.5363,-1.4935,-1.4713,-1.4497,-1.4129,-1.4057,-1.392,-1.3564,-1.3346,-1.32,-1.32,-1.3193,-1.32,-1.3193,-1.3193,-1.3193,-1.3127,-1.2826,-1.2599,-1.2599,-1.2452,-1.2305,-1.2305,-1.2298,-1.2298,-1.2298,-1.2305,-1.2305,-0.3321,-0.4346,-0.5289,-0.6782,-0.7961,-0.9,-1.0018,-1.1223,-1.2315,-1.2754,-1.3485,-1.4093,-1.4082,-1.4536,-1.5006,-1.5153,-1.5198,-1.5289,-1.5424,-1.5289,-1.5187,-1.5244,-1.5187,-1.5096,-1.5051,-1.5062,-1.5062,-1.496,-1.5325,-1.554,-1.5626,-1.5811,-1.5988,-1.616,-1.5942,-1.6114,-1.6738,-1.707,-1.7181,-1.706,-1.6784,-1.6704,-1.6864,-1.6457,-1.6285,-1.6285,-1.6134,-1.6077,-1.6114,-1.6009,-1.5961,-1.5961,-1.5914,-1.5856,-1.5846,-1.5798,-1.5556,-1.5254,-1.5069,-1.5001,-1.4996,-1.5114,-1.5214,-1.5248,-1.5762,-1.5652,-1.5477,-1.5692,-1.5726,-1.5647,-1.5797,-1.5805,-1.5797,-1.5647,-1.5426,-1.5284,-1.5363,-1.5363,-1.5292,-1.5229,-1.515,-1.507,-1.4927,-1.4856,-1.4721,-1.4577,-1.4289,-1.4072,-1.3928,-1.3783,-1.3637,-1.3492,-1.3419,-1.3346,-1.32,-1.32,-1.3119,-1.282,-1.2826,-1.2753,-1.2599,-1.2452,-1.2378,-1.2378,-1.2305,-1.2305,-1.2305,-1.2305,-1.2305,-1.2305,-1.2305,-1.2305,-0.2477,-0.3393,-0.435,-0.5547,-0.6592,-0.7701,-0.9093,-1.0279,-1.1256,-1.1995,-1.2759,-1.3293,-1.3341,-1.3978,-1.4593,-1.4937,-1.4983,-1.5028,-1.5255,-1.5017,-1.488,-1.4983,-1.4915,-1.4915,-1.488,-1.4937,-1.4983,-1.488,-1.5366,-1.562,-1.5668,-1.5981,-1.6136,-1.6096,-1.6365,-1.6543,-1.6645,-1.7103,-1.7222,-1.7099,-1.6931,-1.6761,-1.6648,-1.6363,-1.6124,-1.6009,-1.5914,-1.5904,-1.5951,-1.5846,-1.5856,-1.5798,-1.5682,-1.5614,-1.5604,-1.543,-1.5137,-1.4793,-1.4754,-1.468,-1.4748,-1.5165,-1.5301,-1.5433,-1.58,-1.5709,-1.5505,-1.5576,-1.5576,-1.5505,-1.5576,-1.5576,-1.5576,-1.5363,-1.5213,-1.4999,-1.4792,-1.4792,-1.4872,-1.4872,-1.4792,-1.4721,-1.4721,-1.4569,-1.4425,-1.4433,-1.4145,-1.3863,-1.379,-1.3645,-1.3572,-1.3572,-1.3572,-1.3492,-1.3419,-1.3273,-1.3089,-1.2966,-1.2824,-1.2723,-1.2599,-1.2505,-1.2498,-1.253,-1.2505,-1.2505,-1.2605,-1.2398,-1.2351,-1.2452,-1.2351,-1.2305,0.0,0.0,0.0,-0.504,-0.5382,-0.5972,-0.8185,-0.8956,-0.9538,-1.0901,-1.1761,-1.2361,-1.2715,-1.3208,-1.3752,-1.4269,-1.4466,-1.4627,-1.4776,-1.4787,-1.4787,-1.4787,-1.4834,-1.4869,-1.4776,-1.4799,-1.4799,-1.4787,-1.4997,-1.5373,-1.5963,-1.5763,-1.5847,-1.6267,-1.706,-1.7357,-1.7011,-1.72,-1.7099,-1.6807,-1.6818,-1.6648,-1.6384,-1.6384,-1.6212,-1.5914,-1.573,-1.5682,-1.5692,-1.5682,-1.5672,-1.5672,-1.5332,-1.5254,-1.5362,-1.4902,-1.4725,-1.4671,-1.4409,-1.4416,-1.4656,-1.4908,-1.5078,-1.5215,-1.5458,-1.5497,-1.5426,-1.5275,-1.5355,-1.5426,-1.5275,-1.5204,-1.5133,-1.4935,-1.4864,-1.4792,-1.4497,-1.4649,-1.4864,-1.4872,-1.4864,-1.4864,-1.4864,-1.4721,-1.4497,-1.4353,-1.4209,-1.3992,-1.379,-1.3797,-1.3797,-1.379,-1.3572,-1.3572,-1.3732,-1.3433,-1.3343,-1.3582,-1.321,-1.304,-1.32,-1.2919,-1.2822,-1.2876,-1.2828,-1.2906,-1.3206,-1.2619,-1.2472,-1.2815,-1.2438,-1.2305,-0.1174,0.0,0.0,0.0,0.0,0.0,-0.6231,-0.7304,-0.8494,-1.0132,-1.0943,-1.1586,-1.2305,-1.3007,-1.346,-1.3369,-1.3971,-1.4523,-1.4708,-1.4776,-1.4787,-1.4787,-1.4834,-1.4823,-1.4673,-1.5137,-1.5251,-1.4706,-1.5452,-1.5731,-1.5362,-1.5812,-1.6192,-1.6375,-1.6884,-1.719,-1.7211,-1.7278,-1.7211,-1.6965,-1.6864,-1.6648,-1.6374,-1.6144,-1.5914,-1.574,-1.5546,-1.5605,-1.5749,-1.5547,-1.5478,-1.5478,-1.5264,-1.5079,-1.4921,-1.5,-1.4673,-1.4302,-1.4375,-1.4301,-1.4246,-1.4519,-1.4736,-1.5001,-1.5238,-1.5275,-1.5275,-1.5204,-1.5141,-1.5078,-1.5204,-1.507,-1.5007,-1.4935,-1.4721,-1.4497,-1.4425,-1.4217,-1.4145,-1.4281,-1.4217,-1.408,-1.408,-1.408,-1.3928,-1.3783,-1.371,-1.3564,-1.3419,-1.3346,-1.3346,-1.3193,-1.32,-1.3286,-1.3208,-1.3229,-1.3286,-1.3301,-1.3236,-1.3198,-1.3206,-1.2969,-1.2785,-1.2589,-1.2785,-1.2883,-1.2969,-1.2961,-1.2886,-1.2815,-1.2438,-1.2305,0.0,0.0,-0.2063,-0.2661,0.0,0.0,-0.521,-0.6179,-0.7279,-0.8749,-0.9538,-1.0195,-1.0999,-1.1676,-1.2093,-1.2078,-1.264,-1.3405,-1.4411,-1.4616,-1.4627,-1.4627,-1.4708,-1.4697,-1.4523,-1.4976,-1.5032,-1.4545,-1.524,-1.5625,-1.5542,-1.6072,-1.6461,-1.6656,-1.6871,-1.7022,-1.7099,-1.7043,-1.6864,-1.6616,-1.657,-1.6353,-1.6087,-1.5914,-1.5682,-1.5508,-1.5556,-1.56,-1.5586,-1.5622,-1.5655,-1.5725,-1.5482,-1.5237,-1.4958,-1.4944,-1.4589,-1.4191,-1.4438,-1.443,-1.442,-1.4637,-1.4891,-1.5063,-1.5067,-1.507,-1.507,-1.4991,-1.4856,-1.4784,-1.4927,-1.4856,-1.4792,-1.4792,-1.4569,-1.4361,-1.4281,-1.4,-1.3863,-1.4065,-1.3928,-1.3797,-1.3797,-1.3717,-1.3645,-1.3419,-1.3273,-1.32,-1.3119,-1.3046,-1.3046,-1.29,-1.2973,-1.3043,-1.307,-1.3127,-1.3258,-1.3416,-1.34,-1.3366,-1.3404,-1.3292,-1.3126,-1.2994,-1.3039,-1.3065,-1.2904,-1.3107,-1.3053,-1.2815,-1.2364,-1.2231,0.0,0.0,0.0,-0.2685,-0.2882,0.0,-0.4763,-0.537,-0.5939,-0.7059,-0.7814,-0.8504,-0.9232,-0.9867,-1.0376,-1.0611,-1.096,-1.1871,-1.3936,-1.4147,-1.4215,-1.4373,-1.4521,-1.4543,-1.443,-1.4622,-1.4644,-1.443,-1.4677,-1.5164,-1.5903,-1.6256,-1.6559,-1.6858,-1.6922,-1.6909,-1.6818,-1.6694,-1.6457,-1.6114,-1.6114,-1.5972,-1.5742,-1.5742,-1.5537,-1.525,-1.5613,-1.559,-1.5318,-1.5661,-1.5928,-1.6102,-1.5762,-1.5495,-1.5254,-1.4775,-1.4529,-1.4372,-1.4618,-1.475,-1.48,-1.5035,-1.5133,-1.5133,-1.4935,-1.4872,-1.4864,-1.4641,-1.4569,-1.4569,-1.4569,-1.4569,-1.4569,-1.4569,-1.4425,-1.4281,-1.4137,-1.3855,-1.379,-1.3992,-1.3855,-1.3717,-1.3717,-1.3564,-1.3346,-1.3193,-1.3046,-1.29,-1.29,-1.2854,-1.2861,-1.2826,-1.2889,-1.3005,-1.3153,-1.3099,-1.3319,-1.3822,-1.3669,-1.3609,-1.3724,-1.3662,-1.3635,-1.3685,-1.3444,-1.3162,-1.3029,-1.3126,-1.2975,-1.2746,-1.2214,-1.2077,-0.2101,-0.1929,-0.1941,-0.2216,-0.2578,0.0,-0.357,-0.408,-0.4864,-0.6363,-0.6877,-0.7333,-0.8216,-0.9371,-1.0132,-0.979,-1.0483,-1.1468,-1.2686,-1.2665,-1.2991,-1.4236,-1.4568,-1.4607,-1.4417,-1.5218,-1.5361,-1.4485,-1.458,-1.4687,-1.4826,-1.5553,-1.605,-1.6113,-1.6605,-1.6807,-1.6818,-1.6751,-1.6648,-1.6316,-1.6316,-1.6212,-1.5957,-1.5957,-1.5766,-1.5504,-1.5578,-1.5433,-1.5147,-1.5415,-1.5578,-1.568,-1.5357,-1.5098,-1.4937,-1.4866,-1.4713,-1.4627,-1.4787,-1.4838,-1.4846,-1.476,-1.4856,-1.4935,-1.4721,-1.4792,-1.4864,-1.4641,-1.4497,-1.4425,-1.4569,-1.4425,-1.4209,-1.4425,-1.4145,-1.3935,-1.3863,-1.3564,-1.3346,-1.3339,-1.3339,-1.3273,-1.3119,-1.3046,-1.2973,-1.2973,-1.29,-1.2826,-1.2673,-1.2886,-1.2866,-1.2472,-1.303,-1.3331,-1.3189,-1.3308,-1.3573,-1.4041,-1.3741,-1.3692,-1.399,-1.3769,-1.3574,-1.3398,-1.3175,-1.3176,-1.3315,-1.2894,-1.2582,-1.2299,-1.1921,-1.1781,-0.2402,-0.2228,-0.2199,-0.2459,-0.2675,0.0,0.0,-0.3804,-0.4359,-0.5444,-0.5744,-0.6077,-0.7041,-0.772,-0.8172,-0.8283,-0.8724,-0.9375,-1.0358,-1.1535,-1.2715,-1.405,-1.4105,-1.4194,-1.4505,-1.4875,-1.49,-1.4489,-1.4573,-1.4668,-1.4747,-1.5521,-1.6058,-1.6213,-1.6567,-1.6637,-1.6602,-1.6524,-1.6352,-1.6177,-1.6177,-1.6167,-1.6095,-1.6023,-1.5823,-1.5504,-1.562,-1.534,-1.4767,-1.5266,-1.5343,-1.5149,-1.5273,-1.5206,-1.5018,-1.4952,-1.4808,-1.4692,-1.4728,-1.4721,-1.4721,-1.4641,-1.4641,-1.4721,-1.4641,-1.4641,-1.4641,-1.4289,-1.4289,-1.4361,-1.4217,-1.4137,-1.4129,-1.4209,-1.4,-1.3797,-1.3797,-1.3697,-1.351,-1.328,-1.34,-1.3332,-1.2949,-1.2826,-1.2746,-1.2746,-1.2803,-1.2825,-1.2675,-1.2939,-1.2997,-1.2772,-1.3097,-1.3351,-1.3351,-1.3351,-1.348,-1.3777,-1.3641,-1.3707,-1.3854,-1.3917,-1.3756,-1.3355,-1.3272,-1.3104,-1.2847,-1.2745,-1.2635,-1.2518,-1.1986,-1.1771,-0.2769,-0.2605,-0.26,-0.3043,-0.3037,-0.3086,0.0,0.0,0.0,-0.444,-0.4665,-0.5016,-0.5868,-0.6047,-0.6222,-0.6803,-0.6926,-0.7268,-0.8254,-1.0206,-1.1965,-1.3165,-1.3138,-1.3304,-1.4045,-1.391,-1.3885,-1.4268,-1.4411,-1.4622,-1.4872,-1.5623,-1.6137,-1.6457,-1.6467,-1.642,-1.6316,-1.6216,-1.6078,-1.6023,-1.604,-1.6061,-1.615,-1.5938,-1.5658,-1.5354,-1.5519,-1.5171,-1.443,-1.5088,-1.5076,-1.4726,-1.5221,-1.5284,-1.5133,-1.4935,-1.4713,-1.4569,-1.4569,-1.4569,-1.4569,-1.4569,-1.4569,-1.4569,-1.4569,-1.4497,-1.4425,-1.4,-1.4072,-1.4217,-1.3935,-1.3928,-1.3985,-1.4065,-1.39,-1.3814,-1.3814,-1.3843,-1.3834,-1.3439,-1.3564,-1.3578,-1.3016,-1.2852,-1.2702,-1.2702,-1.2837,-1.2916,-1.2916,-1.3106,-1.3273,-1.322,-1.3313,-1.3433,-1.3512,-1.3366,-1.3393,-1.3593,-1.3622,-1.3667,-1.3728,-1.3878,-1.3828,-1.3398,-1.3392,-1.3031,-1.2391,-1.2557,-1.2726,-1.2724,-1.2123,-1.1897,-0.335,-0.3058,-0.3006,-0.3758,-0.3748,-0.3609,-0.3917,0.0,-0.3615,-0.3561,0.0,-0.4443,-0.4963,0.0,0.0,-0.6098,-0.623,-0.6675,-0.7817,-0.8154,-0.8961,-1.0681,-1.1194,-1.1603,-1.2019,-1.2274,-1.2699,-1.3488,-1.371,-1.3991,-1.446,-1.5269,-1.5796,-1.5972,-1.5972,-1.5972,-1.5982,-1.6168,-1.6207,-1.6023,-1.609,-1.6095,-1.603,-1.5811,-1.5522,-1.5221,-1.5263,-1.494,-1.4437,-1.4624,-1.4576,-1.4441,-1.4798,-1.4935,-1.4935,-1.4713,-1.4641,-1.4569,-1.4569,-1.4569,-1.4569,-1.4569,-1.4497,-1.4425,-1.4425,-1.4281,-1.4129,-1.4057,-1.4,-1.3935,-1.4065,-1.3848,-1.3637,-1.379,-1.3711,-1.3683,-1.3931,-1.3782,-1.3604,-1.3682,-1.3632,-1.3482,-1.3192,-1.3185,-1.3106,-1.3106,-1.3133,-1.316,-1.316,-1.3414,-1.3494,-1.324,-1.3681,-1.3881,-1.3614,-1.3594,-1.3707,-1.4052,-1.3774,-1.3761,-1.4021,-1.3808,-1.3652,-1.3398,-1.3222,-1.2954,-1.2656,-1.2662,-1.2486,-1.2,-1.1895,-1.1877,-0.5572,-0.5435,-0.5292,-0.5119,-0.4742,-0.4339,-0.3965,-0.3648,-0.349,-0.3721,0.0,0.0,0.0,0.0,0.0,0.0,-0.5401,-0.5653,-0.6269,-0.662,-0.764,-0.9888,-1.0266,-1.0678,-1.1442,-1.1879,-1.2262,-1.2722,-1.3017,-1.3361,-1.3864,-1.481,-1.5462,-1.5788,-1.5856,-1.5856,-1.5798,-1.5979,-1.6079,-1.5946,-1.6123,-1.6133,-1.6033,-1.5826,-1.5556,-1.5196,-1.507,-1.4725,-1.4279,-1.4498,-1.4434,-1.4295,-1.4577,-1.4721,-1.4721,-1.4641,-1.4569,-1.4497,-1.4497,-1.4425,-1.4281,-1.4281,-1.4281,-1.4209,-1.4072,-1.4,-1.3855,-1.363,-1.3637,-1.3637,-1.3557,-1.3704,-1.3777,-1.3933,-1.4026,-1.4099,-1.4099,-1.4109,-1.409,-1.3856,-1.3987,-1.3947,-1.3796,-1.3507,-1.3358,-1.3206,-1.3353,-1.346,-1.346,-1.3721,-1.3854,-1.3734,-1.3941,-1.3951,-1.3651,-1.3494,-1.353,-1.3655,-1.3632,-1.3609,-1.373,-1.3737,-1.3568,-1.3228,-1.3143,-1.2966,-1.2705,-1.2875,-1.2765,-1.2367,-1.2188,-1.2129,-0.7062,-0.7143,-0.703,-0.6309,-0.5643,-0.5018,-0.4319,-0.3721,-0.3468,-0.3807,-0.3978,0.0,0.0,0.0,-0.45,-0.4643,0.0,-0.4785,-0.4922,-0.5396,-0.6497,-0.8573,-0.8984,-0.9484,-1.0419,-1.077,-1.1151,-1.1637,-1.1964,-1.2436,-1.3099,-1.4141,-1.4916,-1.5311,-1.5565,-1.5624,-1.5498,-1.5744,-1.5782,-1.5771,-1.5963,-1.6007,-1.585,-1.5655,-1.5363,-1.5062,-1.4864,-1.4569,-1.4205,-1.4466,-1.4348,-1.4135,-1.4395,-1.4489,-1.4497,-1.4497,-1.4497,-1.4353,-1.4353,-1.4209,-1.4129,-1.4129,-1.4129,-1.4057,-1.379,-1.3717,-1.3645,-1.3273,-1.3346,-1.3441,-1.3454,-1.365,-1.3921,-1.4008,-1.4207,-1.4281,-1.4187,-1.4356,-1.4419,-1.409,-1.4255,-1.4314,-1.4166,-1.3885,-1.3595,-1.3447,-1.3627,-1.3768,-1.3768,-1.3955,-1.4088,-1.4088,-1.4088,-1.3997,-1.3737,-1.3548,-1.3309,-1.3238,-1.3385,-1.3489,-1.3277,-1.3438,-1.3398,-1.3143,-1.3052,-1.2875,-1.2705,-1.2881,-1.2875,-1.2699,-1.2523,-1.2334,-0.7115,-0.7328,-0.7449,-0.6997,-0.6293,-0.5563,-0.5152,-0.4243,-0.3523,-0.3613,-0.3855,-0.4162,-0.4359,-0.4504,0.0,0.0,-0.4303,0.0,0.0,-0.4593,-0.5131,-0.593,-0.6825,-0.7638,-0.824,-0.8331,-0.8828,-1.0094,-1.0306,-1.0936,-1.2197,-1.3233,-1.4048,-1.443,-1.4946,-1.5156,-1.5029,-1.5285,-1.544,-1.5393,-1.548,-1.5409,-1.5204,-1.5007,-1.4792,-1.4641,-1.4641,-1.4561,-1.441,-1.4425,-1.4274,-1.4114,-1.4122,-1.4129,-1.4129,-1.4353,-1.4425,-1.4353,-1.4201,-1.4129,-1.4129,-1.4129,-1.4129,-1.4065,-1.3637,-1.3499,-1.3492,-1.3273,-1.32,-1.3345,-1.3812,-1.3809,-1.366,-1.4044,-1.3968,-1.3954,-1.4272,-1.4186,-1.4153,-1.4384,-1.4384,-1.4314,-1.4166,-1.4068,-1.4062,-1.4055,-1.4068,-1.4075,-1.4075,-1.4082,-1.4088,-1.4088,-1.4088,-1.3997,-1.3737,-1.373,-1.3523,-1.2997,-1.3233,-1.3264,-1.3004,-1.3084,-1.3143,-1.3137,-1.2875,-1.2705,-1.2705,-1.2705,-1.2705,-1.2699,-1.2689,-1.2618,-0.9712,-0.9625,-0.9425,-0.864,-0.7868,-0.723,-0.669,-0.6021,-0.5457,-0.5179,-0.5523,-0.5654,-0.4815,-0.4841,0.0,0.0,0.0,-0.4088,0.0,-0.4447,-0.4933,-0.5333,-0.6298,-0.7183,-0.7686,-0.8022,-0.8483,-0.9193,-0.9547,-1.0215,-1.1205,-1.194,-1.2834,-1.3855,-1.4289,-1.4828,-1.5368,-1.5369,-1.5444,-1.5619,-1.554,-1.5284,-1.4999,-1.4935,-1.4721,-1.4497,-1.4497,-1.4353,-1.4209,-1.4209,-1.4129,-1.4129,-1.4281,-1.4281,-1.4281,-1.4209,-1.4137,-1.4008,-1.3783,-1.3783,-1.3855,-1.3783,-1.371,-1.3637,-1.3419,-1.3262,-1.3126,-1.3119,-1.3196,-1.3453,-1.3635,-1.3895,-1.4071,-1.4184,-1.4363,-1.4421,-1.4414,-1.433,-1.4237,-1.4243,-1.4159,-1.4166,-1.4088,-1.4088,-1.4088,-1.4088,-1.4088,-1.4088,-1.4088,-1.4088,-1.4088,-1.4088,-1.4088,-1.384,-1.3304,-1.2953,-1.2801,-1.2814,-1.2991,-1.2997,-1.2566,-1.2909,-1.3052,-1.2881,-1.279,-1.2705,-1.2705,-1.2705,-1.2534,-1.2272,-1.2269,-1.2281,-1.158,-1.1295,-1.0857,-0.9701,-0.9048,-0.8423,-0.7681,-0.7245,-0.6897,-0.6487,-0.6697,-0.6678,-0.5823,-0.5543,-0.5204,0.0,0.0,0.0,0.0,-0.4285,-0.4704,-0.5011,-0.5846,-0.654,-0.6867,-0.7308,-0.7776,-0.8282,-0.8677,-0.9264,-1.0171,-1.1107,-1.2106,-1.2976,-1.3904,-1.4718,-1.5392,-1.5241,-1.5244,-1.5545,-1.5312,-1.507,-1.4792,-1.4721,-1.4577,-1.4425,-1.4353,-1.4209,-1.3992,-1.3992,-1.392,-1.392,-1.4,-1.4072,-1.4072,-1.4137,-1.392,-1.3717,-1.3645,-1.3719,-1.3896,-1.3815,-1.3741,-1.3763,-1.35,-1.3285,-1.3224,-1.3174,-1.3345,-1.3523,-1.3712,-1.3971,-1.4151,-1.4337,-1.4428,-1.4489,-1.4321,-1.4321,-1.4243,-1.4166,-1.4088,-1.4088,-1.4088,-1.4088,-1.4088,-1.4088,-1.4088,-1.4088,-1.4088,-1.4088,-1.4088,-1.4088,-1.4088,-1.38,-1.3168,-1.2738,-1.2507,-1.25,-1.2675,-1.2649,-1.2312,-1.2734,-1.2881,-1.2705,-1.2705,-1.2705,-1.2705,-1.2619,-1.2448,-1.2106,-1.1935,-1.2026]},{"header":{"parameterUnit":"m.s-1","parameterCategory":1,"la1":30.6,"la2":29.2853,"lo1":-89.7004,"lo2":-87.6739,"dy":0.0162,"dx":0.0183,"nx":112,"ny":82,"refTime":"2023-08-24T12:00:00:Z","depth":0,"parameterNumber":3,"parameterNumberName":"V-component_of_WINDS"},"data":[0.0,0.0,0.0,0.0,0.0,0.0,0.0,0.0,0.0,0.0,0.0,0.0,0.0,0.0,0.0,0.0,0.0,0.0,0.0,0.0,0.0,0.0,0.0,0.0,0.0,0.0,0.0,0.0,0.0,0.0,0.0,0.0,0.0,0.0,0.0,0.0,0.0,0.0,0.0,0.0,0.0,0.0,0.0,0.0,0.0,0.0,0.0,0.0,0.0,0.0,0.0,0.0,0.0,0.0,0.0,0.0,0.0,0.0,0.0,0.0,0.0,0.0,0.0,0.0,0.0,0.0,0.0,0.0,0.0,0.0,0.0,0.0,0.0,0.0,0.0,0.0,0.0,0.0,0.0,0.0,0.0,0.0,0.0,0.0,0.0,0.0,0.0,0.0,0.0,0.0,-0.8365,-0.5012,0.0677,0.5127,0.7359,0.8668,0.9512,0.9694,0.0,0.0,0.0,0.0,0.0,0.0,0.0,0.0,0.0,0.0,0.0,0.0,0.0,0.0,0.0,0.0,0.0,0.0,0.0,0.0,0.0,0.0,0.0,0.0,0.0,0.0,0.0,0.0,0.0,0.0,0.0,0.0,0.0,0.0,0.0,0.0,0.0,0.0,0.0,0.0,0.0,0.0,0.0,0.0,0.0,0.0,0.0,0.0,0.0,0.0,0.0,0.0,0.0,0.0,0.0,0.0,0.0,0.0,0.0,0.0,0.0,0.0,0.0,0.0,0.0,0.0,0.0,0.0,0.0,0.0,0.0,0.0,0.0,0.0,0.0,0.0,0.0,0.0,0.0,0.0,0.0,0.0,0.0,0.0,0.0,0.0,0.0,0.0,0.0,0.0,0.0,0.0,0.0,0.0,0.0,0.0,0.0,0.0,0.0,0.0,0.0,0.0,0.0,0.0,-0.4929,-0.0401,0.2567,0.5286,0.7935,0.9223,1.0009,1.0262,0.0,0.0,0.0,0.0,0.0,0.0,0.0,0.0,0.0,0.0,0.0,0.0,0.0,0.0,0.0,0.0,0.0,0.0,0.0,0.0,0.0,0.0,0.0,0.0,0.0,0.0,0.0,0.0,0.0,0.0,0.0,0.0,0.0,0.0,0.0,0.0,0.0,0.0,0.0,0.0,0.0,0.0,0.0,0.0,0.0,0.0,0.0,0.0,0.0,0.0,0.0,0.0,0.0,0.0,0.0,0.0,0.0,0.0,0.0,0.0,0.0,0.0,0.0,0.0,0.0,0.0,0.0,0.0,0.0,0.0,0.0,0.0,0.0,0.0,0.0,0.0,0.0,0.0,0.0,0.0,0.0,0.0,0.0,0.0,0.0,0.0,0.0,0.0,0.0,0.0,0.0,0.0,0.0,0.0,0.0,0.0,0.0,0.0,0.0,0.0,0.0,0.0,0.0,-0.6164,-0.2424,0.1552,0.394,0.6019,0.7916,0.9566,1.0241,0.9668,0.9046,0.0,0.0,0.0,0.0,0.0,0.0,0.0,0.0,0.0,0.0,0.0,0.0,0.0,0.0,0.0,0.0,0.0,0.0,0.0,0.0,0.0,0.0,0.0,0.0,0.0,0.0,0.0,0.0,0.0,0.0,0.0,0.0,0.0,0.0,0.0,0.0,0.0,0.0,0.0,0.0,0.0,0.0,0.0,0.0,0.0,0.0,0.0,0.0,0.0,0.0,0.0,0.0,0.0,0.0,0.0,0.0,0.0,0.0,0.0,0.0,0.0,0.0,0.0,0.0,0.0,0.0,0.0,0.0,0.0,0.0,0.0,0.0,0.0,0.0,0.0,0.0,0.0,0.0,0.0,0.0,0.0,0.0,0.0,0.0,0.0,0.0,0.0,0.0,0.0,0.0,0.0,0.0,0.0,0.0,0.0,0.0,0.0,0.0,0.0,0.0,0.0,0.0,-0.3644,-0.0638,0.2534,0.4776,0.6626,0.8002,0.9575,1.0149,0.9297,0.889,0.0,0.0,0.0,0.0,0.0,0.0,0.0,0.0,0.0,0.0,0.0,0.0,0.0,0.0,0.0,0.0,0.0,0.0,0.0,0.0,0.0,0.0,0.0,0.0,0.0,0.0,0.0,0.0,0.0,0.0,0.0,0.0,0.0,0.0,0.0,0.0,0.0,0.0,0.0,0.0,0.0,0.0,0.0,0.0,0.0,0.0,0.0,0.0,0.0,0.0,0.0,0.0,0.0,0.0,0.0,0.0,0.0,0.0,0.0,0.0,0.0,0.0,0.0,0.0,0.0,0.0,0.0,0.0,0.0,0.0,0.0,0.0,0.0,0.0,0.0,0.0,0.0,0.0,0.0,0.0,0.0,0.0,0.0,0.0,0.0,0.0,0.0,0.0,0.0,0.0,0.0,0.0,0.0,0.0,0.0,0.0,0.0,0.0,0.0,0.0,0.0,0.0,-0.1961,0.0277,0.3034,0.4942,0.6747,0.8586,0.9085,0.9481,0.9914,0.876,0.0,0.0,0.0,0.0,0.0,0.0,0.0,0.0,0.0,0.0,0.0,0.0,0.0,0.0,0.0,0.0,0.0,0.0,0.0,0.0,0.0,0.0,0.0,0.0,0.0,0.0,0.0,0.0,0.0,0.0,0.0,0.0,0.0,0.0,0.0,0.0,0.0,0.0,0.0,0.0,0.0,0.0,0.0,0.0,0.0,0.0,0.0,0.0,0.0,0.0,0.0,0.0,0.0,0.0,0.0,0.0,0.0,0.0,0.0,0.0,0.0,0.0,0.0,0.0,0.0,0.0,0.0,0.0,0.0,0.0,0.0,0.0,0.0,0.0,0.0,0.0,0.0,0.0,0.0,0.0,0.0,0.0,0.0,0.0,0.0,0.0,0.0,0.0,0.0,0.0,0.0,0.0,0.0,0.0,0.0,0.0,0.0,0.0,0.0,0.0,0.0,0.0,-0.0485,0.2169,0.4459,0.5761,0.7145,0.8859,0.9474,0.9469,0.8728,0.0,0.0,0.0,0.0,0.0,0.0,0.0,0.0,0.0,0.0,0.0,0.0,0.0,0.0,0.0,0.0,0.0,0.0,0.0,0.0,0.0,0.0,0.0,0.0,0.0,0.0,0.0,0.0,0.0,0.0,0.0,0.0,0.0,0.0,0.0,0.0,0.0,0.0,0.0,0.0,0.0,0.0,0.0,0.0,0.0,0.0,0.0,0.0,0.0,0.0,0.0,0.0,0.0,0.0,0.0,0.0,0.0,0.0,0.0,0.0,0.0,0.0,0.0,0.0,0.0,0.0,0.0,0.0,0.0,0.0,0.0,0.0,0.0,0.0,0.0,0.0,0.0,0.0,0.0,0.0,0.0,0.0,0.0,0.0,0.0,0.0,0.0,0.0,0.0,0.0,0.0,0.0,0.0,0.0,0.0,0.0,0.0,0.0,0.0,0.0,0.0,0.0,-0.2194,0.0793,0.3493,0.5125,0.6196,0.7432,0.8947,0.9529,0.9389,0.8464,0.0,0.0,0.0,0.0,0.0,0.0,0.0,0.0,0.0,0.0,0.0,0.0,0.0,0.0,0.0,0.0,0.0,0.0,0.0,0.0,0.0,0.0,0.0,0.0,0.0,0.0,0.0,0.0,0.0,0.0,0.0,0.0,0.0,0.0,0.0,0.0,0.0,0.0,0.0,0.0,0.0,0.0,0.0,0.0,0.0,0.0,0.0,0.0,0.0,0.0,0.0,0.0,0.0,0.0,0.0,0.0,0.0,0.0,0.0,0.0,0.0,0.0,0.0,0.0,0.0,0.0,0.0,0.0,0.0,0.0,0.0,0.0,0.0,0.0,0.0,0.0,0.0,0.0,0.0,0.0,0.0,0.0,0.0,0.0,0.0,0.0,0.0,0.0,0.0,0.0,0.0,0.0,0.0,0.0,0.0,0.0,0.0,0.0,0.0,0.0,0.0,0.0,-0.0681,0.1884,0.3932,0.4734,0.614,0.7563,0.8918,0.9076,0.9208,0.0,0.0,0.0,0.0,0.0,0.0,0.0,0.0,0.0,0.0,0.0,0.0,0.0,0.0,0.0,0.0,0.0,0.0,0.0,0.0,0.0,0.0,0.0,0.0,0.0,0.0,0.0,0.0,0.0,0.0,0.0,0.0,0.0,0.0,0.0,0.0,0.0,0.0,0.0,0.0,0.0,0.0,0.0,0.0,0.0,0.0,0.0,0.0,0.0,0.0,0.0,0.0,0.0,0.0,0.0,0.0,0.0,0.0,0.0,0.0,0.0,0.0,0.0,0.0,0.0,0.0,0.0,0.0,0.0,0.0,0.0,0.0,0.0,0.0,0.0,0.0,0.0,0.0,0.0,0.0,0.0,0.0,0.0,0.0,0.0,0.0,0.0,0.0,0.0,0.0,0.0,0.0,0.0,0.0,0.0,0.0,0.0,0.0,0.0,0.0,0.0,0.0,0.0,0.0076,0.2266,0.4288,0.5918,0.6706,0.7782,0.9438,0.9501,0.9685,1.0145,0.0,0.0,0.0,0.0,0.0,0.0,0.0,0.0,0.0,0.0,0.0,0.0,0.0,0.0,0.0,0.0,0.0,0.0,0.0,0.0,0.0,0.0,0.0,0.0,0.0,0.0,0.0,0.0,0.0,0.0,0.0,0.0,0.0,0.0,0.0,0.0,0.0,0.0,0.0,0.0,0.0,0.0,0.0,0.0,0.0,0.0,0.0,0.0,0.0,0.0,0.0,0.0,0.0,0.0,0.0,0.0,0.0,0.0,0.0,0.0,0.0,0.0,0.0,0.0,0.0,0.0,0.0,0.0,0.0,0.0,0.0,0.0,0.0,0.0,0.0,0.0,0.0,0.0,0.0,0.0,0.0,0.0,0.0,0.0,0.0,0.0,0.0,0.0,0.0,0.0,0.0,0.0,0.0,0.0,0.0,0.0,0.0,0.0,0.0,0.0,0.0,0.0,0.0767,0.2852,0.4848,0.6442,0.7177,0.8092,0.9567,0.9703,0.9899,1.0221,0.0,0.0,0.0,0.0,0.0,0.0,0.0,0.0,0.0,0.0,0.0,0.0,0.0,0.0,0.0,0.0,0.0,0.0,0.0,0.0,0.0,0.0,0.0,0.0,0.0,0.0,0.0,0.0,0.0,0.0,0.0,0.0,0.0,0.0,0.0,0.0,0.0,0.0,0.0,0.0,0.0,0.0,0.0,0.0,0.0,0.0,0.0,0.0,0.0,0.0,0.0,0.0,0.0,0.0,0.0,0.0,0.0,0.0,0.0,0.0,0.0,0.0,0.0,0.0,0.0,0.0,0.0,0.0,0.0,0.0,0.0,0.0,0.0,0.0,0.0,0.0,0.0,0.0,0.0,0.0,0.0,0.0,0.0,0.0,0.0,0.0,0.0,0.0,0.0,0.0,0.0,0.0,0.0,0.0,0.0,0.0,0.0,0.0,0.0,0.0,0.0,0.0,0.139,0.358,0.555,0.6704,0.7596,0.8441,0.9419,0.9784,0.997,0.9988,0.0,0.0,0.0,0.0,0.0,0.0,0.0,0.0,0.0,0.0,0.0,0.0,0.0,0.0,0.0,0.0,0.0,0.0,0.0,0.0,0.0,0.0,0.0,0.0,0.0,0.0,0.0,0.0,0.0,0.0,0.0,0.0,0.0,0.0,0.0,0.0,0.0,0.0,0.0,0.0,0.0,0.0,0.0,0.0,0.0,0.0,0.0,0.0,0.0,0.0,0.0,0.0,0.0,0.0,0.0,0.0,0.0,0.0,0.0,0.0,0.4447,0.4668,0.0,0.0,0.0,0.0,0.0,0.0,0.0,0.0,0.0,0.0,0.0,0.0,0.0,0.0,0.0,0.0,0.0,0.0,0.0,0.0,0.0,0.0,0.0,0.0,0.0,0.0,0.0,0.0,0.0,0.0,0.0,0.0,0.0,0.0,0.0,0.0,0.0,0.0,0.0,0.0,0.2452,0.4466,0.6331,0.782,0.8286,0.8764,0.9434,0.969,1.0039,1.0517,1.0677,0.0,0.0,0.0,0.0,0.0,0.0,0.0,0.0,0.0,0.0,0.0,0.0,0.0,0.0,0.0,0.0,0.0,0.0,0.0,0.0,0.0,0.0,0.0,0.0,0.0,0.0,0.0,0.0,0.0,0.0,0.0,0.0,0.0,0.0,0.0,0.0,0.0,0.0,0.0,0.0,0.0,0.0,0.0,0.0,0.0,0.0,0.0,0.0,0.0,0.0,0.0,0.0,0.0,0.0,0.0,0.0,0.0,0.0,0.0,0.4141,0.449,0.0,0.0,0.0,0.0,0.0,0.0,0.0,0.0,0.0,0.0,0.0,0.0,0.0,0.0,0.0,0.0,0.0,0.0,0.0,0.0,0.0,0.0,0.0,0.0,0.0,0.0,0.0,0.0,0.0,0.0,0.0,0.0,0.0,0.0,0.0,0.0,0.0,0.0,0.0,0.0,0.3464,0.5529,0.7392,0.8623,0.904,0.9392,0.9841,0.9878,1.0118,1.0692,1.0971,0.0,0.0,0.0,0.0,0.0,0.0,0.0,0.0,0.0,0.0,0.0,0.0,0.0,0.0,0.0,0.0,0.0,0.0,0.0,0.0,0.0,0.0,0.0,0.0,0.0,0.0,0.0,0.0,0.0,0.0,0.0,0.0,0.0,0.0,0.0,0.0,0.0,0.0,0.0,0.0,0.0,0.0,0.0,0.0,0.0,0.0,0.0,0.0,0.0,0.0,0.0,0.0,0.0,0.1227,0.1853,0.2689,0.2515,0.2466,0.2593,0.4024,0.4324,0.3892,0.4683,0.0,0.0,0.0,0.0,0.0,0.0,0.0,0.0,0.0,0.0,0.0,0.0,0.0,0.0,0.0,0.0,0.0,0.0,0.0,0.0,0.0,0.0,0.6229,0.5452,0.5432,0.5638,0.5875,0.0,0.0,0.0,0.0,0.0,0.0,0.0,0.0,0.0,0.0,0.0,0.4581,0.6606,0.8364,0.9365,0.9738,1.001,1.0294,1.0119,1.0224,1.0669,1.0989,1.1442,0.0,0.0,0.0,0.0,0.0,0.0,0.0,0.0,0.0,0.0,0.0,0.0,0.0,0.0,0.0,0.0,0.0,0.0,0.0,0.0,0.0,0.0,0.0,0.0,0.0,0.0,0.0,0.0,0.0,0.0,0.0,0.0,0.6348,0.638,0.0,0.0,0.0,0.0,0.0,0.0,0.0,0.0,0.0,0.0,0.0,0.0,0.0,-0.0916,-0.0346,0.0323,0.1,0.167,0.1782,0.2083,0.261,0.2648,0.2772,0.305,0.3669,0.0,0.3598,0.4106,0.0,0.0,0.0,0.0,0.0,0.0,0.0,0.0,0.0,0.0,0.0,0.0,0.0,0.0,0.0,0.0,0.0,0.0,0.0,0.0,0.0,0.0,0.6342,0.5756,0.5901,0.6226,0.6386,0.6253,0.6264,0.6699,0.7225,0.7414,0.0,0.0,0.0,0.0,0.0,0.0,0.5972,0.7372,0.8812,1.0023,1.0202,1.0272,1.0294,1.0166,1.0153,1.027,1.0607,1.118,1.206,1.2967,0.0,0.0,0.0,0.0,0.0,0.0,0.0,0.0,0.0,0.0,0.0,0.0,0.0,0.0,0.0,0.0,0.0,0.0,0.0,0.0,0.0,0.0,0.0,0.0,0.0,0.0,0.0,0.0,0.0,0.7109,0.556,0.4957,0.5031,0.4811,0.0,0.0,0.0,0.0,0.0,0.0,0.0,0.0,0.0,-0.1711,-0.032,0.063,0.1149,0.1695,0.2214,0.2698,0.2829,0.3059,0.332,0.339,0.3502,0.3622,0.3935,0.4104,0.413,0.4282,0.446,0.4685,0.0,0.0,0.0,0.0,0.6412,0.6884,0.67,0.7054,0.7656,0.7993,0.0,0.0,0.0,0.0,0.0,0.0,0.0,0.6673,0.6719,0.6549,0.6362,0.6322,0.6328,0.6416,0.6888,0.6787,0.6686,0.7169,0.7586,0.7777,0.7464,0.7023,0.0,0.0,0.0,0.6488,0.7204,0.8408,0.9518,1.036,1.0607,1.0611,1.0466,1.0383,1.0349,1.0489,1.0627,1.1008,1.1729,1.2566,1.3141,0.0,0.0,0.0,0.0,0.0,0.0,0.0,0.0,0.0,0.0,0.0,0.0,0.0,0.0,0.0,0.0,0.0,0.0,0.0,0.0,0.0,0.0,0.0,0.0,0.0,0.0,0.0,0.0,0.5701,0.4147,0.3071,0.3833,0.398,0.0,0.0,0.0,0.0,0.0,0.0,-0.1283,-0.0973,-0.0467,0.0228,0.1177,0.1856,0.2261,0.2704,0.3125,0.3483,0.3672,0.3877,0.4046,0.4152,0.42,0.4238,0.4528,0.4723,0.4759,0.4661,0.4627,0.4672,0.5007,0.5451,0.5863,0.5605,0.6081,0.6769,0.6278,0.6606,0.7318,0.7516,0.7857,0.8174,0.8229,0.0,0.0,0.0,0.0,0.6635,0.7068,0.6973,0.6787,0.6954,0.6839,0.6846,0.737,0.7335,0.7335,0.7712,0.807,0.8198,0.7958,0.774,0.0,0.6767,0.7128,0.7706,0.8327,0.9284,1.0061,1.0573,1.0806,1.0818,1.0624,1.0524,1.0535,1.0637,1.0627,1.0867,1.1404,1.2175,1.2851,1.3381,0.0,0.0,0.0,0.0,0.0,0.0,0.0,0.0,0.0,0.0,0.0,0.0,0.0,0.0,0.0,0.0,0.0,0.0,0.0,0.0,0.0,0.0,0.0,0.0,0.0,0.0,0.0,0.0,0.0,0.067,0.1949,0.0,0.0,0.0,0.0,0.1706,0.0551,0.0068,0.0536,0.0927,0.1278,0.1509,0.2103,0.2555,0.2749,0.3116,0.3428,0.3672,0.3826,0.4089,0.4474,0.4687,0.4754,0.4786,0.5445,0.5531,0.5179,0.5023,0.513,0.538,0.5522,0.5818,0.6182,0.6311,0.6501,0.6751,0.6908,0.7058,0.7203,0.7287,0.7393,0.7452,0.7525,0.7154,0.0,0.0,0.7248,0.7079,0.7554,0.7799,0.7833,0.7558,0.7655,0.7787,0.7712,0.7919,0.8126,0.8021,0.8267,0.8488,0.8472,0.0,0.8874,0.8265,0.8655,0.9073,0.9324,0.9757,1.0237,1.0564,1.0655,1.0696,1.0678,1.0524,1.0461,1.0526,1.0458,1.0649,1.118,1.1872,1.266,1.3644,1.4359,0.0,0.0,0.0,0.0,0.0,0.0,0.0,0.0,0.0,0.0,0.0,0.0,0.0,0.0,0.0,0.0,0.0,0.0,0.0,0.0,0.0,0.0,0.0,0.0,0.0,0.0,0.0,0.0,0.1139,0.2119,0.0,0.2125,0.2515,0.2504,0.1774,0.1409,0.1243,0.1329,0.1811,0.2179,0.242,0.2935,0.3385,0.372,0.3973,0.4312,0.4618,0.4809,0.5071,0.5361,0.5577,0.5706,0.5714,0.6064,0.6121,0.6025,0.599,0.5833,0.5664,0.6181,0.6401,0.6512,0.6814,0.7011,0.7182,0.728,0.7614,0.8021,0.8415,0.8324,0.8148,0.8343,0.807,0.7732,0.8063,0.7853,0.7673,0.8121,0.8111,0.8021,0.8103,0.8028,0.7953,0.816,0.8152,0.8152,0.8529,0.8659,0.878,0.8915,0.8928,0.9007,0.9181,0.909,0.9237,0.9796,0.9996,1.0223,1.048,1.064,1.0667,1.0507,1.0426,1.0342,1.0184,1.0397,1.0603,1.0729,1.157,1.2236,1.2728,1.3529,1.4167,0.0,0.0,0.0,0.0,0.0,0.0,0.0,0.0,0.0,0.0,0.0,0.0,0.0,0.0,0.0,0.0,0.0,0.0,0.0,0.0,0.0,0.0,0.0,0.0,0.0,0.2219,0.1483,0.1648,0.2329,0.2612,0.227,0.2904,0.2972,0.2123,0.2125,0.2181,0.2131,0.2613,0.2995,0.331,0.3665,0.4022,0.4391,0.4617,0.49,0.5193,0.5496,0.5712,0.5798,0.6179,0.6349,0.6264,0.6532,0.666,0.6689,0.6859,0.6678,0.635,0.6713,0.6767,0.6699,0.7065,0.7305,0.7435,0.7702,0.807,0.8488,0.8822,0.8732,0.8488,0.87,0.8529,0.8316,0.8521,0.8406,0.8283,0.857,0.848,0.8357,0.8521,0.8357,0.8234,0.8553,0.8431,0.8398,0.8903,0.9024,0.9105,0.9346,0.9337,0.9506,1.0196,0.9826,0.9801,1.0643,1.0478,1.0387,1.0577,1.0762,1.0811,1.0755,1.0754,1.0722,1.0627,1.0805,1.083,1.0697,1.1384,1.1859,1.2046,1.3095,1.374,1.3973,0.0,0.0,0.0,0.0,0.0,0.0,0.0,0.0,0.0,0.0,0.0,0.0,0.0,0.0,0.0,0.0,0.0,0.0,0.0,0.0,0.0,0.0,0.0,0.3006,0.2299,0.1918,0.1978,0.2399,0.2676,0.2537,0.294,0.3079,0.2766,0.273,0.2822,0.3028,0.3429,0.3781,0.4081,0.427,0.4475,0.4792,0.4934,0.5152,0.5328,0.5798,0.5927,0.5761,0.6422,0.6592,0.6471,0.6992,0.716,0.7063,0.7545,0.7663,0.7482,0.7147,0.6895,0.6772,0.7087,0.7322,0.7515,0.8173,0.8447,0.8521,0.8455,0.8414,0.8414,0.848,0.8488,0.8455,0.8741,0.8814,0.8822,0.8911,0.892,0.8871,0.8724,0.8724,0.8716,0.878,0.8748,0.8805,0.9136,0.9297,0.9417,0.9674,1.0019,1.0517,1.1257,1.0856,0.0,1.1842,1.1238,1.074,1.0823,1.102,1.1225,1.1531,1.146,1.1521,1.1762,1.1588,1.1406,1.1115,1.1376,1.1616,1.1823,1.3169,1.3795,1.3675,0.0,0.0,0.0,0.0,0.0,0.0,0.0,0.0,0.0,0.0,0.0,0.0,0.0,0.0,0.0,0.0,0.0,0.0,0.0,0.0,0.0,0.3922,0.3111,0.2285,0.1901,0.1751,0.1913,0.2468,0.2958,0.3286,0.3434,0.347,0.3417,0.342,0.348,0.3656,0.4056,0.4215,0.4165,0.4711,0.497,0.4868,0.5434,0.5817,0.5964,0.6038,0.6292,0.6641,0.6739,0.6909,0.7231,0.7579,0.7697,0.7773,0.8077,0.8209,0.8118,0.7814,0.7672,0.7647,0.7762,0.7964,0.827,0.8626,0.8822,0.8854,0.8862,0.8732,0.8643,0.8814,0.8822,0.883,0.9088,0.9248,0.9328,0.9328,0.9248,0.9128,0.8967,0.8895,0.8822,0.8756,0.8846,0.8975,0.9248,0.9866,1.0221,0.9769,0.9911,1.0175,1.0435,1.0408,1.0614,1.1243,1.1324,1.1387,1.1689,1.1973,1.2142,1.2205,1.2013,1.1823,1.1659,1.1693,1.1658,1.1477,1.1965,1.2304,1.251,1.2864,1.3079,0.0,0.0,0.0,0.0,0.0,0.0,0.0,0.0,0.0,0.0,0.0,0.0,0.0,0.0,0.0,0.0,0.0,0.0,0.0,0.0,0.0,0.0,0.342,0.2692,0.2233,0.1961,0.1972,0.2424,0.2957,0.3451,0.391,0.3963,0.4016,0.4092,0.4092,0.414,0.4276,0.4583,0.4667,0.4464,0.5032,0.5287,0.5146,0.5696,0.6115,0.6428,0.653,0.6785,0.7189,0.727,0.7481,0.7807,0.807,0.8193,0.8308,0.857,0.8659,0.8618,0.0,0.0,0.0,0.0,0.8399,0.8773,0.8903,0.9086,0.9271,0.9067,0.8935,0.8846,0.9016,0.9024,0.8984,0.9297,0.9457,0.9533,0.9776,0.9822,0.9781,0.9667,0.9626,0.9582,0.9395,0.9573,0.9844,1.0217,1.0869,0.0,1.1023,1.1024,1.1155,1.1511,1.1419,1.1542,1.2257,1.2194,1.2214,1.2521,1.2616,1.2817,1.313,1.2861,0.0,0.0,0.0,1.2389,1.1947,1.2073,0.0,0.0,0.0,1.2792,1.3066,1.333,0.0,0.0,1.3429,1.3147,0.0,0.0,0.0,0.0,0.0,0.0,0.0,0.0,0.0,0.0,0.0,0.0,0.0,0.0,0.0,0.0,0.3492,0.2712,0.2577,0.2428,0.256,0.3222,0.3677,0.4101,0.4526,0.4543,0.4583,0.4661,0.4661,0.4709,0.4845,0.5106,0.0,0.0,0.0,0.5543,0.5561,0.5941,0.636,0.6803,0.7085,0.7342,0.7572,0.79,0.8146,0.8341,0.8513,0.8675,0.8797,0.8975,0.9096,0.9056,0.8935,0.8573,0.8196,0.8405,0.8781,0.9114,0.9065,0.0,0.0,0.9168,0.9016,0.9056,0.9177,0.9136,0.9145,0.9529,0.9667,0.9839,1.0359,1.0587,1.0681,1.0681,1.0634,1.0625,1.0498,1.0674,1.1041,1.1654,1.21,1.2488,1.2786,1.2701,1.2765,1.3423,1.3076,1.3064,1.3958,1.3463,1.3125,1.339,1.3284,0.0,1.4168,1.3906,1.3784,1.4011,1.3867,1.3421,1.2675,1.2241,1.2148,1.238,1.2618,1.2909,1.328,1.348,1.3628,1.3795,1.2981,1.2767,0.0,0.0,0.0,0.0,0.0,0.0,0.0,0.0,0.0,0.0,0.0,0.0,0.0,0.0,0.0,0.3621,0.3257,0.2973,0.2838,0.3294,0.3577,0.346,0.4148,0.4669,0.4879,0.4971,0.4971,0.5014,0.4932,0.5029,0.5198,0.5366,0.5387,0.5284,0.5955,0.6174,0.6003,0.6628,0.7141,0.7509,0.7393,0.0,0.8529,0.8401,0.859,0.911,0.9239,0.9279,0.9199,0.9466,0.9594,0.9616,0.9328,0.9156,0.9046,0.9094,0.9187,0.9248,0.9177,0.9261,0.9345,0.9203,0.9208,0.9248,0.9279,0.9448,0.0,1.0378,1.0719,1.1114,1.1689,1.1842,1.1842,1.1651,1.1256,1.0996,1.1367,1.1219,1.1254,1.1953,1.2829,1.351,1.3793,1.3279,1.288,1.302,1.2986,1.318,1.3838,1.3881,1.4026,1.453,1.4842,1.5033,1.506,1.4974,1.4862,1.4767,1.4767,1.4525,1.4034,1.4042,1.3859,1.348,1.3585,1.3684,1.3749,1.3861,1.3881,1.3874,1.3559,1.3474,0.0,0.0,0.0,0.0,0.0,0.0,0.0,0.0,0.0,0.0,0.0,0.5238,0.5197,0.0,0.3756,0.3462,0.3331,0.3303,0.3303,0.3647,0.3899,0.3919,0.4596,0.5149,0.5399,0.5356,0.5358,0.5455,0.5396,0.5368,0.5465,0.5689,0.5772,0.5648,0.6377,0.6632,0.6389,0.7175,0.7704,0.7964,0.7933,0.8342,0.9062,0.8998,0.9172,0.9567,0.9725,0.9686,0.9567,0.9813,0.9941,0.9932,0.9843,0.9725,0.9646,0.9567,0.9694,0.9799,0.9529,0.9663,0.9862,0.9569,0.9536,0.9646,0.9536,0.9704,0.9988,1.0347,1.0802,1.1224,1.157,1.1964,1.2236,1.2047,1.1953,1.1997,1.2115,1.2212,1.2456,1.2936,1.3685,1.4351,1.4663,1.4435,1.4221,1.4221,1.4209,1.4387,1.4727,1.4873,1.5098,1.5421,1.5453,1.5548,1.5736,1.5557,1.5323,1.5039,1.5041,1.475,1.4024,1.4362,1.4328,1.3854,1.3888,1.3908,1.396,1.4078,1.4078,1.396,1.396,1.3894,0.0,0.0,0.0,0.0,0.0,0.0,0.0,0.4075,0.3942,0.4475,0.3995,0.3601,0.3918,0.3798,0.3569,0.3467,0.3532,0.363,0.3733,0.3883,0.4111,0.4426,0.4989,0.5492,0.583,0.5793,0.5795,0.5932,0.5905,0.5848,0.5774,0.6115,0.6259,0.6175,0.6783,0.7066,0.6939,0.7606,0.8077,0.8349,0.8553,0.8918,0.9478,0.9597,0.9765,0.9971,1.0079,1.0088,0.9971,1.0079,1.0157,1.0196,1.0312,1.0283,1.0166,0.9971,1.0139,1.0375,0.9984,1.0148,1.0447,1.0099,1.0007,1.0078,1.0005,1.0047,1.0147,1.0342,1.0804,1.1324,1.1488,1.2145,1.2696,1.2552,1.2764,1.3023,1.2979,1.3281,1.3696,1.4049,1.4541,1.5006,1.5312,1.5468,1.5603,1.5558,1.5558,1.5614,1.5804,1.5848,1.5925,1.6044,1.5837,1.5847,1.6293,1.6078,1.579,1.5413,1.5531,1.5104,1.4025,1.4475,1.4515,1.3987,1.3974,1.4026,1.4084,1.4273,1.4273,1.413,1.4319,1.4203,0.569,0.5046,0.4182,0.441,0.4037,0.3675,0.0,0.3875,0.3856,0.4129,0.3815,0.3514,0.3556,0.3635,0.3607,0.3274,0.3667,0.3993,0.3891,0.439,0.4865,0.5069,0.5335,0.5649,0.6118,0.6386,0.6543,0.6434,0.6422,0.6422,0.6392,0.6543,0.6761,0.7036,0.7301,0.7585,0.7837,0.8062,0.8414,0.8935,0.9128,0.9478,1.0,1.0225,1.038,1.0505,1.0418,1.0428,1.0505,1.0418,1.0428,1.0544,1.0649,1.0725,1.0764,1.0467,1.0458,1.0537,1.0361,1.0458,1.0635,1.0854,1.0666,1.042,1.0904,1.0785,1.0634,1.1196,1.184,1.2457,1.291,1.345,1.3878,1.3943,1.3688,1.3606,1.4235,1.4116,1.4049,1.4654,1.5028,1.53,1.5513,1.5768,1.5913,1.578,1.5792,1.5836,1.6113,1.6156,1.6188,1.6349,1.6484,1.6612,1.6791,1.6782,1.676,1.6767,1.6879,1.6493,1.5417,1.5615,1.5265,1.4281,1.43,1.4383,1.4438,1.447,1.4515,1.4606,1.4637,1.4397,0.5326,0.4822,0.4228,0.4027,0.3546,0.3155,0.3336,0.3213,0.3156,0.3492,0.3386,0.3391,0.3916,0.3896,0.3858,0.3951,0.4118,0.4253,0.4242,0.4465,0.4796,0.5321,0.5743,0.6123,0.6416,0.6598,0.6679,0.6686,0.6726,0.6668,0.6577,0.6892,0.7196,0.7363,0.7739,0.8028,0.8308,0.8529,0.8854,0.9168,0.9448,0.9843,1.0273,1.0495,1.0697,1.0881,1.0659,1.0649,1.0764,1.0812,1.085,1.0888,1.105,1.1136,1.1136,1.0812,1.0899,1.1163,1.1123,1.1377,1.1727,1.1788,1.1716,1.1645,1.1798,1.1654,1.153,1.177,1.2408,1.292,1.2761,1.3476,1.4215,1.4069,1.4058,1.427,1.4801,1.4722,1.4721,1.5073,1.521,1.539,1.5768,1.5957,1.6088,1.6275,1.6231,1.6219,1.6362,1.6448,1.6547,1.6663,1.6791,1.6876,1.696,1.7099,1.704,1.6728,1.7126,1.6771,1.5381,1.5743,1.5437,1.4378,1.4493,1.4574,1.4624,1.4686,1.4732,1.4777,1.4842,1.4718,0.5389,0.4968,0.4536,0.4068,0.3472,0.3051,0.3164,0.2971,0.2884,0.3234,0.3168,0.33,0.4151,0.4118,0.4081,0.4403,0.4538,0.4576,0.4564,0.4666,0.4932,0.5598,0.6205,0.6642,0.681,0.6962,0.7053,0.698,0.7079,0.7072,0.6928,0.7327,0.7614,0.7731,0.8118,0.8447,0.8683,0.8967,0.9177,0.9408,0.9774,1.0127,1.0457,1.0725,1.0975,1.1158,1.0937,1.0926,1.1078,1.1164,1.1212,1.1287,1.1421,1.1496,1.1496,1.1212,1.1372,1.1752,1.1636,1.2024,1.2584,1.2373,1.2372,1.2383,1.2289,1.2084,1.1919,1.1947,1.2571,1.3133,1.2678,1.352,1.4413,1.425,1.453,1.488,1.5153,1.5289,1.5334,1.5537,1.5525,1.5659,1.6088,1.604,1.6132,1.6735,1.6566,1.6431,1.6637,1.6791,1.6931,1.7044,1.7115,1.7157,1.7157,1.735,1.7301,1.6851,1.737,1.7006,1.5494,1.594,1.5682,1.457,1.47,1.4794,1.4794,1.4932,1.4963,1.4932,1.5058,1.5074,0.6056,0.5354,0.4746,0.4615,0.407,0.3584,0.3663,0.3584,0.3482,0.3556,0.3364,0.3397,0.4006,0.4103,0.4172,0.4382,0.4736,0.4934,0.4806,0.5182,0.5617,0.6021,0.6612,0.7072,0.734,0.7741,0.7841,0.7509,0.7614,0.767,0.7655,0.7855,0.8111,0.8373,0.8561,0.8846,0.9177,0.9248,0.9417,0.9683,1.0098,1.04,1.0621,1.0985,1.1271,1.1384,1.1223,1.1298,1.1485,1.1421,1.1507,1.1682,1.1693,1.1719,1.1793,1.1682,1.1894,1.2106,1.1659,1.2117,1.2813,1.2516,1.2283,1.2124,1.2193,1.1838,1.1432,1.1511,1.2296,1.3117,1.323,1.397,1.4755,1.4994,1.5175,1.5311,1.5546,1.5691,1.5836,1.6113,1.6044,1.6132,1.659,1.6124,1.6018,1.7037,1.6688,1.6464,1.6925,1.7225,1.7391,1.7475,1.7475,1.7475,1.7475,1.7625,1.7679,1.7652,1.7989,1.7598,1.6308,1.6586,1.616,1.493,1.4951,1.4982,1.4982,1.5133,1.5222,1.5283,1.5344,1.5389,0.642,0.5929,0.5476,0.4726,0.4178,0.3798,0.3705,0.3635,0.3565,0.3602,0.3536,0.3635,0.4183,0.421,0.4366,0.4979,0.5017,0.5055,0.5246,0.5568,0.5923,0.6317,0.716,0.7757,0.7784,0.8134,0.8329,0.8383,0.8423,0.8464,0.8545,0.8513,0.8513,0.8602,0.8918,0.9199,0.9408,0.9567,0.9734,0.9911,1.0351,1.0774,1.1147,1.1421,1.1571,1.1619,1.1597,1.1773,1.2108,1.2158,1.2463,1.2913,1.2941,1.2787,1.2586,1.2956,1.3134,1.302,1.2341,1.2527,1.3101,1.337,1.3384,1.3312,1.3783,1.3593,1.3275,1.3458,1.3864,1.4308,1.4476,1.5026,1.5623,1.578,1.5869,1.5957,1.6163,1.6293,1.6423,1.6509,1.6565,1.6693,1.7002,1.6834,1.6935,1.7557,1.7316,1.714,1.7297,1.7406,1.7488,1.7516,1.757,1.7666,1.7747,1.7855,1.7975,1.8082,1.8201,1.7957,1.7281,1.7419,1.7141,1.6379,1.6126,1.597,1.5922,1.5713,1.558,1.5566,1.5668,1.5784,0.6771,0.6236,0.5681,0.4845,0.4403,0.4086,0.3896,0.3798,0.3728,0.3695,0.3821,0.4108,0.466,0.4654,0.4833,0.554,0.5295,0.5144,0.5484,0.5906,0.6342,0.6759,0.7648,0.8251,0.8358,0.8694,0.8876,0.8835,0.8791,0.8805,0.8958,0.8926,0.8886,0.8918,0.9248,0.9536,0.9686,0.9813,0.9971,1.0166,1.0611,1.1002,1.1325,1.1623,1.1771,1.1782,1.2084,1.237,1.2653,1.2896,1.3277,1.3697,1.3738,1.3453,1.307,1.3581,1.3651,1.3385,1.3009,1.3283,1.3845,1.3885,1.382,1.38,1.4087,1.3834,1.3581,1.3947,1.4352,1.4773,1.5203,1.5727,1.6219,1.6405,1.6491,1.6522,1.6735,1.6808,1.6892,1.6947,1.7002,1.7086,1.7337,1.7502,1.7585,1.7649,1.7799,1.7855,1.7774,1.776,1.7801,1.7774,1.7855,1.7949,1.8003,1.8095,1.824,1.8358,1.8475,1.8361,1.792,1.8,1.7838,1.7267,1.7072,1.6929,1.6895,1.6698,1.6442,1.6172,1.6303,1.6418,0.7011,0.6305,0.5428,0.5011,0.4762,0.4538,0.4253,0.4123,0.4086,0.4043,0.4349,0.4783,0.5376,0.5418,0.5529,0.6021,0.5564,0.5257,0.5564,0.6264,0.6892,0.7355,0.8065,0.8647,0.8985,0.9355,0.9404,0.8967,0.8759,0.8746,0.8935,0.9105,0.9257,0.9319,0.9585,0.9793,1.0019,1.0088,1.0235,1.0418,1.0829,1.1094,1.1255,1.1726,1.192,1.2014,1.264,1.2996,1.3132,1.3644,1.397,1.4075,1.4116,1.3773,1.3324,1.3771,1.367,1.3297,1.3714,1.4367,1.4923,1.4092,1.3726,1.3541,1.3163,1.2724,1.2504,1.3222,1.3874,1.4602,1.5442,1.609,1.6607,1.6876,1.6976,1.7047,1.7199,1.724,1.7282,1.7404,1.7337,1.7378,1.7679,1.8003,1.8034,1.7463,1.8009,1.8439,1.8242,1.8293,1.8279,1.8228,1.8293,1.8279,1.8228,1.84,1.8517,1.8556,1.8827,1.878,1.8302,1.8385,1.8229,1.7721,1.7822,1.7872,1.7887,1.7987,1.77,1.7075,1.7208,1.7267,0.6572,0.6191,0.5672,0.5163,0.4947,0.4877,0.5143,0.5199,0.5311,0.5678,0.599,0.6245,0.6359,0.6435,0.6444,0.6348,0.6045,0.5875,0.5975,0.6576,0.7166,0.7636,0.8397,0.9002,0.9352,0.9413,0.9479,0.9487,0.9573,0.9702,0.9804,0.9545,0.9475,0.9594,0.9832,1.0019,1.0205,1.039,1.0582,1.0764,1.1094,1.1356,1.1664,1.1993,1.2383,1.2866,1.3082,1.3576,1.4305,1.4613,1.4995,1.5353,1.5471,1.4987,1.4362,1.5271,1.5016,1.4386,1.5241,1.5018,1.4263,1.4075,1.394,1.3813,1.3752,1.3945,1.4303,1.472,1.5393,1.6048,1.6536,1.6844,1.7073,1.7323,1.7352,1.7434,1.7666,1.7774,1.7801,1.7841,1.7962,1.8042,1.8069,1.8361,1.85,1.8384,1.8545,1.8644,1.8439,1.8439,1.8464,1.8475,1.8464,1.8581,1.8836,1.8836,1.895,1.9236,1.9325,1.9361,1.9343,1.94,1.9396,1.9231,1.8992,1.8831,1.8748,1.85,1.8284,1.8129,1.8189,1.8263,0.6504,0.6126,0.5494,0.5248,0.494,0.4753,0.4821,0.5217,0.5642,0.5897,0.6672,0.7281,0.7281,0.7154,0.7025,0.6836,0.6289,0.5944,0.6129,0.683,0.7452,0.778,0.8638,0.9306,0.9594,0.9724,0.983,0.9883,0.9887,0.9868,0.9932,0.9793,0.9753,0.9862,1.0059,1.0244,1.0428,1.0544,1.0659,1.084,1.1094,1.1431,1.1737,1.2102,1.2518,1.2923,1.3261,1.3703,1.4196,1.4627,1.509,1.5519,1.5605,1.5409,1.5113,1.5923,1.5743,1.5206,1.6021,1.5709,1.4971,1.5,1.4749,1.4504,1.4667,1.4728,1.4877,1.5467,1.5878,1.6304,1.6841,1.7086,1.7157,1.7419,1.7584,1.7693,1.7801,1.7949,1.8095,1.8095,1.8279,1.8436,1.8372,1.8697,1.8965,1.8965,1.9026,1.9026,1.8927,1.8812,1.8798,1.8846,1.8874,1.8965,1.9213,1.9139,1.925,1.9479,1.9566,1.9639,1.9797,1.9884,1.9955,2.0061,1.9851,1.9718,1.9703,1.9544,1.9296,1.8983,1.9122,1.9183,0.6433,0.5984,0.5195,0.5269,0.4938,0.4513,0.4218,0.4995,0.5765,0.5751,0.7063,0.8199,0.8196,0.7866,0.755,0.7453,0.6584,0.6029,0.6291,0.7132,0.7736,0.785,0.8829,0.9594,0.9783,1.0088,1.0244,1.0049,0.9904,0.979,0.9774,0.995,1.0049,1.0118,1.0312,1.0467,1.0659,1.0659,1.0736,1.0802,1.1105,1.1394,1.1689,1.2186,1.2556,1.277,1.3459,1.3713,1.3746,1.4396,1.4886,1.521,1.5313,1.5467,1.5686,1.612,1.6056,1.5822,1.6363,1.6448,1.6275,1.6157,1.5715,1.5269,1.5442,1.5157,1.4906,1.5676,1.5906,1.6043,1.6831,1.7086,1.717,1.7404,1.772,1.7922,1.7801,1.8043,1.8282,1.8242,1.845,1.8669,1.8669,1.9026,1.9339,1.9339,1.9413,1.945,1.945,1.925,1.9161,1.9258,1.9325,1.9376,1.9523,1.9487,1.9545,1.9639,1.9747,1.9904,2.0076,2.0096,2.0216,2.0423,2.0457,2.0475,2.0527,2.0677,2.0429,1.9815,1.9972,2.0066,0.5557,0.559,0.5456,0.5262,0.5093,0.5091,0.5398,0.6286,0.7158,0.7488,0.8751,0.9688,0.9301,0.9074,0.8794,0.828,0.7866,0.7433,0.6999,0.775,0.8288,0.8158,0.8952,0.9594,0.9783,1.0088,1.0137,0.9793,1.0176,1.0359,1.0205,1.0244,1.0273,1.0351,1.0649,1.0802,1.084,1.1012,1.1174,1.1362,1.1479,1.1726,1.209,1.2354,1.3057,1.4089,1.4395,1.4624,1.4897,1.5714,1.5726,1.5288,1.5941,1.5969,1.5768,1.6376,1.6279,1.597,1.6599,1.6761,1.6514,1.5953,1.5587,1.5303,1.4943,1.5174,1.5567,1.5818,1.6309,1.6873,1.724,1.7432,1.7638,1.776,1.7963,1.8149,1.8201,1.8425,1.8595,1.8478,1.876,1.9026,1.9026,1.9302,1.9574,1.9617,1.9654,1.9654,1.9726,1.9523,1.9413,1.9603,1.956,1.972,2.0131,2.0045,2.008,2.0308,2.046,2.0543,2.0592,2.0644,2.0677,2.066,2.0761,2.0778,2.0761,2.0924,2.0974,2.0847,2.0895,2.0911,0.6371,0.5817,0.514,0.5101,0.4885,0.4887,0.5721,0.6686,0.7591,0.8334,0.9392,1.0084,0.9776,0.9396,0.9039,0.8722,0.8273,0.7851,0.7595,0.8098,0.857,0.8809,0.9601,1.0176,1.0264,1.0687,1.0659,1.0059,1.0467,1.0582,1.0205,1.0467,1.0659,1.0764,1.0937,1.105,1.105,1.1457,1.161,1.1522,1.1979,1.2355,1.2728,1.2949,1.3642,1.4604,1.4748,1.4898,1.5051,1.5527,1.564,1.5583,1.5994,1.6245,1.6408,1.6701,1.6709,1.6641,1.6941,1.696,1.6752,1.6555,1.6258,1.5956,1.5929,1.6084,1.6341,1.6535,1.6783,1.7044,1.7321,1.7487,1.761,1.776,1.8003,1.8268,1.8464,1.862,1.8711,1.8812,1.904,1.9288,1.9398,1.9632,1.9827,1.9848,1.9848,1.9884,1.9884,1.9797,1.9797,1.9889,1.9848,1.9935,2.027,2.0235,2.0254,2.0441,2.0626,2.0726,2.0744,2.0827,2.0893,2.0957,2.1038,2.1055,2.1055,2.1167,2.1215,2.1215,2.123,2.1262,0.7089,0.6022,0.4787,0.495,0.4709,0.4726,0.5879,0.6867,0.7825,0.8755,0.9695,1.0273,0.9957,0.9504,0.9174,0.915,0.8662,0.8259,0.8244,0.8662,0.9077,0.9324,1.0223,1.0799,1.0649,1.1105,1.1142,1.0428,1.0736,1.0764,1.0312,1.0697,1.1012,1.1126,1.1185,1.126,1.126,1.1767,1.1883,1.1671,1.2415,1.3,1.3331,1.3715,1.4298,1.5053,1.5131,1.517,1.5092,1.5387,1.5656,1.5896,1.6077,1.6532,1.7044,1.7015,1.7128,1.724,1.724,1.717,1.7044,1.7199,1.6989,1.665,1.6947,1.7044,1.7044,1.7212,1.717,1.7128,1.735,1.7474,1.7597,1.7842,1.8109,1.8425,1.8711,1.8788,1.8903,1.9101,1.9325,1.9545,1.9762,1.9955,2.0111,2.0096,2.0218,2.0345,2.0345,2.0487,2.065,2.065,2.0299,2.0181,2.0339,2.0373,2.0407,2.0491,2.066,2.0889,2.1148,2.1054,2.1151,2.1456,2.1359,2.1294,2.1309,2.1371,2.1388,2.1388,2.1433,2.1479,0.6412,0.5654,0.4882,0.49,0.4881,0.5156,0.6286,0.7318,0.8227,0.8943,1.002,1.0643,1.0034,0.9802,0.9776,0.988,0.9686,0.9415,0.9066,0.9906,1.0223,0.9243,1.043,1.1084,1.039,1.0878,1.1067,1.0677,1.0992,1.1067,1.084,1.0995,1.112,1.1185,1.1309,1.1421,1.1485,1.1652,1.1852,1.2138,1.2756,1.3293,1.3791,1.4411,1.5103,1.5807,1.5993,1.594,1.5777,1.6507,1.6455,1.5975,1.6638,1.7008,1.7199,1.7308,1.7363,1.7391,1.7447,1.7419,1.735,1.7447,1.724,1.7002,1.7157,1.7253,1.7363,1.7363,1.7363,1.7391,1.7488,1.772,1.8042,1.8503,1.8697,1.8798,1.8955,1.913,1.9265,1.9339,1.9566,1.9839,2.003,2.0235,2.0373,2.0426,2.1023,2.1463,2.1463,2.1973,2.2362,2.2362,2.1151,2.0388,2.046,2.0577,2.0677,2.0761,2.0957,2.1423,2.2231,2.1681,2.1664,2.2362,2.1838,2.1511,2.1386,2.1587,2.1664,2.1648,2.1648,2.1738,0.7262,0.6065,0.5,0.5166,0.5175,0.5667,0.7649,0.8192,0.8738,1.0403,1.0851,1.0825,1.0411,1.0173,1.0021,0.9905,0.9672,0.9627,0.9958,1.0244,1.0542,1.0791,1.1388,1.1568,1.1067,1.1292,1.1282,1.084,1.0954,1.1067,1.1132,1.1287,1.1421,1.156,1.1959,1.2034,1.1748,1.2582,1.3012,1.2922,1.3684,1.4406,1.5067,1.5464,1.6084,1.679,1.6885,1.6716,1.6441,1.7127,1.7062,1.6573,1.729,1.7529,1.7515,1.7638,1.7597,1.7461,1.7584,1.7584,1.761,1.7706,1.7693,1.7557,1.7434,1.7461,1.7569,1.7569,1.7638,1.772,1.7868,1.8201,1.8553,1.8827,1.9003,1.9101,1.9153,1.9376,1.9581,1.9741,2.0273,2.0783,2.0961,2.1388,2.1703,2.1719,2.1973,2.2181,2.216,2.2467,2.2713,2.2713,2.2103,2.1739,2.176,2.1898,2.1796,2.1355,2.1975,2.2321,2.2228,2.2151,2.2459,2.3194,2.2699,2.2644,2.3011,2.2754,2.2598,2.2598,2.222,2.2015,0.847,0.7219,0.6209,0.6417,0.6452,0.7005,0.9137,0.9371,0.9653,1.1472,1.1505,1.1155,1.0801,1.057,1.0285,0.997,0.9738,0.9864,1.0522,1.057,1.0885,1.1882,1.2164,1.2126,1.1726,1.1799,1.1689,1.1319,1.1282,1.1394,1.1689,1.176,1.1782,1.1782,1.2208,1.2332,1.2066,1.3007,1.3557,1.3655,1.4461,1.5271,1.6097,1.6439,1.6822,1.7181,1.7449,1.717,1.6631,1.7477,1.7516,1.7052,1.7717,1.7922,1.7842,1.7963,1.7868,1.7733,1.7842,1.7842,1.7842,1.7963,1.8016,1.8028,1.7787,1.7814,1.7868,1.7842,1.7922,1.8069,1.8361,1.8659,1.8889,1.9055,1.9242,1.9472,1.9686,1.9879,2.021,2.066,2.1234,2.1724,2.1905,2.2347,2.266,2.2639,2.2848,2.2973,2.2914,2.3236,2.3475,2.3475,2.3421,2.3227,2.2729,2.2823,2.269,2.2201,2.284,2.3109,2.2889,2.2899,2.3178,2.3719,2.3502,2.3543,2.3812,2.3701,2.3611,2.3594,2.3173,2.2784,0.9836,0.9226,0.8877,0.8943,0.9063,0.9459,1.0625,1.0883,1.108,1.1773,1.1839,1.1637,1.1178,1.0968,1.0753,1.026,1.0135,1.023,1.0633,1.1039,1.1479,1.1953,1.2543,1.272,1.2246,1.233,1.233,1.221,1.221,1.2318,1.2674,1.2484,1.2197,1.1819,1.1859,1.2066,1.2377,1.2484,1.307,1.4194,1.4852,1.5659,1.652,1.7169,1.7156,1.6651,1.7531,1.719,1.6136,1.7575,1.7791,1.7267,1.7954,1.8202,1.8202,1.8202,1.8202,1.8202,1.8202,1.8202,1.8202,1.8202,1.8254,1.8305,1.8305,1.8305,1.8279,1.8228,1.8254,1.8397,1.8865,1.8993,1.9069,1.9228,1.9465,1.9789,2.0528,2.0805,2.1205,2.2276,2.249,2.2527,2.275,2.2859,2.288,2.288,2.3465,2.3869,2.3869,2.4585,2.5075,2.5075,2.5169,2.4627,2.3043,2.306,2.3202,2.3167,2.3272,2.3719,2.4626,2.4045,2.3719,2.3786,2.4129,2.3953,2.3214,2.4133,2.4581,2.4581,2.4581,2.4202,1.0002,0.927,0.8591,0.8968,0.9245,0.9704,1.0906,1.1023,1.1208,1.2277,1.2235,1.1918,1.1615,1.137,1.1183,1.1166,1.0978,1.1143,1.1938,1.2077,1.2269,1.283,1.2754,1.2567,1.2246,1.2066,1.2113,1.2389,1.2246,1.2258,1.2544,1.2627,1.2591,1.2425,1.3298,1.369,1.3374,1.4399,1.5133,1.5582,1.5996,1.6638,1.7477,1.772,1.7786,1.7716,1.8001,1.7422,1.6448,1.7845,1.781,1.7028,1.8158,1.8542,1.8439,1.8517,1.84,1.8202,1.8254,1.8333,1.84,1.84,1.8489,1.863,1.863,1.8606,1.8581,1.8606,1.8707,1.886,1.904,1.9549,2.0062,2.0085,2.0608,2.1126,2.1514,2.166,2.1873,2.2443,2.303,2.3418,2.3516,2.4002,2.4302,2.4202,2.4492,2.4696,2.4673,2.498,2.524,2.5301,2.5448,2.5233,2.4595,2.4585,2.4399,2.3939,2.4498,2.479,2.4587,2.4536,2.4773,2.5302,2.513,2.5211,2.5513,2.5421,2.5214,2.4954,2.4895,2.4804,1.0967,1.0471,0.997,1.0476,1.0552,1.0778,1.1797,1.1851,1.1891,1.2552,1.2376,1.2045,1.1768,1.1423,1.1216,1.1286,1.1306,1.1614,1.2423,1.2473,1.262,1.3064,1.3022,1.2849,1.2579,1.2389,1.2437,1.265,1.2508,1.2508,1.2756,1.2931,1.3111,1.3321,1.4038,1.4287,1.4036,1.5197,1.6036,1.6507,1.6715,1.7232,1.8003,1.8055,1.8011,1.7896,1.8171,1.765,0.0,1.8059,1.8063,1.7313,1.8384,1.8721,1.862,1.8697,1.862,1.8411,1.8475,1.8553,1.862,1.8673,1.8812,1.8988,1.8988,1.8874,1.8774,1.8874,1.8988,1.9136,1.9482,2.0024,2.0531,2.0822,2.138,2.1913,2.2352,2.2578,2.2832,2.3418,2.3941,2.4318,2.4395,2.4798,2.5084,2.5021,2.5084,2.5162,2.5162,2.5278,2.5448,2.5492,2.5659,2.5696,2.5584,2.5546,2.5314,2.4883,2.5378,2.5501,2.5029,2.5228,2.5452,2.5704,2.5815,2.6034,2.6319,2.636,2.6207,2.5952,2.5952,2.5837,0.0,1.2526,1.2528,1.2992,1.269,1.2454,1.3057,1.3102,0.0,1.2614,1.2396,1.2128,1.1732,1.1333,1.1038,1.0963,1.1319,1.1764,1.2302,1.249,1.2677,1.2869,1.3335,1.3531,1.3176,1.3201,1.3166,1.2978,1.2967,1.3074,1.3283,1.3458,1.383,1.4475,1.4246,1.4246,1.4549,1.5205,1.607,1.7052,1.709,1.7468,1.8202,1.8242,1.7963,1.7497,1.817,1.7824,1.6979,1.8241,1.8435,1.7955,1.8593,1.8822,1.8822,1.8822,1.8822,1.8784,1.8784,1.8822,1.8822,1.8979,1.9168,1.9302,1.9302,1.9101,1.886,1.9064,1.9093,1.9252,2.0185,2.0454,2.07,2.1431,2.1849,2.2337,2.3145,2.3506,2.3951,2.4925,2.5107,2.5146,2.5294,2.5294,2.5294,2.5294,2.5333,2.5371,2.5416,2.5562,2.5675,2.5738,2.5901,2.6026,2.601,2.5954,2.5917,2.5917,2.5934,2.5934,2.5934,2.6026,2.5839,2.5313,2.6236,2.6502,2.5979,2.6968,2.7407,2.7407,2.7483,2.7173,1.366,0.0,1.2851,1.3171,1.3259,1.3242,0.0,1.3139,1.314,1.3053,1.2873,1.2649,1.24,1.1936,1.1815,1.2464,1.2521,1.265,1.314,1.3351,1.348,1.3676,1.4162,1.4219,1.362,1.368,1.3613,1.3382,1.3644,1.3919,1.4191,1.4725,1.5147,1.5401,1.5885,1.6072,1.5931,1.6771,1.733,1.7705,1.7915,1.8087,1.8279,1.8503,1.8472,1.8226,1.804,1.7729,1.7466,1.8042,1.8144,1.7963,1.8743,1.9003,1.8941,1.8941,1.8889,1.8784,1.8784,1.8898,1.9064,1.9228,1.9339,1.9376,1.9376,1.9339,1.9265,1.9265,1.9339,1.9612,2.0309,2.0935,2.158,2.2304,2.3009,2.3682,2.4147,2.43,2.4547,2.513,2.524,2.524,2.5294,2.5355,2.5355,2.5333,2.541,2.5562,2.5626,2.5791,2.5974,2.6137,2.6189,2.6277,2.6364,2.6222,2.6134,2.6134,2.6225,2.6279,2.6279,2.6469,2.6471,2.6371,2.6773,2.6967,2.6891,2.7348,2.7557,2.7574,2.7742,2.7725,1.4194,1.3588,1.2992,1.3378,1.3284,1.3117,1.3211,1.3227,1.321,1.3087,1.2891,1.2687,1.251,1.2259,1.2231,1.2742,1.3084,1.3415,1.3785,1.38,1.3815,1.3934,1.4362,1.4493,1.4201,1.4462,1.4571,1.4394,1.4653,1.4907,1.5039,1.5415,1.583,1.6209,1.6631,1.6831,1.6689,1.7437,1.7935,1.8095,1.824,1.8319,1.8411,1.8595,1.8673,1.8616,1.8127,1.8041,1.8223,1.8238,1.8317,1.8512,1.9045,1.9242,1.9168,1.9168,1.9153,1.9064,1.9064,1.9176,1.9339,1.9465,1.9523,1.956,1.9501,1.9523,1.956,1.9376,1.9671,2.0206,2.0807,2.1595,2.243,2.3103,2.3819,2.4426,2.4614,2.4895,2.5169,2.5416,2.5584,2.5621,2.5621,2.568,2.5754,2.5733,2.5807,2.5917,2.603,2.6101,2.6243,2.6453,2.6538,2.6589,2.6691,2.6606,2.6521,2.6382,2.6469,2.6556,2.6556,2.6624,2.6758,2.6891,2.7166,2.7293,2.7355,2.7509,2.7617,2.7659,2.7813,2.7946,1.4406,1.3737,1.3209,1.3539,1.3121,1.2736,1.321,0.0,0.0,1.2997,1.2834,1.2649,1.2427,1.244,1.25,1.2586,1.3332,1.4007,1.4251,1.4065,1.3987,1.4166,1.4472,1.4719,1.4906,1.5338,1.5553,1.5462,1.5715,1.588,1.5918,1.6035,1.6429,1.7004,1.712,1.7197,1.7197,1.7742,1.8121,1.8319,1.8319,1.8411,1.8542,1.8673,1.8774,1.8793,1.8346,1.8484,1.8974,1.8584,1.8701,1.9139,1.9339,1.9413,1.9413,1.9413,1.9413,1.9413,1.9413,1.9501,1.9611,1.9611,1.9705,1.9827,1.9839,1.9906,1.9978,1.9864,2.0236,2.0833,2.1555,2.2385,2.3137,2.38,2.4395,2.4839,2.4895,2.5362,2.5738,2.5738,2.5901,2.6046,2.601,2.6134,2.6206,2.6206,2.6206,2.626,2.6383,2.6453,2.6521,2.6708,2.6859,2.6942,2.6942,2.7007,2.6975,2.6742,2.6742,2.6758,2.6808,2.6808,2.694,2.7166,2.7386,2.7526,2.7526,2.7617,2.7689,2.776,2.7871,2.806,1.4478,1.4251,1.3951,1.3417,1.3224,1.3142,1.2946,1.2961,1.3067,0.0,1.3226,1.3175,1.2867,1.2754,1.2834,1.3128,1.3572,1.4123,1.4696,1.4324,1.4351,1.5412,1.5456,1.5541,1.5856,1.6019,1.5984,1.5676,1.6199,1.6619,1.6772,1.7363,1.7769,1.7972,1.8062,1.8087,1.8087,1.8133,1.8268,1.8478,1.8478,1.8581,1.876,1.8903,1.8955,1.895,1.8527,1.8651,1.9058,1.872,1.8838,1.9302,1.9376,1.9413,1.9413,1.9413,1.9413,1.9413,1.9538,1.9632,1.969,1.9762,1.9848,2.0112,2.0761,2.0892,2.0962,2.1576,2.1379,2.125,2.2604,2.3081,2.3471,2.4418,2.4759,2.4997,2.54,2.568,2.5881,2.5937,2.6118,2.6225,2.617,2.6225,2.626,2.6206,2.6295,2.6383,2.6383,2.6657,2.6859,2.6893,2.699,2.707,2.707,2.7247,2.731,2.7279,2.7135,2.7103,2.7282,2.7313,2.7327,2.7434,2.76,2.7659,2.7587,2.7824,2.794,2.7968,2.8099,2.8209,1.4614,1.4489,1.4235,1.3537,1.3421,1.3361,1.3034,1.2961,1.3057,1.3396,1.3462,1.3498,1.3621,1.3868,1.4076,1.421,1.4068,1.4104,1.447,1.4241,1.4378,1.5472,1.5676,1.5979,1.6623,1.694,1.7063,1.6964,1.7299,1.7526,1.7644,1.7944,1.8135,1.8254,1.8279,1.8358,1.8489,1.8478,1.8517,1.8595,1.8711,1.8827,1.8927,1.9003,1.9078,1.9124,1.8685,1.8844,1.9332,1.8967,1.9106,1.9596,1.9669,1.9705,1.9705,1.9705,1.9705,1.9741,1.9848,1.9904,1.9925,2.0045,2.0446,2.0905,2.1157,2.151,2.1941,2.2617,2.2532,2.2386,2.3044,2.3674,2.4215,2.4712,2.5036,2.5362,2.5696,2.5934,2.6079,2.6154,2.6312,2.6399,2.6434,2.6469,2.6538,2.6623,2.6657,2.6691,2.6758,2.6908,2.704,2.7122,2.7201,2.7247,2.7247,2.7373,2.7465,2.7465,2.7373,2.7341,2.7407,2.7469,2.7513,2.7557,2.808,2.8381,2.8411,2.8529,2.8663,2.8767,2.8378,2.8291,1.4501,1.4484,1.4386,1.3827,1.3654,1.3575,1.3376,1.3193,1.3219,1.3811,1.3887,1.3895,1.4163,1.4658,1.4986,1.4898,1.4533,1.43,1.4444,1.4238,1.4499,1.5737,1.5838,1.6251,1.7325,1.7755,1.7935,1.8042,1.8135,1.8228,1.8228,1.8228,1.8307,1.8358,1.8358,1.8489,1.8711,1.875,1.875,1.875,1.8917,1.9031,1.9055,1.9153,1.9288,1.9369,1.904,1.9185,1.969,1.9306,1.9466,1.9869,1.999,2.0025,2.0076,2.0025,2.0025,2.0061,2.008,2.015,2.0216,2.0524,2.1066,2.1655,2.1874,2.2356,2.2916,2.3467,2.3652,2.3628,2.3548,2.4175,2.4862,2.495,2.5301,2.568,2.5954,2.6151,2.6274,2.6347,2.6468,2.6572,2.6606,2.6674,2.6775,2.6942,2.6959,2.6975,2.7103,2.7135,2.7215,2.7313,2.7563,2.7816,2.8053,2.794,2.7919,2.8141,2.7749,2.7583,2.773,2.7661,2.7647,2.7677,2.8509,2.9017,2.9119,2.9325,2.952,2.9683,2.9104,2.882,1.3804,1.4164,1.4542,1.4302,1.3971,1.3752,1.3981,1.3789,1.3758,1.4485,1.4718,1.4636,1.4113,1.447,1.4754,1.4561,1.4752,1.5026,1.5269,1.4672,1.4938,1.6996,1.6463,1.6488,1.797,1.8068,1.8042,1.8189,1.8254,1.8305,1.8305,1.8425,1.8478,1.8478,1.8595,1.8673,1.8711,1.8879,1.8993,1.8993,1.8993,1.9093,1.9302,1.942,1.953,1.969,1.9717,1.9803,1.9955,1.9788,1.9859,2.008,2.008,2.015,2.027,2.015,2.015,2.027,2.015,2.022,2.0481,2.1241,2.1581,2.1953,2.3386,2.3752,2.3826,2.4516,2.4704,2.4664,2.4527,2.4719,2.5084,2.5448,2.5584,2.5717,2.6189,2.6399,2.6485,2.6589,2.6657,2.6691,2.6691,2.6691,2.6742,2.6893,2.6959,2.7007,2.7103,2.7247,2.7376,2.7373,2.8171,2.9043,2.9937,2.9303,2.9241,3.0044,2.8465,2.7871,2.8759,2.8087,2.7748,2.7859,2.867,2.9089,2.9119,2.9977,3.0469,3.0592,3.0664,3.036,1.3799,1.4212,1.4622,1.4462,1.4359,1.4327,1.4346,1.3926,1.3844,1.4869,1.5008,1.5123,1.5649,1.5566,1.542,1.5443,1.5613,1.5535,1.4929,1.5195,1.5763,1.6656,1.6775,1.715,1.8171,1.824,1.824,1.84,1.8503,1.8542,1.8542,1.8711,1.8788,1.8683,1.8827,1.8879,1.8879,1.9017,1.9116,1.9205,1.9242,1.9317,1.9501,1.9581,1.9617,1.9632,1.9741,1.9797,1.9848,2.0025,2.0166,2.0266,2.0822,2.1062,2.1097,2.1062,2.0763,2.0488,2.0903,2.1148,2.1431,2.2157,2.2841,2.3467,2.3973,2.4414,2.475,2.4926,2.5005,2.4966,2.4766,2.5045,2.5416,2.5605,2.5864,2.6118,2.6417,2.6468,2.652,2.6589,2.664,2.6657,2.6691,2.6775,2.6859,2.699,2.7055,2.7087,2.7201,2.7345,2.7407,2.739,2.8285,2.9228,3.0127,2.996,3.0181,3.1071,2.9942,2.918,2.8986,2.8717,2.8388,2.7975,2.87,2.9148,2.9301,3.0165,3.0628,3.0769,3.0332,3.0017,1.3449,1.3927,1.4541,1.4672,1.4683,1.4779,1.5027,1.4553,1.4366,1.5452,1.5441,1.5503,1.6307,1.6208,1.6017,1.5919,1.6227,1.6222,1.542,1.5916,1.6468,1.6941,1.7214,1.7664,1.8302,1.8397,1.845,1.8556,1.8673,1.8736,1.8736,1.8865,1.8927,1.8874,1.8965,1.9055,1.9093,1.9153,1.9265,1.9413,1.9465,1.9538,1.9647,1.9762,1.9812,1.9735,2.0038,2.015,2.0201,2.063,2.0793,2.0775,2.1619,2.1851,2.171,2.1929,2.1659,2.1315,2.1831,2.2094,2.2315,2.3135,2.3823,2.4438,2.4632,2.4992,2.5371,2.5301,2.5262,2.5224,2.5107,2.5339,2.5642,2.5738,2.6046,2.6347,2.6537,2.6554,2.6554,2.6674,2.6674,2.6708,2.6775,2.6876,2.6975,2.7103,2.7103,2.7166,2.7327,2.739,2.7643,2.8178,2.8675,2.9466,3.0829,3.0818,3.1089,3.1951,3.1489,3.0769,2.9867,2.9384,2.8918,2.8415,2.8882,2.9225,2.9405,3.0445,3.1004,3.111,3.0666,3.0342,1.2616,1.3233,1.4266,1.4931,1.4905,1.5017,1.6139,1.5773,1.5464,1.6318,1.6105,1.5782,1.5725,1.6159,1.6337,1.5802,1.6493,1.7106,1.7115,1.6839,1.7032,1.8166,1.7889,1.7852,1.8461,1.8634,1.8711,1.8711,1.876,1.8784,1.8784,1.8784,1.8874,1.8993,1.9078,1.9176,1.9302,1.9376,1.9465,1.9611,1.9611,1.9647,1.9726,1.9975,2.0061,2.0051,2.0704,2.1051,2.117,2.1744,2.1842,2.1697,2.2431,2.2398,2.1995,2.2602,2.2859,2.288,2.2839,2.2875,2.3079,2.4072,2.4406,2.4588,2.5452,2.5659,2.56,2.5621,2.5605,2.5605,2.5701,2.568,2.568,2.5937,2.6099,2.6277,2.6537,2.6606,2.6657,2.6859,2.6893,2.6926,2.6992,2.7024,2.704,2.712,2.712,2.7215,2.7483,2.7513,2.8185,2.9916,2.9479,3.0013,3.2411,3.198,3.1969,3.283,3.2948,3.2577,3.1635,3.0137,2.9318,2.9318,2.9242,2.9301,2.9423,3.0939,3.175,3.1823,3.2065,3.1735,1.3256,1.4041,1.4944,1.4898,1.5341,1.5816,1.6071,1.5711,1.5443,1.5841,1.5782,1.5965,1.6999,1.7171,1.732,1.7622,1.8043,1.8108,1.7333,1.7798,1.8212,1.8215,1.8467,1.8711,1.8851,1.8879,1.8865,1.876,1.8889,1.8941,1.8941,1.9078,1.9191,1.9191,1.9265,1.9339,1.9376,1.9508,1.9596,1.9611,1.9792,1.9848,1.9762,1.9833,2.0197,2.0725,2.1027,2.1489,2.2127,2.2603,2.3038,2.3453,2.3681,2.3649,2.3542,2.3734,2.351,2.3175,2.3576,2.3845,2.4144,2.4869,2.526,2.5493,2.5779,2.5807,2.586,2.599,2.5937,2.5937,2.6243,2.6243,2.6173,2.6225,2.6452,2.6708,2.6775,2.6842,2.6909,2.6959,2.6992,2.7145,2.7691,2.7893,2.8182,2.8714,2.8916,2.9047,2.9193,2.9274,2.9755,3.0835,3.0875,3.1342,3.2634,3.2606,3.2634,3.2866,3.2948,3.259,3.1711,3.1273,3.0802,3.0284,3.0172,3.0201,3.0381,3.1404,3.1966,3.2007,3.1506,3.1165,1.3717,1.4411,1.5139,1.5453,1.591,1.6252,1.6111,1.5975,1.5869,1.5792,1.6036,1.6473,1.7208,1.7727,1.8138,1.8416,1.8899,1.8936,1.8141,1.8659,1.8956,1.8615,1.8869,1.9064,1.9055,1.9031,1.8979,1.8898,1.904,1.913,1.913,1.9265,1.9376,1.9413,1.9487,1.9523,1.956,1.9741,1.9777,1.9683,1.9899,2.0106,2.0276,2.0298,2.0597,2.1118,2.184,2.2645,2.3481,2.3782,2.4099,2.4354,2.468,2.4616,2.4422,2.4659,2.4462,2.4099,2.4473,2.4692,2.489,2.5384,2.5642,2.5844,2.597,2.6007,2.6043,2.6241,2.6277,2.6312,2.6623,2.6691,2.6607,2.6555,2.6742,2.7011,2.73,2.7418,2.7537,2.7911,2.7963,2.8133,2.8664,2.8867,2.9122,2.9539,2.9742,2.9857,2.9972,3.0053,3.048,3.1335,3.1551,3.1983,3.2798,3.2997,3.306,3.306,3.3152,3.2919,3.236,3.2002,3.1578,3.1159,3.0701,3.0588,3.0751,3.1512,3.1775,3.1556,3.1117,3.0938,1.4036,1.4517,1.5071,1.6191,1.6529,1.6525,1.6416,1.6604,1.6635,1.6104,1.6647,1.7149,1.6968,1.8022,1.8869,1.8624,1.9215,1.9617,1.925,1.9339,1.9376,1.9176,1.9176,1.9139,1.9139,1.9093,1.9055,1.9101,1.9228,1.9302,1.9339,1.9376,1.9501,1.9611,1.9705,1.9762,1.9833,1.9955,1.9955,1.9833,1.9955,2.0345,2.0938,2.1057,2.1237,2.1526,2.3117,2.4241,2.4981,2.5192,2.5051,2.4717,2.544,2.5346,2.4889,2.5415,2.553,2.5416,2.5355,2.5333,2.5394,2.5626,2.5701,2.5775,2.6079,2.6203,2.6239,2.64,2.6589,2.6792,2.6995,2.7112,2.7196,2.7163,2.7079,2.7265,2.8066,2.8237,2.8494,2.9283,2.9472,2.9609,2.9797,2.9864,2.9931,3.0033,3.0117,3.0182,3.0346,3.0392,3.0769,3.1635,3.1782,3.2161,3.2957,3.3201,3.3292,3.3292,3.3422,3.3452,3.3322,3.2433,3.193,3.193,3.1142,3.0802,3.0955,3.1517,3.1512,3.0923,3.098,3.101,1.4231,1.499,1.5569,1.558,1.667,1.7776,1.7896,1.8079,1.7934,1.6819,1.6879,1.7455,1.8463,1.9004,1.9405,1.9825,1.9934,1.9919,1.9812,1.9741,1.969,1.9654,1.9617,1.9545,1.9501,1.9465,1.9428,1.9339,1.9376,1.9413,1.9538,1.9538,1.9611,1.9741,1.9762,1.9869,2.003,2.0166,2.0235,2.02,2.0235,2.0347,2.0555,2.1029,2.2061,2.3453,2.4649,2.5325,2.5535,2.5738,2.5839,2.5832,2.5924,2.5839,2.574,2.5832,2.5754,2.5626,2.5626,2.568,2.577,2.5717,2.5811,2.5974,2.6132,2.6222,2.6347,2.6708,2.7233,2.7743,2.8029,2.8442,2.8819,2.8939,2.8459,2.8202,2.8973,2.9248,2.9402,2.9608,2.9693,2.9916,3.0559,3.0748,3.1077,3.1807,3.1929,3.1996,3.2211,3.2257,3.2424,3.2679,3.276,3.2924,3.3214,3.328,3.3322,3.3382,3.3452,3.3481,3.3452,3.3141,3.2961,3.2961,3.2599,3.254,3.2828,3.2793,3.2499,3.1888,3.1916,3.1646,1.4548,1.54,1.6036,1.6642,1.7815,1.8712,1.8264,1.8471,1.8537,1.7776,1.79,1.8376,1.9132,1.963,1.9971,2.0292,2.0235,2.0096,2.0005,1.9884,1.9797,1.9762,1.9705,1.9669,1.9669,1.9647,1.9611,1.9596,1.9596,1.9632,1.9669,1.9756,1.9812,1.9884,1.999,2.0096,2.0185,2.0323,2.0528,2.0852,2.0907,2.1424,2.2315,2.2153,2.3012,2.4713,2.5325,2.5696,2.5864,2.6082,2.6241,2.6329,2.6312,2.6277,2.6206,2.6079,2.5917,2.5791,2.5738,2.5738,2.5791,2.5791,2.5937,2.6154,2.6277,2.6686,2.7146,2.7403,2.8049,2.8716,2.8886,2.9162,2.9523,2.9954,2.942,2.9042,2.985,3.011,3.0266,3.0629,3.0855,3.1062,3.1463,3.1671,3.198,3.2453,3.259,3.2707,3.2838,3.2902,3.2979,3.3122,3.3196,3.3286,3.3411,3.3452,3.3509,3.3549,3.3605,3.3633,3.3605,3.3509,3.3393,3.3352,3.3104,3.3104,3.3352,3.3244,3.2859,3.2254,3.2254,3.2101,1.4777,1.5622,1.6314,1.783,1.8762,1.9088,1.8178,1.8495,1.8924,1.8761,1.9029,1.935,1.9541,2.0053,2.0423,2.0457,2.0388,2.0235,2.0111,1.9919,1.9797,1.9747,1.9705,1.972,1.9833,1.9741,1.9741,1.9884,1.9869,1.9869,1.9884,1.9955,2.0025,2.0076,2.0235,2.04,2.0543,2.0522,2.0871,2.1506,2.1717,2.2741,2.4354,2.3578,2.4047,2.5492,2.56,2.5787,2.6063,2.6189,2.6364,2.6485,2.6537,2.6503,2.645,2.6274,2.6096,2.5881,2.5775,2.5738,2.5775,2.5917,2.6134,2.6347,2.6604,2.7317,2.8066,2.8305,2.8991,2.9661,2.973,2.9834,3.011,3.0784,3.0386,3.004,3.0731,3.0922,3.1094,3.1716,3.2037,3.2214,3.2249,3.2422,3.2573,3.2639,3.274,3.2838,3.2916,3.2979,3.3091,3.3322,3.3364,3.3452,3.352,3.3633,3.3671,3.3698,3.3753,3.3753,3.3671,3.3633,3.3549,3.3422,3.3256,3.3226,3.3352,3.3352,3.2977,3.232,3.2465,3.2529,1.4692,1.534,1.6016,1.7156,1.7792,1.814,1.8225,1.8984,1.9672,1.9639,1.9452,1.9505,2.0211,2.0431,2.0527,2.066,2.0441,2.0304,2.0354,2.0146,1.999,2.0045,1.999,1.999,2.0045,2.0045,2.008,2.0235,2.0115,2.0115,2.0235,2.015,2.0166,2.0354,2.0388,2.0736,2.1502,2.0942,2.109,2.1922,2.2194,2.3001,2.4312,2.4489,2.504,2.5844,2.5844,2.597,2.6168,2.6203,2.631,2.6485,2.6382,2.633,2.6312,2.6239,2.6115,2.5974,2.5974,2.5974,2.5974,2.6134,2.626,2.657,2.7487,2.7964,2.8356,2.9263,3.0075,3.0698,3.0698,3.122,3.1794,3.1899,3.1811,3.1723,3.1664,3.17,3.179,3.202,3.2144,3.2249,3.2422,3.2439,3.2525,3.274,3.2773,3.287,3.3055,3.3086,3.3196,3.3452,3.3481,3.352,3.3671,3.3633,3.3633,3.3698,3.3643,3.3615,3.3587,3.3605,3.3605,3.3577,3.3422,3.3422,3.3549,3.3509,3.312,3.2402,3.315,3.3168,1.5584,1.6244,1.6843,1.7997,1.8709,1.9088,1.9095,1.9638,2.0134,2.0088,2.0099,2.0202,2.0481,2.046,2.0475,2.0525,2.0423,2.0339,2.0235,2.02,2.0166,2.0115,2.0131,2.02,2.027,2.027,2.0304,2.0392,2.0357,2.0357,2.0407,2.0357,2.0357,2.0441,2.0577,2.1007,2.1802,2.1571,2.2104,2.3346,2.3926,2.4567,2.5204,2.5406,2.5622,2.5897,2.5954,2.6043,2.6203,2.6222,2.6329,2.6382,2.633,2.6295,2.6295,2.6239,2.6115,2.601,2.601,2.601,2.6076,2.669,2.7073,2.7487,2.8493,2.9214,2.9815,3.0247,3.0959,3.1586,3.1586,3.1847,3.2108,3.2108,3.2108,3.209,3.1982,3.2001,3.2055,3.2284,3.2353,3.2422,3.2641,3.2674,3.2707,3.2773,3.2902,3.3011,3.3086,3.3196,3.3316,3.3422,3.3481,3.352,3.3577,3.3605,3.3633,3.3698,3.3671,3.3671,3.3698,3.3726,3.3726,3.3726,3.3577,3.3549,3.3605,3.3605,3.3451,3.3159,3.3561,3.3551,1.6094,1.6627,1.7047,1.8215,1.8853,1.9208,1.9419,1.9794,2.0185,2.0323,2.0636,2.0827,2.0646,2.0543,2.0509,2.0509,2.0475,2.0373,2.0254,2.0289,2.0304,2.022,2.0289,2.0373,2.0457,2.0491,2.0509,2.0561,2.0595,2.0657,2.0845,2.0689,2.0751,2.1145,2.1108,2.1557,2.2445,2.2585,2.3218,2.4406,2.5082,2.5533,2.5844,2.5937,2.5974,2.5917,2.6026,2.6115,2.6222,2.6277,2.6295,2.6295,2.6347,2.633,2.6295,2.6258,2.6187,2.6134,2.6189,2.6189,2.6341,2.7362,2.7895,2.8322,2.9472,3.0352,3.1044,3.1202,3.169,3.2196,3.2196,3.2196,3.2196,3.2196,3.2179,3.2179,3.2144,3.2108,3.2179,3.2439,3.2439,3.2507,3.2674,3.2773,3.2787,3.2805,3.2948,3.3055,3.3086,3.3226,3.3334,3.3393,3.3452,3.3509,3.3509,3.3549,3.3605,3.3661,3.3643,3.3671,3.3726,3.3753,3.378,3.378,3.3698,3.3643,3.3643,3.3698,3.3726,3.3726,3.378,3.3807,1.5579,1.5637,1.5809,1.6701,1.6908,1.7207,1.8464,1.9114,1.9651,2.0344,2.087,2.1103,2.0909,2.0811,2.0794,2.0861,2.0646,2.0543,2.0644,2.0525,2.0423,2.046,2.0494,2.0527,2.066,2.0744,2.0794,2.0794,2.0844,2.1163,2.1793,2.1158,2.1444,2.2913,2.2311,2.2614,2.3978,2.4053,2.4179,2.4406,2.4635,2.5082,2.5738,2.5901,2.601,2.601,2.6115,2.6222,2.6295,2.6295,2.6295,2.6295,2.6434,2.6399,2.6295,2.645,2.6485,2.6503,2.6691,2.6725,2.6843,2.806,2.8449,2.8791,3.0504,3.1077,3.1352,3.2125,3.2371,3.2388,3.2388,3.2388,3.2388,3.2388,3.2439,3.2439,3.2249,3.2179,3.2232,3.2388,3.2301,3.2284,3.2473,3.2541,3.2574,3.2773,3.2852,3.2948,3.3086,3.3117,3.3196,3.3364,3.3452,3.3509,3.3509,3.3491,3.3509,3.3491,3.3491,3.3491,3.3538,3.3633,3.3698,3.3698,3.3753,3.3807,3.3807,3.3788,3.3788,3.3788,3.3807,3.3807,1.5967,1.5942,1.5922,1.6682,1.6976,1.729,1.8073,1.8958,1.9804,2.0611,2.1167,2.1495,2.1479,2.115,2.0844,2.0761,2.0728,2.0662,2.0561,2.0662,2.0712,2.0695,2.0712,2.0778,2.0811,2.0827,2.0827,2.0877,2.1288,2.1686,2.2009,2.2166,2.2518,2.3186,2.298,2.3337,2.4354,2.4836,2.5115,2.5174,2.5359,2.5599,2.5844,2.6082,2.6189,2.6189,2.6329,2.6364,2.6295,2.6382,2.6434,2.6434,2.6485,2.652,2.6503,2.6554,2.6674,2.6825,2.6908,2.6923,2.7194,2.8727,2.9226,2.9605,3.1272,3.1915,3.2087,3.2352,3.2422,3.2439,3.2388,3.2406,3.2388,3.2439,3.2523,3.259,3.2574,3.2574,3.2608,3.2659,3.2674,3.269,3.2755,3.2787,3.287,3.2934,3.306,3.3152,3.3214,3.3274,3.3334,3.3393,3.3422,3.3452,3.3509,3.3509,3.352,3.3615,3.3633,3.3661,3.3698,3.3753,3.378,3.378,3.3807,3.3807,3.3807,3.3807,3.3807,3.3807,3.3807,3.3807,1.5862,1.5792,1.5819,1.67,1.6842,1.7095,1.8338,1.8932,1.9595,2.0882,2.134,2.1587,2.1878,2.1524,2.1135,2.0941,2.0909,2.0876,2.0711,2.086,2.0958,2.0909,2.0909,2.0909,2.0958,2.0941,2.0909,2.0958,2.1643,2.2205,2.2481,2.293,2.3369,2.3751,2.3922,2.4297,2.4912,2.5357,2.5654,2.5712,2.5824,2.5934,2.6007,2.6187,2.6312,2.6382,2.6485,2.6468,2.6417,2.6503,2.652,2.6554,2.6623,2.664,2.6623,2.6725,2.6892,2.7105,2.7459,2.7609,2.7883,2.9603,3.0192,3.0453,3.1864,3.2387,3.2507,3.2473,3.2473,3.2507,3.2473,3.2473,3.2473,3.2574,3.2623,3.2722,3.2838,3.2838,3.2823,3.2823,3.2838,3.287,3.287,3.2916,3.2979,3.2997,3.3122,3.3262,3.3292,3.3352,3.3382,3.3382,3.3382,3.3393,3.3422,3.3481,3.3658,3.3998,3.4073,3.4257,3.4614,3.4357,3.4339,3.466,3.4357,3.4357,3.4633,3.4064,3.3935,3.4211,3.3935,3.3807,0.0,0.0,0.0,1.6616,1.6323,1.6408,1.9165,1.899,1.8923,2.1166,2.1327,2.1302,2.2023,2.1982,2.1691,2.1355,2.1246,2.1183,2.1103,2.1119,2.1119,2.1119,2.099,2.0942,2.1103,2.1135,2.1135,2.1119,2.1924,2.2684,2.3227,2.3481,2.3942,2.4694,2.5174,2.5492,2.5701,2.5621,2.5712,2.5881,2.5897,2.6007,2.622,2.622,2.6327,2.6485,2.6572,2.6623,2.664,2.6623,2.6606,2.6606,2.6826,2.6825,2.6742,2.7023,2.712,2.7304,2.8432,2.8757,2.892,3.0735,3.126,3.1368,3.2227,3.2489,3.2523,3.2573,3.2557,3.2523,3.2573,3.2606,3.2639,3.2773,3.2805,3.2838,3.2948,3.2902,3.2805,3.2823,3.2805,3.2805,3.2805,3.287,3.2948,3.3011,3.3073,3.3165,3.3292,3.331,3.331,3.3292,3.3382,3.3382,3.3358,3.3459,3.3873,3.4702,3.4867,3.5347,3.6266,3.5495,3.5468,3.6362,3.5487,3.5459,3.6285,3.4669,3.4266,3.4972,3.4174,3.3807,1.5346,0.0,0.0,0.0,0.0,0.0,1.6666,1.7311,1.8215,1.9673,2.0261,2.0688,2.1312,2.1647,2.1645,2.0986,2.1108,2.123,2.1103,2.1103,2.1119,2.1119,2.099,2.0974,2.1151,2.1518,2.158,2.1199,2.2274,2.2889,2.2668,2.3777,2.4463,2.4623,2.5269,2.5605,2.5637,2.5616,2.5637,2.5754,2.5844,2.6007,2.6203,2.6345,2.6485,2.6589,2.6657,2.7029,2.7555,2.6928,2.6674,2.6674,2.6842,2.6925,2.7057,2.777,2.8187,2.853,2.9474,2.9814,3.0035,3.1137,3.1423,3.1449,3.2309,3.2573,3.2573,3.2606,3.2657,3.2707,3.2606,3.269,3.274,3.2773,3.287,3.2948,3.2979,3.3091,3.3122,3.3042,3.3091,3.317,3.317,3.317,3.3214,3.3274,3.3304,3.3364,3.3422,3.3452,3.3452,3.3491,3.3509,3.3728,3.4407,3.4462,3.4838,3.5813,3.5878,3.6017,3.6285,3.6121,3.5855,3.5551,3.5855,3.6131,3.637,3.5854,3.5404,3.4972,3.4174,3.3807,0.0,0.0,1.5941,1.6565,0.0,0.0,1.7176,1.733,1.7681,1.8979,1.9447,1.9794,2.0364,2.0637,2.0735,2.0608,2.0727,2.094,2.1165,2.1167,2.1183,2.1183,2.1103,2.1087,2.123,2.1487,2.1568,2.1263,2.2278,2.3056,2.337,2.4167,2.4753,2.5045,2.5489,2.5717,2.5712,2.5749,2.5844,2.5957,2.601,2.617,2.638,2.6485,2.6623,2.6725,2.708,2.7573,2.8118,2.7896,2.7811,2.7794,2.793,2.8064,2.828,2.886,2.926,2.9585,3.0441,3.0769,3.0924,3.1749,3.1933,3.1938,3.2497,3.269,3.269,3.2705,3.2787,3.282,3.2755,3.2787,3.2838,3.2838,3.2916,3.3028,3.3042,3.3183,3.3262,3.3135,3.3214,3.331,3.331,3.3322,3.3352,3.3422,3.3481,3.3509,3.352,3.3549,3.3549,3.3605,3.3577,3.3759,3.4272,3.4647,3.5224,3.6124,3.6567,3.6974,3.7334,3.7022,3.6812,3.6693,3.6822,3.6895,3.6952,3.6507,3.5862,3.4972,3.4201,3.3834,0.0,0.0,0.0,1.8517,1.7696,0.0,1.9103,1.8128,1.7248,1.8755,1.8749,1.8661,1.9248,1.926,1.9413,2.0062,2.0185,2.0458,2.1154,2.1272,2.1274,2.1309,2.1327,2.1359,2.1294,2.1375,2.1408,2.1294,2.2069,2.3128,2.4488,2.456,2.4899,2.5591,2.5689,2.5791,2.5897,2.5954,2.6082,2.6295,2.6295,2.645,2.6724,2.6724,2.6911,2.7231,2.7879,2.8271,2.8508,2.93,2.9489,2.935,2.9489,2.9608,2.9777,3.0127,3.029,3.0472,3.1349,3.1632,3.1738,3.2426,3.2639,3.2639,3.2773,3.2823,3.2805,3.2884,3.2916,3.2916,3.2916,3.2916,3.2916,3.2916,3.2979,3.3042,3.3104,3.3244,3.3292,3.3165,3.3244,3.3322,3.3322,3.3364,3.3452,3.3491,3.3549,3.3605,3.3605,3.3706,3.3724,3.3633,3.3797,3.3879,3.3822,3.4574,3.5389,3.6243,3.7051,3.7904,3.8755,3.8051,3.7978,3.8645,3.7963,3.769,3.7839,3.6812,3.5891,3.5018,3.4255,3.3868,1.7747,1.761,1.7726,1.8048,1.7783,0.0,1.7949,1.7158,1.6688,1.7969,1.7569,1.7172,1.7719,1.8592,1.9056,1.8706,1.951,2.0373,2.0905,2.1078,2.1199,2.1306,2.1907,2.2069,2.1374,2.2246,2.2456,2.1374,2.2133,2.2833,2.3161,2.4296,2.4952,2.505,2.557,2.5881,2.5897,2.5917,2.6007,2.6239,2.6239,2.6716,2.7638,2.7638,2.8152,2.9007,2.9145,2.9332,2.9569,3.0418,3.0247,2.9489,2.9658,2.9791,2.9959,3.0821,3.1197,3.1367,3.2261,3.2559,3.2577,3.2766,3.2787,3.2773,3.287,3.2838,3.2805,3.2884,3.2948,3.2979,3.2916,3.2979,3.3073,3.2979,3.3122,3.3232,3.3262,3.3364,3.3452,3.3433,3.3433,3.3481,3.352,3.3549,3.3577,3.3577,3.3605,3.3633,3.3671,3.4237,3.4412,3.3808,3.4851,3.5656,3.575,3.5831,3.6545,3.8059,3.7753,3.7875,3.8701,3.8615,3.8332,3.7834,3.7727,3.7995,3.867,3.7183,3.603,3.5219,3.4378,3.3972,1.8556,1.8479,1.8581,1.9002,1.8736,0.0,0.0,1.7521,1.7009,1.7534,1.6923,1.6473,1.6998,1.7237,1.7524,1.7968,1.8603,1.9222,1.9687,2.0492,2.1161,2.143,2.1929,2.2174,2.2019,2.2687,2.2834,2.2099,2.2441,2.2914,2.3373,2.4363,2.5086,2.545,2.5757,2.599,2.6059,2.6063,2.6424,2.7056,2.7056,2.7584,2.8594,2.8612,2.899,2.9626,3.0006,3.0106,3.0109,3.13,3.1284,3.0552,3.097,3.1177,3.1311,3.1883,3.2122,3.224,3.2695,3.287,3.287,3.2884,3.2884,3.287,3.2884,3.2884,3.2884,3.306,3.306,3.3028,3.3091,3.3104,3.3086,3.3073,3.3183,3.331,3.331,3.3689,3.408,3.4149,3.4459,3.4506,3.3733,3.3633,3.3643,3.3643,3.4018,3.4302,3.4358,3.5072,3.5467,3.5092,3.5742,3.619,3.619,3.619,3.6538,3.7344,3.7477,3.7661,3.8065,3.8499,3.8578,3.8243,3.8272,3.8329,3.8396,3.7544,3.6694,3.5846,3.5058,3.443,1.9393,1.9455,1.9751,2.036,2.0025,1.9484,0.0,0.0,0.0,1.7169,1.6542,1.6153,1.657,1.6172,1.621,1.7493,1.7697,1.7876,1.8324,1.9502,2.0516,2.1069,2.1545,2.1924,2.2153,2.2261,2.2438,2.2613,2.2731,2.3175,2.4032,2.4761,2.5452,2.6082,2.6099,2.6151,2.6239,2.6462,2.7024,2.7893,2.8064,2.868,2.9591,2.9661,2.992,3.0296,3.0957,3.0933,3.0596,3.1991,3.2148,3.1579,3.2274,3.259,3.2639,3.2773,3.2852,3.2916,3.2916,3.2916,3.2916,3.2916,3.2916,3.2916,3.2916,3.2948,3.2979,3.3183,3.3152,3.3091,3.3232,3.3214,3.3147,3.3135,3.3352,3.3557,3.3557,3.4262,3.4897,3.5009,3.5568,3.5604,3.4355,3.4146,3.4202,3.4202,3.4797,3.5247,3.5247,3.6009,3.6468,3.6321,3.6578,3.6659,3.638,3.6476,3.6549,3.66,3.7173,3.7551,3.7716,3.8389,3.878,3.891,3.8892,3.8664,3.8135,3.8081,3.7489,3.6436,3.5713,3.5047,2.0569,2.0772,2.1391,2.1312,2.1254,2.1001,2.015,0.0,1.7382,1.6575,0.0,1.6158,1.6108,0.0,0.0,1.6985,1.7,1.7166,1.7557,1.779,1.8272,1.9269,2.0725,2.1259,2.0303,2.0127,2.0622,2.1903,2.2705,2.3516,2.4305,2.5665,2.6419,2.645,2.645,2.645,2.6467,2.7175,2.7651,2.7893,2.8731,2.9643,3.0629,3.0699,3.1304,3.2274,3.2362,3.2039,3.1497,3.2464,3.2357,3.1689,3.2471,3.2773,3.2773,3.2852,3.2884,3.2916,3.2916,3.2916,3.2916,3.2916,3.2948,3.2979,3.2979,3.3042,3.3086,3.3117,3.3183,3.3232,3.3135,3.3226,3.3334,3.3292,3.3936,3.4516,3.448,3.5211,3.5908,3.5878,3.5981,3.6058,3.5999,3.5981,3.6009,3.6009,3.6083,3.6156,3.6156,3.6853,3.7074,3.6376,3.7588,3.8138,3.7404,3.7349,3.7661,3.8346,3.7845,3.7808,3.8524,3.8725,3.8822,3.891,3.895,3.8998,3.8952,3.8971,3.8145,3.666,3.581,3.5755,2.2987,2.308,2.3153,2.2171,2.1615,2.0862,1.9065,1.8133,1.7547,1.714,0.0,0.0,0.0,0.0,0.0,0.0,1.6379,1.6417,1.6547,1.6915,1.7677,1.9096,1.9933,2.0512,2.0856,2.0679,2.0817,2.1384,2.2209,2.3025,2.3772,2.5142,2.6118,2.6537,2.652,2.652,2.6554,2.74,2.8132,2.8767,2.9694,3.0663,3.1638,3.1742,3.2071,3.2588,3.269,3.2311,3.1698,3.2563,3.242,3.1734,3.2549,3.287,3.287,3.2884,3.2916,3.2948,3.2948,3.2979,3.3042,3.3042,3.3042,3.3073,3.3152,3.3183,3.3244,3.3316,3.3334,3.3334,3.3345,3.3707,3.4099,3.4057,3.4715,3.5338,3.5338,3.6048,3.6705,3.6815,3.7162,3.7552,3.7649,3.6861,3.6208,3.6285,3.6688,3.6982,3.6982,3.7698,3.8065,3.7734,3.8303,3.8591,3.8283,3.7842,3.7684,3.8033,3.7709,3.7904,3.8773,3.8792,3.8851,3.8968,3.8997,3.9036,3.9101,3.9045,3.8711,3.8061,3.7236,3.6782,2.5039,2.5117,2.4926,2.3342,2.2426,2.1312,1.9088,1.8497,1.8267,1.7721,1.7943,0.0,0.0,0.0,1.6365,1.6061,0.0,1.5652,1.561,1.601,1.6816,1.8177,1.8522,1.9125,2.0338,2.0044,2.0013,2.0569,2.1147,2.198,2.3153,2.4492,2.5578,2.6387,2.6556,2.6657,2.6708,2.7828,2.8768,2.9506,3.0664,3.1586,3.2318,3.2457,3.2574,3.2672,3.2805,3.2531,3.2094,3.2684,3.2608,3.2125,3.2715,3.293,3.2948,3.2948,3.2948,3.3011,3.3011,3.3073,3.3086,3.3086,3.3086,3.3117,3.3292,3.3322,3.3352,3.3481,3.3452,3.3477,3.3724,3.4213,3.4673,3.4891,3.561,3.6253,3.6248,3.6916,3.7562,3.7686,3.8125,3.8541,3.8658,3.7638,3.685,3.6945,3.7441,3.7826,3.7826,3.834,3.8707,3.8707,3.8707,3.8719,3.8792,3.8258,3.7845,3.7642,3.7798,3.8092,3.8559,3.8752,3.891,3.8997,3.9007,3.9045,3.9101,3.9064,3.9045,3.9082,3.8256,3.7681,2.6098,2.6424,2.6634,2.5017,2.4114,2.317,2.146,2.0623,1.9727,1.796,1.8948,1.9582,1.7814,1.7415,0.0,0.0,1.5386,0.0,0.0,1.4792,1.5007,1.5653,1.6178,1.676,1.7471,1.671,1.7049,1.9186,1.9383,2.0353,2.2581,2.3996,2.5084,2.59,2.6551,2.6926,2.6975,2.8747,2.9659,2.9728,3.1564,3.2488,3.2606,3.274,3.2838,3.2884,3.2884,3.2898,3.2943,3.2979,3.3024,3.305,3.3068,3.3086,3.3086,3.3011,3.2979,3.3011,3.3055,3.3086,3.3086,3.3086,3.3086,3.3135,3.3334,3.3411,3.3393,3.3481,3.3509,3.3662,3.4401,3.4613,3.4902,3.5654,3.6626,3.732,3.7179,3.7942,3.8621,3.8473,3.8473,3.8541,3.8658,3.8652,3.8634,3.8615,3.8652,3.867,3.867,3.8689,3.8707,3.8707,3.8707,3.8719,3.8792,3.8773,3.8453,3.7747,3.843,3.8522,3.7765,3.8543,3.8997,3.8979,3.9045,3.9101,3.9101,3.9101,3.9101,3.9082,3.8201,3.8266,2.8817,2.8558,2.7966,2.6395,2.5534,2.4604,2.2951,2.2469,2.1888,2.0206,2.1166,2.1475,1.8787,1.872,0.0,0.0,0.0,1.5526,0.0,1.4775,1.4743,1.4853,1.5887,1.6619,1.6673,1.6818,1.7202,1.785,1.8941,2.0048,2.1184,2.2695,2.4012,2.5124,2.5911,2.6751,2.7725,2.9057,2.9987,3.049,3.1861,3.259,3.2722,3.2773,3.287,3.2948,3.2948,3.3011,3.3073,3.3073,3.3086,3.3086,3.3042,3.3042,3.3042,3.3073,3.3104,3.3201,3.3274,3.3274,3.3244,3.3274,3.3304,3.3334,3.3422,3.3884,3.4418,3.44,3.483,3.5276,3.552,3.5964,3.6419,3.6711,3.7416,3.8063,3.8045,3.8327,3.859,3.8609,3.864,3.8658,3.8707,3.8707,3.8707,3.8707,3.8707,3.8707,3.8707,3.8707,3.8707,3.8707,3.8707,3.8548,3.8095,3.7618,3.7442,3.7748,3.7997,3.8015,3.7831,3.8581,3.9007,3.9064,3.9073,3.9101,3.9101,3.9101,3.9156,3.9219,3.8912,3.895,3.0972,3.0412,2.9428,2.7975,2.7042,2.6117,2.4549,2.4457,2.4253,2.2623,2.3356,2.3483,2.0822,2.0332,1.9594,0.0,0.0,0.0,0.0,1.4823,1.4695,1.4552,1.5329,1.5789,1.5607,1.5944,1.6394,1.6887,1.7889,1.8994,2.0179,2.1917,2.338,2.4534,2.5743,2.6967,2.8202,2.9278,3.0243,3.1009,3.2102,3.269,3.2838,3.287,3.2934,3.2979,3.3011,3.3073,3.3165,3.3165,3.3196,3.3196,3.3183,3.3152,3.3152,3.3104,3.3196,3.3322,3.3352,3.3533,3.3756,3.3768,3.3798,3.3852,3.4273,3.4608,3.4903,3.5235,3.5692,3.6168,3.6431,3.6876,3.7351,3.7593,3.8081,3.8496,3.8559,3.8559,3.8609,3.8658,3.8707,3.8707,3.8707,3.8707,3.8707,3.8707,3.8707,3.8707,3.8707,3.8707,3.8707,3.8707,3.8707,3.8437,3.7708,3.7258,3.7109,3.7359,3.7609,3.7803,3.7894,3.8619,3.9064,3.9101,3.9101,3.9101,3.9101,3.9129,3.9183,3.929,3.9343,3.9335]}]]